[[{"header":{"parameterUnit":"m.s-1","parameterCategory":1,"la1":31.0,"la2":29.5877,"lo1":-88.7671,"lo2":-86.6584,"dy":0.0162,"dx":0.0185,"nx":115,"ny":88,"refTime":"2024-05-25T18:00:00:Z","depth":0,"parameterNumber":2,"parameterNumberName":"U-component_of_WINDS"},"data":[0.0,0.0,0.0,0.0,0.0,0.0,0.0,0.0,0.0,0.0,0.0,0.0,0.0,0.0,0.0,0.0,0.0,0.0,0.0,0.0,0.0,0.0,0.0,0.0,0.0,0.0,0.0,0.0,0.0,0.0,0.0,0.0,0.0,0.0,0.0,0.0,0.0,0.0,0.0,0.0,0.0,0.0,0.0,0.0,0.0,0.0,0.0,0.0,0.0,0.0,0.0,0.0,0.0,0.0,0.0,0.0,0.0,0.0,0.0,0.0,0.0,0.0,0.0,0.0,0.0,0.0,0.0,0.0,0.0,0.0,0.0,0.0,0.0,0.0,0.0,0.0,0.0,0.0,0.0,0.0,0.0,0.0,0.0,0.0,0.0,0.0,0.0,0.0,0.0,0.0,0.0,0.0,0.0,0.0,0.0,0.0,0.0,0.0,0.0,0.0,0.0,0.0,0.0,0.0,0.0,0.0,0.0,0.0,0.0,0.0,0.0,0.0,0.0,0.0,0.0,0.0,0.0,0.0,0.0,0.0,0.0,0.0,0.0,0.0,0.0,0.0,0.0,0.0,0.0,0.0,0.0,0.0,0.0,0.0,0.0,0.0,0.0,0.0,0.0,0.0,0.0,0.0,0.0,0.0,0.0,0.0,0.0,0.0,0.0,0.0,0.0,0.0,0.0,0.0,0.0,0.0,0.0,0.0,0.0,0.0,0.0,0.0,0.0,0.0,0.0,0.0,0.0,0.0,0.0,0.0,0.0,0.0,0.0,0.0,0.0,0.0,0.0,0.0,0.0,0.0,0.0,0.0,0.0,0.0,0.0,0.0,0.0,0.0,0.0,0.0,0.0,0.0,0.0,0.0,0.0,0.0,0.0,0.0,0.0,0.0,0.0,0.0,0.0,0.0,0.0,0.0,0.0,0.0,0.0,0.0,0.0,0.0,0.0,0.0,0.0,0.0,0.0,0.0,0.0,0.0,0.0,0.0,0.0,0.0,0.0,0.0,0.0,0.0,0.0,0.0,0.0,0.0,0.0,0.0,0.0,0.0,0.0,0.0,0.0,0.0,0.0,0.0,0.0,0.0,0.0,0.0,0.0,0.0,0.0,0.0,0.0,0.0,0.0,0.0,0.0,0.0,0.0,0.0,0.0,0.0,0.0,0.0,0.0,0.0,0.0,0.0,0.0,0.0,0.0,0.0,0.0,0.0,0.0,0.0,0.0,0.0,0.0,0.0,0.0,0.0,0.0,0.0,0.0,0.0,0.0,0.0,0.0,0.0,0.0,0.0,0.0,0.0,0.0,0.0,0.0,0.0,0.0,0.0,0.0,0.0,0.0,0.0,0.0,0.0,0.0,0.0,0.0,0.0,0.0,0.0,0.0,0.0,0.0,0.0,0.0,0.0,0.0,0.0,0.0,0.0,0.0,0.0,0.0,0.0,0.0,0.0,0.0,0.0,0.0,0.0,0.0,0.0,0.0,0.0,0.0,0.0,0.0,0.0,0.0,0.0,0.0,0.0,0.0,0.0,0.0,0.0,0.0,0.0,0.0,0.0,0.0,0.0,0.0,0.0,0.0,0.0,0.0,0.0,0.0,0.0,0.0,0.0,0.0,0.0,0.0,0.0,0.0,0.0,0.0,0.0,0.0,0.0,0.0,0.0,0.0,0.0,0.0,0.0,0.0,0.0,0.0,0.0,0.0,0.0,0.0,0.0,0.0,0.0,0.0,0.0,0.0,0.0,0.0,0.0,0.0,0.0,0.0,0.0,0.0,0.0,0.0,0.0,0.0,0.0,0.0,0.0,0.0,0.0,0.0,0.0,0.0,0.0,0.0,0.0,0.0,0.0,0.0,0.0,0.0,0.0,0.0,0.0,0.0,0.0,0.0,0.0,0.0,0.0,0.0,0.0,0.0,0.0,0.0,0.0,0.0,0.0,0.0,0.0,0.0,0.0,0.0,0.0,0.0,0.0,0.0,0.0,0.0,0.0,0.0,0.0,0.0,0.0,0.0,0.0,0.0,0.0,0.0,0.0,0.0,0.0,0.0,0.0,0.0,0.0,0.0,0.0,0.0,0.0,0.0,0.0,0.0,0.0,0.0,0.0,0.0,0.0,0.0,0.0,0.0,0.0,0.0,0.0,0.0,0.0,0.0,0.0,0.0,0.0,0.0,0.0,0.0,0.0,0.0,0.0,0.0,0.0,0.0,0.0,0.0,0.0,0.0,0.0,0.0,0.0,0.0,0.0,0.0,0.0,0.0,0.0,0.0,0.0,0.0,0.0,0.0,0.0,0.0,0.0,0.0,0.0,0.0,0.0,0.0,0.0,0.0,0.0,0.0,0.0,0.0,0.0,0.0,0.0,0.0,0.0,0.0,0.0,0.0,0.0,0.0,0.0,0.0,0.0,0.0,0.0,0.0,0.0,0.0,0.0,0.0,0.0,0.0,0.0,0.0,0.0,0.0,0.0,0.0,0.0,0.0,0.0,0.0,0.0,0.0,0.0,0.0,0.0,0.0,0.0,0.0,0.0,0.0,0.0,0.0,0.0,0.0,0.0,0.0,0.0,0.0,0.0,0.0,0.0,0.0,0.0,0.0,0.0,0.0,0.0,0.0,0.0,0.0,0.0,0.0,0.0,0.0,0.0,0.0,0.0,0.0,0.0,0.0,0.0,0.0,0.0,0.0,0.0,0.0,0.0,0.0,0.0,0.0,0.0,0.0,0.0,0.0,0.0,0.0,0.0,0.0,0.0,0.0,0.0,0.0,0.0,0.0,0.0,0.0,0.0,0.0,0.0,0.0,0.0,0.0,0.0,0.0,0.0,0.0,0.0,0.0,0.0,0.0,0.0,0.0,0.0,0.0,0.0,0.0,0.0,0.0,0.0,0.0,0.0,0.0,0.0,0.0,0.0,0.0,0.0,0.0,0.0,0.0,0.0,0.0,0.0,0.0,0.0,0.0,0.0,0.0,0.0,0.0,0.0,0.0,0.0,0.0,0.0,0.0,0.0,0.0,0.0,0.0,0.0,0.0,0.0,0.0,0.0,0.0,0.0,0.0,0.0,0.0,0.0,0.0,0.0,0.0,0.0,0.0,0.0,0.0,0.0,0.0,0.0,0.0,0.0,0.0,0.0,0.0,0.0,0.0,0.0,0.0,0.0,0.0,0.0,0.0,0.0,0.0,0.0,0.0,0.0,0.0,0.0,0.0,0.0,0.0,0.0,0.0,0.0,0.0,0.0,0.0,0.0,0.0,0.0,0.0,0.0,0.0,0.0,0.0,0.0,0.0,0.0,0.0,0.0,0.0,0.0,0.0,0.0,0.0,0.0,0.0,0.0,0.0,0.0,0.0,0.0,0.0,0.0,0.0,0.0,0.0,0.0,0.0,0.0,0.0,0.0,0.0,0.0,0.0,0.0,0.0,0.0,0.0,0.0,0.0,0.0,0.0,0.0,0.0,0.0,0.0,0.0,0.0,0.0,0.0,0.0,0.0,0.0,0.0,0.0,0.0,0.0,0.0,0.0,0.0,0.0,0.0,0.0,0.0,0.0,0.0,0.0,0.0,0.0,0.0,0.0,0.0,0.0,0.0,0.0,0.0,0.0,0.0,0.0,0.0,0.0,0.0,0.0,0.0,0.0,0.0,0.0,0.0,0.0,0.0,0.0,0.0,0.0,0.0,0.0,0.0,0.0,0.0,0.0,0.0,0.0,0.0,0.0,0.0,0.0,0.0,0.0,0.0,0.0,0.0,0.0,0.0,0.0,0.0,0.0,0.0,0.0,0.0,0.0,0.0,0.0,0.0,0.0,0.0,0.0,0.0,0.0,0.0,0.0,0.0,0.0,0.0,0.0,0.0,0.0,0.0,0.0,0.0,0.0,0.0,0.0,0.0,0.0,0.0,0.0,0.0,0.0,0.0,0.0,0.0,0.0,0.0,0.0,0.0,0.0,0.0,0.0,0.0,0.0,0.0,0.0,0.0,0.0,0.0,0.0,0.0,0.0,0.0,0.0,0.0,0.0,0.0,0.0,0.0,0.0,0.0,0.0,0.0,0.0,0.0,0.0,0.0,0.0,0.0,0.0,0.0,0.0,0.0,0.0,0.0,0.0,0.0,0.0,0.0,0.0,0.0,0.0,0.0,0.0,0.0,0.0,0.0,0.0,0.0,0.0,0.0,0.0,0.0,0.0,0.0,0.0,0.0,0.0,0.0,0.0,0.0,0.0,0.0,0.0,0.0,0.0,0.0,0.0,0.0,0.0,0.0,0.0,0.0,0.0,0.0,0.0,-5.813,0.0,0.0,0.0,0.0,0.0,0.0,0.0,0.0,0.0,0.0,0.0,0.0,0.0,0.0,0.0,0.0,0.0,0.0,0.0,0.0,0.0,0.0,0.0,0.0,0.0,0.0,0.0,0.0,0.0,0.0,0.0,0.0,0.0,0.0,0.0,0.0,0.0,0.0,0.0,0.0,0.0,0.0,0.0,0.0,0.0,0.0,0.0,0.0,0.0,0.0,0.0,0.0,0.0,0.0,0.0,0.0,0.0,0.0,0.0,0.0,0.0,0.0,0.0,0.0,0.0,0.0,0.0,0.0,0.0,0.0,0.0,0.0,0.0,0.0,0.0,0.0,0.0,0.0,0.0,0.0,0.0,0.0,0.0,0.0,0.0,0.0,0.0,0.0,0.0,0.0,0.0,0.0,0.0,0.0,0.0,0.0,0.0,0.0,0.0,0.0,0.0,0.0,0.0,0.0,0.0,0.0,0.0,0.0,0.0,0.0,-6.1085,-6.0986,-6.029,-5.9379,-5.8272,0.0,0.0,0.0,0.0,0.0,0.0,0.0,0.0,0.0,0.0,0.0,0.0,0.0,0.0,0.0,0.0,0.0,0.0,0.0,0.0,0.0,0.0,0.0,0.0,0.0,0.0,0.0,0.0,0.0,0.0,0.0,0.0,0.0,0.0,0.0,0.0,0.0,0.0,0.0,0.0,0.0,0.0,0.0,0.0,0.0,0.0,0.0,0.0,0.0,0.0,0.0,0.0,0.0,0.0,0.0,0.0,0.0,0.0,0.0,0.0,0.0,0.0,0.0,0.0,0.0,0.0,0.0,0.0,0.0,0.0,0.0,0.0,0.0,0.0,0.0,0.0,0.0,0.0,0.0,0.0,0.0,0.0,0.0,0.0,0.0,0.0,0.0,0.0,0.0,0.0,0.0,0.0,0.0,0.0,0.0,0.0,0.0,0.0,0.0,0.0,0.0,0.0,0.0,0.0,0.0,0.0,0.0,0.0,0.0,0.0,0.0,0.0,-6.0751,-5.9609,-5.7855,0.0,0.0,0.0,0.0,0.0,0.0,0.0,0.0,0.0,0.0,0.0,0.0,0.0,0.0,0.0,0.0,0.0,0.0,0.0,0.0,0.0,0.0,0.0,0.0,0.0,0.0,0.0,0.0,0.0,0.0,0.0,0.0,0.0,0.0,0.0,0.0,0.0,0.0,0.0,0.0,0.0,0.0,0.0,0.0,0.0,0.0,0.0,0.0,0.0,0.0,0.0,0.0,0.0,0.0,0.0,0.0,0.0,0.0,0.0,0.0,0.0,0.0,0.0,0.0,0.0,0.0,0.0,0.0,0.0,0.0,0.0,0.0,0.0,0.0,0.0,0.0,0.0,0.0,0.0,0.0,0.0,0.0,0.0,0.0,0.0,0.0,0.0,0.0,0.0,0.0,0.0,0.0,0.0,0.0,0.0,0.0,0.0,0.0,0.0,0.0,0.0,0.0,0.0,0.0,0.0,0.0,0.0,0.0,0.0,0.0,-6.1766,-6.2425,-6.229,0.0,-5.6805,0.0,0.0,0.0,0.0,0.0,0.0,0.0,0.0,0.0,0.0,0.0,0.0,0.0,0.0,0.0,0.0,0.0,0.0,0.0,0.0,0.0,0.0,0.0,0.0,0.0,0.0,0.0,0.0,0.0,0.0,0.0,0.0,0.0,0.0,0.0,0.0,0.0,0.0,0.0,0.0,0.0,0.0,0.0,0.0,0.0,0.0,0.0,0.0,0.0,0.0,0.0,0.0,0.0,0.0,0.0,0.0,0.0,0.0,0.0,0.0,0.0,0.0,0.0,0.0,0.0,0.0,0.0,0.0,0.0,0.0,0.0,0.0,0.0,0.0,0.0,0.0,0.0,0.0,0.0,0.0,0.0,0.0,0.0,0.0,0.0,0.0,0.0,0.0,0.0,0.0,0.0,0.0,0.0,0.0,0.0,0.0,0.0,0.0,0.0,0.0,0.0,0.0,0.0,0.0,0.0,0.0,0.0,0.0,0.0,0.0,-6.2356,-6.2534,-6.1344,-5.9355,0.0,0.0,0.0,0.0,0.0,0.0,0.0,0.0,0.0,0.0,0.0,0.0,0.0,0.0,0.0,0.0,0.0,0.0,0.0,0.0,0.0,0.0,0.0,0.0,0.0,0.0,0.0,0.0,0.0,0.0,0.0,0.0,0.0,0.0,0.0,0.0,0.0,0.0,0.0,0.0,0.0,0.0,0.0,0.0,0.0,0.0,0.0,0.0,0.0,0.0,0.0,0.0,0.0,0.0,0.0,0.0,0.0,0.0,0.0,0.0,0.0,0.0,0.0,0.0,0.0,0.0,0.0,0.0,0.0,0.0,0.0,0.0,0.0,0.0,0.0,0.0,0.0,0.0,0.0,0.0,0.0,0.0,0.0,0.0,0.0,0.0,0.0,0.0,0.0,0.0,0.0,0.0,0.0,0.0,0.0,0.0,0.0,0.0,0.0,0.0,0.0,0.0,0.0,0.0,0.0,0.0,0.0,0.0,0.0,0.0,-6.2558,-6.2756,-6.249,-6.1022,-5.8865,-5.6006,0.0,0.0,0.0,0.0,0.0,0.0,0.0,0.0,0.0,0.0,0.0,0.0,0.0,0.0,0.0,0.0,0.0,0.0,0.0,0.0,0.0,0.0,0.0,0.0,0.0,0.0,0.0,0.0,0.0,0.0,0.0,0.0,0.0,0.0,0.0,0.0,0.0,0.0,0.0,0.0,0.0,0.0,0.0,0.0,0.0,0.0,0.0,0.0,0.0,0.0,0.0,0.0,0.0,0.0,0.0,0.0,0.0,0.0,0.0,0.0,0.0,0.0,0.0,0.0,0.0,0.0,0.0,0.0,0.0,0.0,0.0,0.0,0.0,0.0,0.0,0.0,0.0,0.0,0.0,0.0,0.0,0.0,0.0,0.0,0.0,0.0,0.0,0.0,0.0,0.0,0.0,0.0,0.0,0.0,0.0,0.0,0.0,0.0,0.0,0.0,0.0,0.0,0.0,0.0,0.0,0.0,0.0,0.0,-6.35,-6.3191,-6.2863,-6.2624,-6.2211,-5.969,0.0,0.0,0.0,0.0,0.0,0.0,0.0,0.0,0.0,0.0,0.0,0.0,0.0,0.0,0.0,0.0,0.0,0.0,0.0,0.0,0.0,0.0,0.0,0.0,0.0,0.0,0.0,0.0,0.0,0.0,0.0,0.0,0.0,0.0,0.0,0.0,0.0,0.0,0.0,0.0,0.0,0.0,0.0,0.0,0.0,0.0,0.0,0.0,0.0,0.0,0.0,0.0,0.0,0.0,0.0,0.0,0.0,0.0,0.0,0.0,0.0,0.0,0.0,0.0,0.0,0.0,0.0,0.0,0.0,0.0,0.0,0.0,0.0,0.0,0.0,0.0,0.0,0.0,0.0,0.0,0.0,0.0,0.0,0.0,0.0,0.0,0.0,0.0,0.0,0.0,0.0,0.0,0.0,0.0,0.0,0.0,0.0,0.0,0.0,0.0,0.0,0.0,0.0,0.0,0.0,0.0,0.0,0.0,0.0,-6.1314,-6.235,-6.3052,-6.328,-6.1068,-5.815,0.0,0.0,0.0,0.0,0.0,0.0,0.0,0.0,0.0,0.0,0.0,0.0,0.0,0.0,0.0,0.0,0.0,0.0,0.0,0.0,0.0,0.0,0.0,0.0,0.0,0.0,0.0,0.0,0.0,0.0,0.0,0.0,0.0,0.0,0.0,0.0,0.0,0.0,0.0,0.0,0.0,0.0,0.0,0.0,0.0,0.0,0.0,0.0,0.0,0.0,0.0,0.0,0.0,0.0,0.0,0.0,0.0,0.0,0.0,0.0,0.0,0.0,0.0,0.0,0.0,0.0,0.0,0.0,0.0,0.0,0.0,0.0,0.0,0.0,0.0,0.0,0.0,0.0,0.0,0.0,0.0,0.0,0.0,0.0,0.0,0.0,0.0,0.0,0.0,0.0,0.0,0.0,0.0,0.0,0.0,0.0,0.0,0.0,0.0,0.0,0.0,0.0,0.0,0.0,0.0,0.0,0.0,0.0,0.0,-6.0535,0.0,-6.2859,-6.2896,-6.0352,-5.7424,0.0,0.0,0.0,0.0,0.0,0.0,0.0,0.0,0.0,0.0,0.0,0.0,0.0,0.0,0.0,0.0,0.0,0.0,0.0,0.0,0.0,0.0,0.0,0.0,0.0,0.0,0.0,0.0,0.0,0.0,0.0,0.0,0.0,0.0,0.0,0.0,0.0,0.0,0.0,0.0,0.0,0.0,0.0,0.0,0.0,0.0,0.0,0.0,0.0,0.0,0.0,0.0,0.0,0.0,0.0,0.0,0.0,0.0,0.0,0.0,0.0,0.0,0.0,0.0,0.0,0.0,0.0,0.0,0.0,0.0,0.0,0.0,0.0,0.0,0.0,0.0,0.0,0.0,0.0,0.0,0.0,0.0,0.0,0.0,0.0,0.0,0.0,0.0,0.0,0.0,0.0,0.0,0.0,0.0,0.0,0.0,0.0,0.0,0.0,0.0,0.0,0.0,0.0,0.0,0.0,0.0,0.0,0.0,-5.9182,-6.1542,-6.2377,-6.2329,-6.137,-6.0281,-5.7694,0.0,0.0,0.0,0.0,0.0,0.0,0.0,0.0,0.0,0.0,0.0,0.0,0.0,0.0,0.0,0.0,0.0,0.0,0.0,0.0,0.0,0.0,0.0,0.0,0.0,0.0,0.0,0.0,0.0,0.0,0.0,0.0,0.0,0.0,0.0,0.0,0.0,0.0,0.0,0.0,0.0,0.0,0.0,0.0,0.0,0.0,0.0,0.0,0.0,0.0,0.0,0.0,0.0,0.0,0.0,0.0,0.0,0.0,0.0,0.0,0.0,0.0,0.0,0.0,0.0,0.0,0.0,0.0,0.0,0.0,0.0,0.0,0.0,0.0,0.0,0.0,0.0,0.0,0.0,0.0,0.0,0.0,0.0,0.0,0.0,0.0,0.0,0.0,0.0,0.0,0.0,0.0,0.0,0.0,0.0,0.0,0.0,0.0,0.0,0.0,0.0,0.0,0.0,0.0,0.0,0.0,0.0,0.0,0.0,-6.0761,-6.1619,-6.2067,-6.204,-5.958,-5.6943,0.0,0.0,0.0,0.0,0.0,0.0,0.0,0.0,0.0,0.0,0.0,0.0,0.0,0.0,0.0,0.0,0.0,0.0,0.0,0.0,0.0,0.0,0.0,0.0,0.0,0.0,0.0,0.0,0.0,0.0,0.0,0.0,0.0,0.0,0.0,0.0,0.0,0.0,0.0,0.0,0.0,0.0,0.0,0.0,0.0,0.0,0.0,0.0,0.0,0.0,0.0,0.0,0.0,0.0,0.0,0.0,0.0,0.0,0.0,0.0,0.0,0.0,0.0,0.0,0.0,0.0,0.0,0.0,0.0,0.0,0.0,0.0,0.0,0.0,0.0,0.0,0.0,0.0,0.0,0.0,0.0,0.0,0.0,0.0,0.0,0.0,0.0,0.0,0.0,0.0,0.0,0.0,0.0,0.0,0.0,0.0,0.0,0.0,0.0,0.0,0.0,0.0,0.0,0.0,0.0,0.0,0.0,0.0,0.0,-6.0859,-6.1738,-6.2299,-6.2534,-5.9866,-5.737,-5.508,0.0,0.0,0.0,0.0,0.0,0.0,0.0,0.0,0.0,0.0,0.0,0.0,0.0,0.0,0.0,0.0,0.0,0.0,0.0,0.0,0.0,0.0,0.0,0.0,0.0,0.0,0.0,0.0,0.0,0.0,0.0,0.0,0.0,0.0,0.0,0.0,0.0,0.0,0.0,0.0,0.0,0.0,0.0,0.0,0.0,0.0,0.0,0.0,0.0,0.0,0.0,0.0,0.0,0.0,0.0,0.0,0.0,0.0,0.0,0.0,0.0,0.0,0.0,0.0,0.0,0.0,0.0,0.0,0.0,0.0,0.0,0.0,0.0,0.0,0.0,0.0,0.0,0.0,0.0,0.0,0.0,0.0,0.0,0.0,0.0,0.0,0.0,0.0,0.0,0.0,0.0,0.0,0.0,0.0,0.0,0.0,0.0,0.0,0.0,0.0,0.0,0.0,0.0,0.0,0.0,0.0,0.0,0.0,-6.1836,-6.2676,-6.298,-6.2669,-6.0903,-5.8706,0.0,0.0,0.0,0.0,0.0,0.0,0.0,0.0,0.0,0.0,0.0,0.0,0.0,0.0,0.0,0.0,0.0,0.0,0.0,0.0,0.0,0.0,0.0,0.0,0.0,0.0,0.0,0.0,0.0,0.0,0.0,0.0,0.0,0.0,0.0,0.0,0.0,0.0,0.0,0.0,0.0,0.0,0.0,0.0,0.0,0.0,0.0,0.0,0.0,0.0,0.0,0.0,0.0,0.0,0.0,0.0,0.0,0.0,0.0,0.0,0.0,0.0,0.0,0.0,0.0,0.0,0.0,0.0,0.0,0.0,0.0,0.0,0.0,0.0,0.0,0.0,0.0,0.0,0.0,0.0,0.0,0.0,0.0,0.0,0.0,0.0,0.0,0.0,0.0,0.0,0.0,0.0,0.0,0.0,0.0,0.0,0.0,0.0,0.0,0.0,0.0,0.0,0.0,0.0,0.0,0.0,0.0,0.0,0.0,-6.3574,-6.432,-6.4313,-6.348,-6.1209,-5.8949,0.0,0.0,0.0,0.0,0.0,0.0,0.0,0.0,0.0,0.0,0.0,0.0,0.0,0.0,0.0,0.0,0.0,0.0,0.0,0.0,0.0,0.0,0.0,0.0,0.0,0.0,0.0,0.0,0.0,0.0,0.0,0.0,0.0,0.0,0.0,0.0,0.0,0.0,0.0,0.0,0.0,0.0,0.0,0.0,0.0,0.0,0.0,0.0,0.0,0.0,0.0,0.0,0.0,0.0,0.0,0.0,0.0,0.0,0.0,0.0,0.0,0.0,0.0,0.0,0.0,0.0,0.0,0.0,0.0,0.0,0.0,0.0,0.0,0.0,0.0,0.0,0.0,0.0,0.0,0.0,0.0,0.0,0.0,0.0,0.0,0.0,0.0,0.0,0.0,0.0,0.0,0.0,0.0,0.0,0.0,0.0,0.0,0.0,0.0,0.0,0.0,0.0,0.0,0.0,0.0,0.0,0.0,0.0,-6.2418,-6.364,-6.4746,-6.4636,-6.3194,-6.2087,-6.0075,0.0,0.0,0.0,0.0,0.0,0.0,0.0,0.0,0.0,0.0,0.0,0.0,0.0,0.0,0.0,0.0,0.0,0.0,0.0,0.0,0.0,0.0,0.0,0.0,0.0,0.0,0.0,0.0,0.0,0.0,0.0,0.0,0.0,0.0,0.0,0.0,0.0,0.0,0.0,0.0,0.0,0.0,0.0,0.0,0.0,0.0,0.0,0.0,0.0,0.0,0.0,0.0,0.0,0.0,0.0,0.0,0.0,0.0,0.0,0.0,0.0,0.0,0.0,0.0,0.0,0.0,0.0,0.0,0.0,0.0,0.0,0.0,0.0,0.0,0.0,0.0,0.0,0.0,0.0,0.0,0.0,0.0,0.0,0.0,0.0,0.0,0.0,0.0,0.0,0.0,0.0,0.0,0.0,0.0,0.0,0.0,0.0,0.0,0.0,0.0,0.0,0.0,0.0,0.0,0.0,0.0,0.0,0.0,-6.2767,-6.2831,-6.4421,-6.4339,-6.2416,-6.3048,-6.1427,0.0,0.0,0.0,0.0,0.0,0.0,0.0,0.0,0.0,0.0,0.0,0.0,0.0,0.0,0.0,0.0,0.0,0.0,0.0,0.0,0.0,0.0,0.0,0.0,0.0,0.0,0.0,0.0,0.0,0.0,0.0,0.0,0.0,0.0,0.0,0.0,0.0,0.0,0.0,0.0,0.0,0.0,0.0,0.0,0.0,0.0,0.0,0.0,0.0,0.0,0.0,0.0,0.0,0.0,0.0,0.0,0.0,0.0,0.0,0.0,0.0,0.0,0.0,0.0,0.0,0.0,0.0,0.0,0.0,0.0,0.0,0.0,0.0,0.0,0.0,0.0,0.0,0.0,0.0,0.0,0.0,0.0,0.0,0.0,0.0,0.0,0.0,0.0,0.0,0.0,0.0,0.0,0.0,0.0,0.0,0.0,0.0,0.0,0.0,0.0,0.0,0.0,0.0,0.0,0.0,0.0,0.0,0.0,-6.3297,-6.2828,-6.4334,-6.4234,-6.2349,-6.2476,-6.0823,0.0,0.0,0.0,0.0,0.0,0.0,0.0,0.0,0.0,0.0,0.0,0.0,0.0,0.0,0.0,0.0,0.0,0.0,0.0,0.0,0.0,0.0,0.0,0.0,0.0,0.0,0.0,0.0,0.0,0.0,0.0,0.0,0.0,0.0,0.0,0.0,0.0,0.0,0.0,0.0,0.0,0.0,0.0,0.0,0.0,0.0,0.0,0.0,-6.0146,0.0,0.0,0.0,0.0,0.0,0.0,0.0,0.0,0.0,0.0,0.0,0.0,0.0,0.0,0.0,0.0,0.0,0.0,0.0,0.0,0.0,0.0,0.0,0.0,0.0,0.0,0.0,0.0,0.0,0.0,0.0,0.0,0.0,0.0,0.0,0.0,0.0,0.0,0.0,0.0,0.0,0.0,0.0,0.0,0.0,0.0,0.0,0.0,0.0,0.0,0.0,0.0,0.0,0.0,0.0,0.0,0.0,0.0,0.0,-6.2316,-6.1982,-6.3144,-6.3098,-6.1688,-6.1996,-6.0563,0.0,0.0,0.0,0.0,0.0,0.0,0.0,0.0,0.0,0.0,0.0,0.0,0.0,0.0,0.0,0.0,0.0,0.0,0.0,0.0,0.0,0.0,0.0,0.0,0.0,0.0,0.0,0.0,0.0,0.0,0.0,0.0,0.0,0.0,0.0,0.0,0.0,0.0,0.0,0.0,0.0,0.0,0.0,0.0,0.0,0.0,0.0,0.0,0.0,0.0,0.0,0.0,0.0,0.0,0.0,0.0,0.0,0.0,0.0,0.0,0.0,0.0,0.0,0.0,0.0,0.0,0.0,0.0,0.0,0.0,0.0,0.0,0.0,0.0,0.0,0.0,0.0,0.0,0.0,0.0,0.0,0.0,0.0,0.0,0.0,0.0,0.0,0.0,0.0,0.0,0.0,0.0,0.0,0.0,0.0,0.0,0.0,0.0,0.0,0.0,0.0,0.0,0.0,0.0,0.0,0.0,0.0,-6.0212,-6.1006,-6.1036,-6.1849,-6.1805,-6.085,-6.1438,-6.0242,-5.6976,0.0,0.0,0.0,0.0,0.0,0.0,0.0,0.0,0.0,0.0,0.0,0.0,0.0,0.0,0.0,0.0,0.0,0.0,0.0,0.0,0.0,0.0,0.0,0.0,0.0,0.0,0.0,0.0,0.0,0.0,0.0,0.0,0.0,0.0,0.0,0.0,0.0,0.0,-5.5167,-5.7844,0.0,0.0,0.0,0.0,0.0,0.0,0.0,0.0,-5.8553,0.0,0.0,0.0,0.0,0.0,0.0,0.0,0.0,0.0,0.0,0.0,0.0,0.0,0.0,0.0,0.0,0.0,0.0,0.0,0.0,0.0,0.0,0.0,0.0,0.0,0.0,0.0,0.0,0.0,0.0,0.0,0.0,0.0,0.0,0.0,0.0,0.0,0.0,0.0,0.0,0.0,0.0,0.0,0.0,0.0,0.0,0.0,0.0,0.0,0.0,0.0,0.0,0.0,0.0,0.0,0.0,-5.9545,-6.0511,-6.1014,-6.1025,-6.1847,-6.1805,-6.085,-6.0558,-5.9058,-5.6201,0.0,0.0,0.0,0.0,0.0,0.0,0.0,0.0,0.0,0.0,0.0,0.0,0.0,0.0,0.0,0.0,0.0,0.0,0.0,0.0,0.0,0.0,0.0,0.0,0.0,0.0,0.0,0.0,0.0,0.0,0.0,0.0,0.0,0.0,0.0,0.0,0.0,0.0,0.0,-5.8928,-6.0274,0.0,0.0,0.0,0.0,0.0,0.0,0.0,0.0,-5.8079,0.0,0.0,0.0,0.0,0.0,0.0,0.0,0.0,0.0,0.0,0.0,0.0,0.0,0.0,0.0,0.0,0.0,0.0,0.0,0.0,0.0,0.0,0.0,0.0,0.0,0.0,0.0,0.0,0.0,0.0,0.0,0.0,0.0,0.0,0.0,0.0,0.0,0.0,0.0,0.0,0.0,0.0,0.0,0.0,0.0,0.0,0.0,0.0,0.0,0.0,0.0,0.0,0.0,0.0,0.0,-5.8905,-6.0277,-6.0884,-6.0904,-6.129,-6.1304,-6.0781,-5.9542,-5.7701,0.0,0.0,0.0,0.0,0.0,0.0,0.0,0.0,0.0,0.0,0.0,0.0,0.0,0.0,0.0,0.0,0.0,0.0,0.0,0.0,0.0,0.0,0.0,0.0,0.0,0.0,0.0,0.0,0.0,0.0,0.0,0.0,0.0,0.0,0.0,0.0,0.0,0.0,0.0,0.0,-5.8718,-5.9687,-6.0976,0.0,0.0,0.0,0.0,0.0,0.0,-5.8016,-5.7192,0.0,0.0,0.0,0.0,0.0,0.0,0.0,0.0,0.0,0.0,0.0,0.0,0.0,0.0,0.0,0.0,0.0,0.0,0.0,0.0,0.0,0.0,0.0,0.0,0.0,0.0,0.0,0.0,0.0,0.0,0.0,0.0,0.0,0.0,0.0,0.0,0.0,0.0,0.0,0.0,0.0,0.0,0.0,0.0,0.0,0.0,0.0,0.0,0.0,0.0,0.0,0.0,0.0,0.0,0.0,-5.7989,-5.9685,-6.0627,-6.0781,-6.08,-6.0757,-6.0628,-5.8798,-5.6762,0.0,0.0,0.0,0.0,0.0,0.0,0.0,0.0,0.0,0.0,0.0,0.0,0.0,0.0,0.0,0.0,0.0,0.0,0.0,0.0,0.0,0.0,0.0,0.0,0.0,0.0,0.0,0.0,0.0,0.0,0.0,0.0,0.0,0.0,0.0,0.0,0.0,0.0,0.0,0.0,0.0,-5.9406,-6.059,-6.0043,0.0,0.0,0.0,0.0,-5.8265,-5.7417,0.0,0.0,0.0,0.0,0.0,0.0,0.0,0.0,0.0,0.0,0.0,0.0,0.0,0.0,0.0,0.0,0.0,0.0,0.0,0.0,0.0,0.0,0.0,0.0,0.0,0.0,0.0,0.0,0.0,0.0,0.0,0.0,0.0,0.0,0.0,0.0,0.0,0.0,0.0,0.0,0.0,0.0,0.0,0.0,0.0,0.0,0.0,0.0,0.0,0.0,0.0,0.0,0.0,0.0,0.0,0.0,-5.7096,-5.88,-6.0012,-6.0742,-6.08,-6.061,-6.0189,-5.885,-5.6834,0.0,0.0,0.0,0.0,0.0,0.0,0.0,0.0,0.0,0.0,0.0,0.0,0.0,0.0,0.0,0.0,0.0,0.0,0.0,0.0,0.0,0.0,0.0,0.0,0.0,0.0,0.0,0.0,0.0,0.0,0.0,0.0,0.0,0.0,0.0,0.0,0.0,0.0,0.0,0.0,0.0,-6.0387,-5.9992,-5.9687,-5.9617,0.0,0.0,-5.8751,-5.8651,-5.8511,0.0,0.0,0.0,0.0,0.0,0.0,0.0,0.0,0.0,0.0,0.0,0.0,0.0,0.0,0.0,0.0,0.0,0.0,0.0,0.0,0.0,0.0,0.0,0.0,0.0,0.0,0.0,0.0,0.0,0.0,0.0,0.0,0.0,0.0,0.0,0.0,0.0,0.0,0.0,0.0,0.0,0.0,0.0,0.0,0.0,0.0,0.0,0.0,0.0,0.0,0.0,0.0,0.0,0.0,0.0,-5.4574,-5.6962,-5.9146,-6.0435,-6.0781,-6.08,-6.0565,-6.0118,-5.7968,-5.571,0.0,0.0,0.0,0.0,0.0,0.0,0.0,0.0,0.0,0.0,0.0,0.0,0.0,0.0,0.0,0.0,0.0,0.0,0.0,0.0,0.0,0.0,0.0,0.0,0.0,0.0,0.0,0.0,0.0,0.0,0.0,0.0,0.0,0.0,0.0,0.0,0.0,0.0,0.0,0.0,0.0,0.0,-5.9915,-5.9888,0.0,0.0,0.0,-5.8745,-5.8699,0.0,0.0,0.0,0.0,0.0,0.0,0.0,0.0,0.0,0.0,0.0,0.0,0.0,0.0,0.0,0.0,0.0,0.0,0.0,0.0,0.0,0.0,0.0,0.0,0.0,0.0,0.0,0.0,0.0,0.0,0.0,0.0,0.0,0.0,0.0,0.0,0.0,0.0,0.0,0.0,0.0,0.0,0.0,0.0,0.0,0.0,0.0,0.0,0.0,0.0,0.0,0.0,0.0,0.0,0.0,0.0,0.0,-5.6526,-5.9354,-6.0746,-6.0622,-6.0622,-6.0357,-5.9719,-5.7267,0.0,0.0,0.0,0.0,0.0,0.0,0.0,0.0,0.0,0.0,0.0,0.0,0.0,0.0,0.0,0.0,0.0,0.0,0.0,0.0,0.0,0.0,0.0,0.0,0.0,0.0,0.0,-4.4682,0.0,0.0,0.0,0.0,0.0,0.0,0.0,0.0,0.0,0.0,0.0,0.0,0.0,0.0,-5.859,-5.9486,-5.9783,-5.9757,0.0,0.0,-5.8654,-5.8528,-5.7242,-5.6271,0.0,0.0,0.0,0.0,0.0,0.0,0.0,0.0,0.0,0.0,0.0,0.0,0.0,0.0,0.0,0.0,0.0,0.0,0.0,0.0,0.0,0.0,0.0,0.0,0.0,0.0,0.0,0.0,0.0,0.0,0.0,0.0,0.0,0.0,0.0,0.0,0.0,0.0,0.0,0.0,0.0,0.0,0.0,0.0,0.0,0.0,0.0,0.0,0.0,0.0,0.0,0.0,0.0,0.0,-5.4003,-5.5301,-5.8901,-6.0578,-6.018,-6.0146,-5.9709,-5.8816,-5.7134,-5.4947,0.0,0.0,0.0,0.0,0.0,0.0,0.0,0.0,0.0,0.0,0.0,0.0,0.0,0.0,0.0,0.0,0.0,0.0,0.0,0.0,0.0,0.0,0.0,0.0,0.0,0.0,0.0,0.0,0.0,0.0,0.0,0.0,0.0,0.0,0.0,0.0,0.0,0.0,0.0,0.0,0.0,-5.8209,-5.8218,-5.8933,-5.9266,0.0,-5.8715,-5.8568,-5.8119,-5.7932,-5.7354,-5.5926,0.0,0.0,0.0,0.0,0.0,0.0,0.0,0.0,0.0,0.0,0.0,0.0,0.0,0.0,0.0,0.0,0.0,0.0,0.0,0.0,0.0,0.0,0.0,0.0,0.0,0.0,0.0,0.0,0.0,0.0,0.0,0.0,0.0,0.0,0.0,0.0,0.0,0.0,0.0,0.0,0.0,0.0,0.0,0.0,0.0,0.0,0.0,0.0,0.0,0.0,0.0,0.0,0.0,-5.2815,-5.4727,-5.7914,-5.9598,-5.9674,-5.9677,-5.9354,-5.8715,-5.7132,-5.4721,0.0,0.0,0.0,0.0,0.0,0.0,0.0,0.0,0.0,0.0,0.0,0.0,0.0,0.0,0.0,0.0,0.0,0.0,0.0,0.0,0.0,0.0,0.0,0.0,0.0,0.0,0.0,0.0,-4.5125,-4.514,-4.5575,0.0,0.0,0.0,0.0,0.0,0.0,0.0,0.0,0.0,0.0,-5.7664,-5.8372,-5.8765,0.0,0.0,-5.8279,-5.8213,-5.8024,-5.7171,-5.629,-5.5706,-5.5188,0.0,0.0,0.0,0.0,0.0,0.0,0.0,0.0,0.0,0.0,0.0,0.0,0.0,0.0,0.0,0.0,0.0,0.0,0.0,0.0,0.0,0.0,0.0,0.0,0.0,0.0,-5.1232,-5.0906,0.0,0.0,0.0,0.0,0.0,0.0,0.0,0.0,0.0,0.0,0.0,0.0,0.0,0.0,0.0,0.0,0.0,0.0,0.0,0.0,0.0,0.0,0.0,0.0,-5.177,-5.3945,-5.6796,-5.8331,-5.8479,-5.8479,-5.8259,-5.7765,-5.6427,-5.4191,0.0,0.0,0.0,0.0,0.0,0.0,0.0,0.0,0.0,0.0,0.0,0.0,0.0,0.0,0.0,0.0,0.0,0.0,0.0,0.0,0.0,0.0,0.0,0.0,0.0,0.0,0.0,0.0,-4.5289,-4.5275,-4.5828,0.0,0.0,0.0,0.0,0.0,0.0,0.0,0.0,0.0,0.0,-5.7266,-5.8343,-5.8503,-5.8394,-5.8047,-5.7978,-5.7978,-5.7978,-5.7042,-5.6257,-5.5996,0.0,0.0,0.0,0.0,0.0,0.0,0.0,0.0,0.0,0.0,0.0,0.0,0.0,0.0,0.0,0.0,0.0,0.0,0.0,0.0,0.0,0.0,0.0,0.0,0.0,0.0,0.0,-5.0822,0.0,0.0,-4.8416,0.0,0.0,0.0,0.0,0.0,0.0,0.0,0.0,0.0,0.0,0.0,0.0,0.0,0.0,0.0,0.0,0.0,0.0,0.0,0.0,0.0,0.0,-5.1048,-5.2748,-5.5597,-5.6822,-5.6424,-5.6368,-5.6187,-5.5735,-5.488,-5.3301,-5.082,0.0,0.0,0.0,0.0,0.0,0.0,0.0,0.0,0.0,0.0,0.0,0.0,0.0,0.0,0.0,0.0,0.0,0.0,0.0,0.0,0.0,0.0,0.0,0.0,0.0,0.0,-4.5229,-4.4894,-4.502,0.0,0.0,0.0,0.0,0.0,0.0,0.0,0.0,0.0,-5.4986,-5.6066,-5.7083,-5.7914,-5.8001,-5.8024,-5.7997,-5.7978,-5.7978,-5.7978,-5.7941,-5.7666,0.0,0.0,0.0,0.0,0.0,0.0,0.0,0.0,0.0,0.0,0.0,0.0,0.0,0.0,0.0,0.0,0.0,0.0,0.0,0.0,0.0,0.0,0.0,0.0,0.0,0.0,0.0,-5.3592,-5.1646,0.0,0.0,0.0,0.0,0.0,0.0,0.0,0.0,0.0,0.0,0.0,-5.4186,-5.443,0.0,0.0,0.0,0.0,0.0,0.0,0.0,0.0,0.0,0.0,0.0,0.0,-5.0336,-5.2226,-5.4485,-5.5734,-5.5824,-5.5821,-5.5754,-5.5614,-5.4821,-5.2747,-4.9242,0.0,0.0,0.0,0.0,0.0,0.0,0.0,0.0,0.0,0.0,0.0,0.0,0.0,0.0,0.0,0.0,0.0,0.0,0.0,0.0,0.0,0.0,0.0,0.0,0.0,-4.5724,0.0,0.0,0.0,0.0,0.0,0.0,0.0,0.0,0.0,0.0,-5.3348,-5.4387,-5.6005,-5.6548,-5.7097,-5.7905,-5.7978,-5.7978,0.0,0.0,0.0,0.0,0.0,0.0,0.0,0.0,0.0,0.0,0.0,0.0,0.0,-5.7391,-5.6874,-5.4166,-5.3458,-5.3083,-5.2498,0.0,0.0,0.0,0.0,0.0,0.0,0.0,0.0,0.0,0.0,0.0,0.0,0.0,0.0,-5.4546,-5.2894,-5.2839,0.0,0.0,0.0,0.0,0.0,0.0,0.0,0.0,-5.5669,-5.5899,-5.5621,-5.5896,-5.5464,-5.4473,-5.3922,-5.227,0.0,0.0,0.0,0.0,0.0,0.0,0.0,0.0,-4.9991,-5.1595,-5.3408,-5.4498,-5.4751,-5.4748,-5.4766,-5.473,-5.3702,-5.1628,-4.8416,-4.6526,-4.5057,0.0,0.0,0.0,0.0,0.0,0.0,0.0,0.0,0.0,0.0,0.0,0.0,0.0,0.0,0.0,0.0,0.0,0.0,0.0,0.0,0.0,0.0,0.0,-4.5441,0.0,0.0,0.0,0.0,0.0,0.0,0.0,0.0,0.0,-5.3306,-5.4262,-5.533,-5.6628,-5.7042,-5.7409,-5.7923,0.0,0.0,0.0,0.0,0.0,0.0,0.0,-5.7226,-5.7207,-5.735,-5.7481,-5.75,-5.8293,-5.8876,-5.8691,0.0,0.0,-5.6271,-5.5599,-5.521,-5.4611,-5.4802,-5.4568,-5.2942,-5.3148,-5.3225,0.0,0.0,0.0,0.0,-5.996,0.0,0.0,0.0,-5.624,-5.5225,0.0,-5.4418,0.0,0.0,0.0,0.0,-5.3261,-5.4054,0.0,0.0,-5.7175,-5.7556,-5.6859,-5.684,-5.684,-5.684,-5.6726,-5.5941,-5.4252,-5.0417,-4.8012,0.0,0.0,0.0,0.0,0.0,-5.0031,-5.0894,-5.2435,-5.3225,-5.3222,-5.3222,-5.3185,-5.3151,-5.1646,-5.0013,-4.8379,-4.748,-4.6324,-4.4782,-4.4691,0.0,0.0,0.0,0.0,0.0,0.0,0.0,0.0,0.0,0.0,0.0,0.0,0.0,0.0,0.0,0.0,0.0,0.0,0.0,0.0,-4.509,0.0,0.0,0.0,0.0,0.0,0.0,0.0,0.0,0.0,-5.341,-5.3904,-5.5563,-5.6804,-5.6859,0.0,0.0,0.0,0.0,-5.7978,-5.7978,-5.7978,-5.7978,-5.7978,-5.7978,-5.796,-5.796,0.0,0.0,-5.8802,-5.9127,-5.943,-5.9516,-5.9804,-5.9923,-5.9393,-5.8554,-5.784,-5.7037,-5.6535,-5.5753,-5.428,-5.4095,-5.4133,-6.3051,0.0,0.0,0.0,0.0,-5.9346,-5.8802,-5.832,-5.7622,-5.6547,-5.5244,-5.5244,0.0,0.0,0.0,0.0,0.0,0.0,-5.5684,-5.6455,-5.695,-5.7317,-5.7666,-5.7648,-5.7648,-5.7648,-5.7079,-5.6565,-5.5996,-5.3225,-5.0802,-4.8893,0.0,0.0,0.0,0.0,-5.0839,-5.1665,-5.2674,-5.3185,-5.3185,-5.3185,-5.2931,-5.2362,-5.0765,-4.9426,-4.8343,-4.7516,-4.6342,-4.48,-4.4709,0.0,0.0,0.0,0.0,0.0,0.0,0.0,0.0,0.0,0.0,0.0,0.0,0.0,0.0,0.0,0.0,0.0,0.0,0.0,-4.4186,-4.4498,-4.4856,0.0,0.0,0.0,0.0,0.0,0.0,0.0,0.0,0.0,-5.5788,-5.6434,-5.7024,0.0,0.0,-5.7978,-5.7978,-5.7978,-5.7978,-5.7978,-5.7978,0.0,-5.7978,-5.7978,-5.7978,-5.7978,-5.8119,-5.8412,-5.9103,-5.9324,-5.9633,-6.0257,-6.0018,-5.9632,-5.9472,-5.903,-5.8425,-5.7855,-5.7215,-5.6309,-5.5007,-5.476,-5.4507,-6.3685,-6.3005,-6.1812,-6.0847,-6.0074,-5.9611,-5.914,-5.8674,-5.8397,-5.7634,-5.6569,-5.6756,-5.5849,-5.4142,-5.3812,0.0,0.0,0.0,-5.651,-5.7281,-5.7281,-5.7538,-5.7978,-5.7978,-5.7978,-5.7978,-5.7519,-5.7281,-5.7262,-5.517,-5.3261,-5.1499,0.0,-4.9811,-4.9334,-5.0618,-5.1499,-5.1995,-5.2803,-5.3185,-5.3185,-5.2894,-5.2344,-5.1518,-5.0271,-4.9187,-4.8343,-4.7847,-4.6819,-4.5259,-4.529,-4.4858,0.0,0.0,0.0,0.0,0.0,0.0,0.0,0.0,0.0,0.0,0.0,-4.4612,-4.503,0.0,0.0,0.0,-4.5419,-4.5226,-4.4945,-4.5663,0.0,0.0,0.0,0.0,0.0,0.0,0.0,-5.361,-5.4491,-5.5354,-5.6638,-5.7097,-5.7464,-5.7923,-5.7978,-5.7978,-5.7978,0.0,-5.7978,-5.7978,-5.7978,-5.7978,-5.7978,-5.7978,-5.7886,-5.7574,-5.7667,-5.7874,-5.8308,-5.8561,-5.8927,-5.9523,-5.9377,-5.9031,-5.9031,-5.852,-5.7949,-5.7503,-5.6903,-5.6014,-5.4783,-5.4406,-5.3964,-6.3839,-6.4359,-6.2762,-6.1332,-6.0125,-5.9614,-5.9102,-5.8673,-5.8674,-5.8421,-5.8047,-5.8503,-5.7626,-5.578,-5.5023,0.0,-5.6895,-5.6895,-5.7281,-5.7978,-5.7978,-5.7978,-5.7978,-5.7978,-5.7978,-5.7978,-5.7978,-5.7978,-5.7905,-5.6345,-5.5207,-5.4436,-5.2142,-5.0967,-5.093,-5.1701,-5.2087,-5.2105,-5.2839,-5.3185,-5.3167,-5.2362,-5.1555,-5.082,-4.9884,-4.9003,-4.8251,-4.8141,-4.7407,-4.5956,-4.6155,-4.5621,-4.4136,0.0,0.0,0.0,0.0,0.0,0.0,0.0,0.0,0.0,0.0,0.0,0.0,0.0,0.0,-4.6225,-4.6463,0.0,-4.7077,-4.7883,0.0,0.0,0.0,-4.9757,-4.9886,-5.1153,-5.2325,-5.3206,0.0,0.0,-5.6712,-5.7446,-5.7905,-5.7905,-5.796,-5.7978,-5.7978,-5.7978,-5.7978,-5.7978,-5.7978,-5.7978,-5.7978,-5.7905,-5.7556,-5.684,-5.704,-5.719,-5.708,-5.7351,-5.7777,-5.832,-5.8261,-5.8204,-5.8204,-5.7519,-5.6767,-5.6322,-5.5928,-5.5265,-5.4017,-5.3472,-5.2985,-6.4032,-6.3531,-6.2524,-6.1505,-6.0503,-5.9724,-5.8914,-5.8213,-5.8547,-5.8421,-5.8024,-5.8484,-5.8238,-5.7409,-5.7244,-5.7354,-5.7721,-5.7721,-5.7831,-5.7978,-5.7978,-5.7978,-5.7978,-5.7978,-5.7978,-5.7978,-5.7978,-5.7978,-5.7905,-5.6381,-5.5522,-5.5207,-5.3518,-5.2325,-5.1756,-5.2527,-5.2913,-5.2913,-5.3093,-5.3185,-5.3167,-5.1811,-5.1004,-5.0784,-4.8783,-4.759,-4.7388,-4.6801,-4.6137,-4.5424,-4.5427,-4.5182,-4.4484,-4.3724,0.0,0.0,0.0,0.0,0.0,0.0,0.0,0.0,0.0,-4.5181,-4.4476,0.0,-4.5413,0.0,-4.7282,-4.7647,-4.7168,-4.8416,0.0,0.0,-5.0398,-5.0986,-5.2197,-5.2142,-5.2527,-5.3959,-5.4987,-5.5904,-5.6712,-5.6969,-5.7097,-5.7116,-5.7611,-5.7978,-5.7978,-5.7978,-5.7978,-5.7941,-5.7923,-5.7978,-5.7886,-5.7464,-5.6804,-5.6014,-5.6226,-5.6575,-5.6853,-5.729,-5.7758,-5.8143,-5.7742,-5.7387,-5.7311,-5.6618,-5.5806,-5.5137,-5.5108,-5.4764,-5.321,-5.2791,-5.2418,-6.3955,-6.3743,-6.2166,-6.1316,-6.0955,-6.0067,-5.9195,-5.8372,-5.9028,-5.9065,-5.8632,-5.8693,-5.8439,-5.8001,-5.7978,-5.7978,-5.7978,-5.7978,-5.7978,-5.7978,-5.7978,-5.7978,-5.7978,-5.7978,-5.7978,-5.7978,-5.7978,-5.7831,-5.7409,-5.6198,-5.5409,-5.5042,-5.383,-5.2986,-5.2564,-5.2968,-5.3185,-5.3185,-5.3185,-5.3185,-5.3148,-5.1646,-5.082,-5.0747,-4.8746,-4.7461,-4.7094,-4.6818,-4.6249,-4.5286,-4.5504,-4.5423,-4.485,-4.4148,-4.3504,0.0,0.0,0.0,0.0,0.0,0.0,0.0,0.0,0.0,0.0,0.0,-4.5767,-4.7123,-4.8218,-4.8985,-4.926,-5.0453,-5.1371,-5.183,-5.1867,-5.2234,-5.3112,-5.2803,-5.3023,-5.4252,-5.4785,-5.5372,-5.6161,-5.6271,-5.6253,-5.6271,-5.6638,-5.6914,-5.6932,-5.6914,-5.6932,-5.6932,-5.6914,-5.6932,-5.6932,-5.6547,-5.5978,-5.5309,-5.5576,-5.5952,-5.5866,-5.6354,-5.686,-5.7043,-5.6722,-5.6426,-5.6406,-5.6049,-5.5339,-5.4296,-5.4099,-5.3742,-5.2624,-5.2046,-5.1469,-6.3743,-6.4205,-6.18,-6.0962,-6.1181,-6.0485,-5.9661,-5.8855,-5.9706,-5.982,-5.9372,-5.8913,-5.8439,-5.8001,-5.7978,-5.7978,-5.7978,-5.7978,-5.7978,-5.7978,-5.7978,-5.7978,-5.7978,-5.7978,-5.7978,-5.7978,-5.7886,-5.7483,-5.6785,-5.5886,-5.5119,-5.4381,-5.3592,-5.3185,-5.3185,-5.3185,-5.3185,-5.3185,-5.3185,-5.3185,-5.3167,-5.1738,-5.0912,-5.0747,-4.9117,-4.7831,-4.7077,-4.7298,-4.6815,-4.547,-4.5956,-4.6012,-4.5341,-4.4777,-4.4314,0.0,-4.3298,0.0,0.0,0.0,0.0,0.0,0.0,0.0,0.0,-4.6448,-4.6342,-4.8142,-4.9279,-5.0492,-5.1867,-5.2729,-5.3185,-5.3185,-5.3185,-5.3185,-5.3185,-5.3185,-5.3482,-5.4179,-5.4326,-5.4675,-5.5335,-5.5467,-5.5445,-5.5427,-5.5317,-5.528,-5.5299,-5.5519,-5.5743,-5.5614,-5.5614,-5.5765,-5.5671,-5.5579,-5.5288,-5.4697,-5.5098,-5.5362,-5.4786,-5.5262,-5.5742,-5.5742,-5.578,-5.5742,-5.5684,-5.5626,-5.5025,-5.3656,-5.3183,-5.2664,-5.1803,-5.1138,-5.0417,-6.3385,-6.3378,-6.157,-6.0617,-6.0361,-6.0553,-6.0132,-5.9302,-5.987,-5.9839,-5.9372,-5.8913,-5.8439,-5.8001,-5.7978,-5.7978,-5.7978,-5.7978,-5.7978,-5.7978,-5.7978,-5.7978,-5.7978,-5.7978,-5.7978,-5.7941,-5.7336,-5.695,-5.6767,-5.5335,-5.4546,-5.4381,-5.361,-5.3185,-5.3185,0.0,0.0,0.0,-5.3185,-5.3185,-5.3148,-5.227,-5.1463,-5.0765,-4.8863,0.0,-4.6589,-4.6289,-4.6148,-4.6105,-4.6222,0.0,0.0,0.0,0.0,0.0,0.0,0.0,0.0,0.0,0.0,0.0,-4.669,-4.5855,-4.5465,-4.68,-4.7886,-4.8306,-5.027,-5.1685,-5.1958,-5.2729,-5.3185,-5.3185,-5.3185,-5.3185,-5.3185,-5.3185,-5.3259,-5.3408,-5.3977,-5.4436,-5.4604,-5.462,-5.4638,-5.4604,-5.4069,-5.3702,-5.3702,-5.4766,-5.5537,-5.5614,-5.5464,-5.5417,-5.5165,-5.5112,-5.4949,-5.4675,-5.4867,-5.5123,-5.5064,-5.5363,-5.5703,-5.5684,-5.5684,-5.5684,-5.5665,-5.5184,-5.4537,-5.3803,-5.2582,-5.1344,-5.0286,-4.9941,-4.9592,-6.3288,-6.3128,-6.1493,-6.0678,0.0,-6.0702,-6.054,-6.0118,-6.0338,-6.0055,-5.9391,-5.9139,-5.8654,-5.7978,-5.7978,-5.7978,-5.7978,-5.7978,-5.7978,-5.7978,-5.7978,-5.7978,-5.7978,-5.7978,-5.7894,-5.7657,-5.7085,-5.6496,-5.5866,-5.4877,-5.4197,-5.3812,-5.3408,-5.3185,-5.3185,-5.3185,-5.3185,-5.3185,-5.3381,-5.3402,-5.3191,-5.2609,-5.1817,-5.0804,-4.9565,0.0,0.0,0.0,0.0,0.0,0.0,0.0,0.0,0.0,0.0,-4.497,-4.5208,-4.5534,-4.5964,-4.602,-4.6581,-4.784,-4.7608,-4.7151,-4.6525,-4.7965,-4.9066,-4.9494,-5.1021,-5.2066,-5.2247,-5.2986,-5.3422,-5.3227,-5.3185,-5.3185,-5.3185,-5.3185,-5.3185,-5.3246,-5.373,-5.4095,-5.4095,-5.4114,-5.4114,-5.4075,-5.3592,-5.3206,-5.3259,-5.3885,-5.4399,-5.4418,-5.4418,-5.4425,-5.4408,-5.4391,-5.4483,-5.4495,-5.4833,-5.5061,-5.5088,-5.5442,-5.5684,-5.5684,-5.5684,-5.5588,-5.5164,-5.4761,-5.4117,-5.2862,-5.1897,-5.0911,-4.9828,-4.9395,-4.914,-6.3224,-6.2954,-6.1454,-6.08,-6.08,-6.08,-6.08,-6.08,-6.08,0.0,0.0,-5.9389,-5.8914,-5.8142,-5.8024,-5.8047,-5.8119,-5.8024,-5.7978,-5.7978,-5.7978,-5.7978,-5.7997,-5.8092,-5.7836,-5.7299,-5.6913,-5.6082,-5.4908,-5.4409,-5.3867,-5.3259,-5.3185,-5.3185,-5.3185,-5.3185,-5.3248,-5.3316,-5.3643,-5.3608,-5.3201,-5.2791,-5.1974,-5.0721,-5.0228,-4.9278,-4.7871,-4.8503,-4.8266,-4.6931,-4.7012,-4.6797,-4.6086,-4.5768,-4.5594,-4.5594,-4.5768,-4.622,-4.7038,-4.7184,-4.744,-4.791,-4.8364,-4.8583,-4.8513,-4.9107,-4.9829,-5.0625,-5.1356,-5.1901,-5.2267,-5.292,-5.3254,-5.3012,-5.2986,-5.3041,-5.3167,-5.3185,-5.3185,-5.3248,-5.3545,-5.3796,-5.3833,-5.3925,-5.3888,-5.3777,-5.3543,-5.3251,-5.3206,-5.3259,-5.335,-5.335,-5.3513,-5.3538,-5.3833,-5.4103,-5.4202,-5.472,-5.5021,-5.5199,-5.525,-5.547,-5.5673,-5.5684,-5.5607,-5.5203,-5.4645,-5.4184,-5.3456,-5.1744,-5.1276,-5.0886,-4.9958,-4.9401,-4.9142,-6.2916,-6.2185,-6.1204,-6.08,-6.08,-6.08,-6.08,-6.08,-6.08,-6.0264,-5.9389,-5.9389,-5.9103,-5.857,-5.8168,-5.8216,-5.8549,-5.819,-5.7978,-5.7978,-5.7978,-5.7978,-5.8042,-5.8418,-5.7992,-5.6905,-5.6533,-5.5717,-5.4512,-5.3744,-5.3316,-5.3203,-5.3185,-5.3185,-5.3185,-5.3185,-5.3361,-5.3702,-5.3777,-5.3605,-5.3203,-5.28,-5.1822,-5.0282,-4.9755,-4.9089,-4.8192,-4.8892,-4.9211,-4.8962,-4.8298,-4.7875,-4.7721,-4.6355,-4.5594,-4.5633,-4.6297,-4.7067,-4.7885,-4.8318,-4.875,-4.9177,-4.9612,-4.9714,-4.9363,-4.9433,-4.9829,-5.0606,-5.0877,-5.1058,-5.1428,-5.1636,-5.1881,-5.2114,-5.216,-5.2417,-5.3078,-5.3148,-5.317,-5.323,-5.3564,-5.3814,-5.3924,-5.417,-5.4255,-5.3905,-5.3683,-5.3565,-5.3316,-5.3185,-5.3185,-5.323,-5.3504,-5.3888,-5.4305,-5.4701,-5.4974,-5.5458,-5.5543,-5.5577,-5.5566,-5.5564,-5.5607,-5.5665,-5.5066,-5.4586,-5.4346,-5.3222,-5.2373,-5.1677,-5.1226,-5.0706,-5.0432,-5.0128,-4.98,-6.282,-6.2024,-6.1146,-6.08,-6.08,-6.08,-6.08,-6.08,-6.08,-6.0283,-5.9424,-5.9389,-5.899,-5.8329,-5.8115,-5.8119,-5.8307,-5.8097,-5.7978,-5.7978,-5.7978,-5.816,-5.8394,-5.8591,-5.8181,-5.7227,-5.6594,-5.5659,-5.4447,-5.3588,-5.3185,-5.3185,-5.3185,-5.3185,-5.3185,-5.3185,-5.3282,-5.3479,-5.3478,-5.3391,-5.3192,-5.282,-5.1898,-5.0475,-5.0406,-5.0033,-4.9276,-4.9805,-4.9894,-4.9413,-4.8567,-4.7913,-4.7451,-4.6278,-4.5594,-4.5614,-4.597,-4.6759,-4.8029,-4.918,-4.9926,-5.0133,-5.0325,-5.0347,-5.0171,-5.0159,-5.0319,-5.0682,-5.1089,-5.1234,-5.1045,-5.1378,-5.1611,-5.136,-5.1353,-5.1683,-5.238,-5.2564,-5.2817,-5.3413,-5.3924,-5.4272,-5.4497,-5.4701,-5.4655,-5.4238,-5.3833,-5.3504,-5.3524,-5.3525,-5.3525,-5.3526,-5.3701,-5.4101,-5.4686,-5.4947,-5.525,-5.564,-5.5684,-5.5684,-5.5645,-5.5415,-5.5004,-5.4706,-5.4039,-5.3349,-5.2947,-5.2169,-5.1593,-5.125,-5.101,-5.0731,-5.0644,-5.0525,-5.0159,-6.2724,-6.1735,-6.1069,-6.08,-6.08,-6.08,-6.08,-6.08,-6.08,-6.0338,-5.9628,-5.9543,-5.9103,-5.8351,-5.8194,-5.8235,-5.8282,-5.8074,-5.807,-5.8164,-5.8164,-5.8397,-5.8835,-5.8952,-5.8471,-5.7476,-5.675,-5.5729,-5.439,-5.3583,-5.3185,-5.3185,-5.3185,-5.3185,-5.3185,-5.3185,-5.3196,-5.3182,-5.3019,-5.2908,-5.2897,-5.2511,-5.173,-5.07,-5.0861,-5.0728,-5.0162,-5.0483,-5.0298,-4.9433,-4.8567,-4.774,-4.6932,-4.6067,-4.5594,-4.5614,-4.5787,-4.6605,-4.8279,-4.9827,-5.0663,-5.0584,-5.0565,-5.0584,-5.0565,-5.0584,-5.0614,-5.075,-5.123,-5.1274,-5.0639,-5.0964,-5.1211,-5.0612,-5.0527,-5.0857,-5.1573,-5.1867,-5.2384,-5.3405,-5.4108,-5.464,-5.4993,-5.5186,-5.5021,-5.4519,-5.3814,-5.3524,-5.3721,-5.3869,-5.3977,-5.4065,-5.4099,-5.435,-5.4988,-5.5199,-5.5356,-5.5662,-5.5684,-5.5684,-5.5596,-5.5102,-5.448,-5.4034,-5.3161,-5.2374,-5.1522,-5.1127,-5.0971,-5.0767,-5.0731,-5.0702,-5.0683,-5.0683,-5.0336,-6.2358,-6.1012,-6.0839,-6.08,-6.08,-6.08,-6.08,-6.08,-6.08,-6.0527,-6.0006,-6.004,-5.9741,-5.9267,-5.8776,-5.8796,-5.9121,-5.8394,-5.8257,-5.8611,-5.8652,-5.8894,-5.9337,-5.9741,-5.8915,-5.7219,-5.6934,-5.5869,-5.3998,-5.3442,-5.3185,-5.3185,-5.3185,-5.3206,-5.3206,-5.3188,-5.3177,-5.3176,-5.2419,-5.2034,-5.2009,-5.1617,-5.1008,-5.0208,-5.0214,-5.0188,-5.0116,-5.0483,-5.0279,-4.9433,-4.8567,-4.774,-4.6932,-4.6086,-4.5594,-4.5633,-4.6317,-4.7509,-4.9106,-5.0173,-5.0516,-5.0214,-5.0195,-5.0195,-5.0183,-5.0183,-5.0325,-5.0642,-5.077,-5.0519,-4.9717,-4.9768,-4.9864,-4.9804,-4.9722,-5.0013,-5.0802,-5.1555,-5.22,-5.2641,-5.3733,-5.4659,-5.5015,-5.5319,-5.5269,-5.4659,-5.4049,-5.3758,-5.3923,-5.4202,-5.4563,-5.4848,-5.496,-5.4974,-5.5173,-5.5423,-5.5588,-5.5684,-5.5684,-5.5684,-5.5594,-5.5231,-5.4771,-5.3581,-5.2651,-5.1637,-5.1178,-5.0791,-5.0359,-5.057,-5.0634,-5.0683,-5.0683,-5.0625,-5.0251,-6.232,-6.0819,-6.08,-6.08,-6.08,-6.08,-6.08,-6.08,-6.08,-6.054,-6.0194,-6.0397,-5.9946,-5.899,-5.8505,-5.8547,-5.8951,-5.857,-5.8673,-5.9084,-5.9121,-5.9354,-5.9789,-5.9977,-5.924,-5.7761,-5.7225,-5.6038,-5.4398,-5.3562,-5.3185,-5.3185,-5.3185,-5.3316,-5.3488,-5.3045,-5.2784,-5.2821,-5.1996,-5.1427,-5.12,-5.1024,-5.0788,-5.05,-5.0442,-5.0442,-5.0472,-5.0614,-5.0298,-4.9433,-4.8567,-4.7721,-4.6923,-4.6067,-4.5594,-4.5652,-4.6413,-4.7413,-4.8567,-4.9452,-5.0086,-5.0434,-5.0442,-5.0442,-5.0462,-5.0442,-5.0534,-5.0663,-5.0683,-5.0442,-4.9924,-4.965,-4.9434,-4.9227,-4.8974,-4.917,-4.9976,-5.0381,-5.102,-5.2344,-5.3245,-5.4107,-5.4846,-5.5021,-5.4966,-5.4731,-5.4286,-5.3995,-5.443,-5.4727,-5.5007,-5.5343,-5.5446,-5.5446,-5.5446,-5.5577,-5.5684,-5.5684,-5.5684,-5.5684,-5.5517,-5.4372,-5.3422,-5.2891,-5.1473,-5.0394,-4.9867,-4.9953,-4.9872,-5.026,-5.0585,-5.0683,-5.0683,-5.0279,-4.9822,-6.232,-6.0916,-6.08,-6.08,-6.08,-6.08,-6.08,-6.08,-6.08,-6.061,-6.0338,-6.0508,-5.9996,-5.8951,-5.8526,-5.857,-5.8855,-5.8775,-5.9047,-5.9545,-5.9595,-5.9839,-6.0245,-6.001,-5.9358,-5.8299,-5.7287,-5.5958,-5.4403,-5.3701,-5.3316,-5.3227,-5.3185,-5.3402,-5.3702,-5.3144,-5.2757,-5.2544,-5.1955,-5.1362,-5.0816,-5.0683,-5.0683,-5.0683,-5.0683,-5.0683,-5.0683,-5.0683,-5.0308,-4.9433,-4.8567,-4.774,-4.6942,-4.6067,-4.5594,-4.5671,-4.6413,-4.725,-4.8038,-4.8913,-4.9769,-5.0567,-5.0614,-5.0594,-5.0663,-5.0604,-5.0604,-5.0683,-5.0683,-5.0525,-5.0147,-4.9827,-4.946,-4.8961,-4.8622,-4.8716,-4.9171,-4.9408,-5.0209,-5.1674,-5.2435,-5.3331,-5.44,-5.4619,-5.4594,-5.4575,-5.4303,-5.417,-5.4819,-5.5075,-5.5387,-5.5632,-5.5703,-5.5684,-5.5684,-5.5684,-5.5684,-5.5684,-5.5684,-5.5607,-5.5412,-5.3843,-5.2399,-5.2068,-5.0231,-4.9295,-4.9332,-4.9386,-4.9687,-5.0147,-5.0474,-5.0529,-5.026,-4.9779,-4.924,-6.232,-6.0877,-6.08,-6.08,-6.08,-6.08,-6.08,-6.08,-6.08,-6.0769,-6.0678,-6.037,-5.987,-5.9391,-5.9302,-5.9356,-5.9303,-5.8914,-5.9212,-5.9991,-6.0069,-6.0324,-6.07,-5.9911,-5.9104,-5.8277,-5.7162,-5.5651,-5.3979,-5.3814,-5.3585,-5.323,-5.3272,-5.3442,-5.3777,-5.372,-5.3337,-5.2658,-5.2457,-5.1916,-5.0865,-5.0683,-5.0683,-5.0683,-5.0683,-5.0683,-5.0683,-5.0683,-5.0289,-4.9413,-4.8548,-4.7721,-4.6904,-4.6038,-4.5577,-4.5654,-4.6385,-4.7222,-4.8029,-4.8837,-4.9712,-5.0509,-5.041,-5.0313,-5.0634,-5.0421,-5.0399,-5.0663,-5.0683,-5.0534,-5.0214,-5.0019,-4.9673,-4.9043,-4.888,-4.8713,-4.8418,-4.9077,-4.9731,-5.0446,-5.1464,-5.2578,-5.3712,-5.4257,-5.4234,-5.4161,-5.4234,-5.4516,-5.4731,-5.5256,-5.5607,-5.5673,-5.5684,-5.5684,-5.5684,-5.5684,-5.5684,-5.5645,-5.5549,-5.5415,-5.4759,-5.3939,-5.2633,-5.1475,-5.0349,-4.9558,-4.9183,-4.9276,-4.9743,-5.013,-5.0342,-5.0317,-4.9586,-4.9471,-4.8875,-6.1858,-6.0819,-6.08,-6.08,-6.08,-6.08,-6.08,-6.08,-6.08,-6.08,-6.0769,-6.0622,-6.0297,-5.9836,-5.9855,-5.9677,-5.9408,-5.9231,-5.9642,-6.0463,-6.0553,-6.0634,-6.075,-6.0454,-5.9588,-5.835,-5.7526,-5.6162,-5.4434,-5.4238,-5.417,-5.4049,-5.4033,-5.4119,-5.4178,-5.395,-5.3405,-5.2647,-5.2303,-5.1696,-5.0808,-5.0683,-5.0683,-5.0683,-5.0683,-5.0683,-5.0683,-5.0683,-5.0048,-4.8625,-4.8259,-4.7377,-4.5925,-4.5445,-4.5292,-4.5311,-4.556,-4.6345,-4.758,-4.8058,-4.8966,-5.049,-5.0565,-5.0504,-5.0653,-5.0565,-5.0544,-5.0663,-5.0683,-5.0614,-5.0432,-5.0043,-4.9622,-4.9295,-4.883,-4.8495,-4.84,-4.86,-4.9026,-4.9843,-5.1075,-5.229,-5.2824,-5.3404,-5.3812,-5.4196,-5.4389,-5.4708,-5.5173,-5.5535,-5.5684,-5.5684,-5.5684,-5.5684,-5.5684,-5.5684,-5.5665,-5.5511,-5.5357,-5.4953,-5.4389,-5.3062,-5.1701,-5.1188,-5.0289,-4.9552,-4.9062,-4.9114,-4.9597,-4.9553,-4.9784,-4.9529,-4.874,-4.8471,-4.7855,-6.1339,-6.0839,-6.08,-6.08,-6.08,-6.08,-6.08,-6.08,-6.08,-6.08,-6.08,-6.08,-6.0553,-6.0146,-6.0084,-5.9931,-5.9644,-5.9644,-6.004,-6.0757,-6.08,-6.08,-6.0742,-6.0512,-5.9646,-5.8304,-5.739,-5.6156,-5.4882,-5.4705,-5.4609,-5.4503,-5.4503,-5.4563,-5.4606,-5.4357,-5.3779,-5.2922,-5.2483,-5.1837,-5.0866,-5.0683,-5.0683,-5.0683,-5.0683,-5.0683,-5.0683,-5.0683,-5.0202,-4.9086,-4.8432,-4.7204,-4.535,-4.4988,-4.4931,-4.4931,-4.495,-4.5532,-4.6842,-4.7381,-4.8329,-4.9937,-5.0509,-5.0663,-5.0544,-5.0624,-5.0643,-5.0584,-5.0653,-5.0683,-5.0565,-5.0092,-4.9645,-4.9489,-4.9013,-4.855,-4.8344,-4.8324,-4.8659,-4.9363,-5.051,-5.1473,-5.2001,-5.2714,-5.3385,-5.4045,-5.4363,-5.4955,-5.5387,-5.564,-5.5684,-5.5684,-5.5684,-5.5684,-5.5568,-5.5415,-5.5164,-5.4991,-5.4799,-5.4434,-5.3652,-5.223,-5.1314,-5.0843,-5.0193,-4.9446,-4.9096,-4.9096,-4.9024,-4.8926,-4.8851,-4.8702,-4.8009,-4.7375,-4.6848,-6.0819,-6.08,-6.08,-6.08,-6.08,-6.08,-6.08,-6.08,-6.08,-6.08,-6.08,-6.08,-6.0565,-6.0203,-6.0175,-6.0113,-6.0118,-6.0118,-6.0338,-6.0769,-6.08,-6.08,-6.0742,-6.0108,-5.9281,-5.8242,-5.6558,-5.5573,-5.5134,-5.5107,-5.4938,-5.4628,-5.4628,-5.4775,-5.5094,-5.4981,-5.4407,-5.3374,-5.3046,-5.2299,-5.0943,-5.0683,-5.0683,-5.0683,-5.0683,-5.0683,-5.0683,-5.0683,-5.0558,-5.0221,-4.8894,-4.7155,-4.536,-4.4757,-4.4593,-4.4593,-4.4593,-4.5008,-4.5866,-4.6877,-4.7792,-4.8944,-4.9986,-5.043,-5.0186,-5.0446,-5.0565,-5.0358,-5.0504,-5.0683,-5.0653,-5.0347,-4.9949,-4.9594,-4.9386,-4.8996,-4.8532,-4.8306,-4.8458,-4.8948,-4.9782,-5.0305,-5.0929,-5.213,-5.3118,-5.3334,-5.4225,-5.5018,-5.5129,-5.5428,-5.5673,-5.5626,-5.5472,-5.5357,-5.5222,-5.5049,-5.4684,-5.4376,-5.4164,-5.3818,-5.2876,-5.1666,-5.116,-5.0662,-4.9886,-4.9178,-4.9134,-4.9084,-4.8669,-4.8506,-4.8267,-4.7865,-4.7163,-4.6549,-4.6177,-6.08,-6.08,-6.08,-6.08,-6.08,-6.08,-6.08,-6.08,-6.08,-6.08,-6.08,-6.08,-6.0702,-6.061,-6.0578,-6.0578,-6.0578,-6.0597,-6.0659,-6.0769,-6.08,-6.08,-6.0742,-6.0512,-5.9646,-5.8223,-5.653,-5.5621,-5.5524,-5.5501,-5.5435,-5.5343,-5.5306,-5.5244,-5.5115,-5.5305,-5.4664,-5.3037,-5.3059,-5.2375,-5.0856,-5.0702,-5.0683,-5.0683,-5.0683,-5.0683,-5.0683,-5.0683,-5.0115,-4.9067,-4.818,-4.6835,-4.5129,-4.4387,-4.419,-4.419,-4.4175,-4.4674,-4.5642,-4.6177,-4.6987,-4.8196,-4.926,-4.9692,-4.9708,-5.0307,-5.0586,-5.0504,-5.0624,-5.0683,-5.0673,-5.0604,-5.0325,-4.9968,-4.9431,-4.9062,-4.8745,-4.8458,-4.8383,-4.855,-4.9206,-4.9717,-5.0183,-5.1547,-5.2612,-5.2653,-5.3945,-5.4976,-5.4852,-5.53,-5.5395,-5.503,-5.4934,-5.4818,-5.4549,-5.4145,-5.3626,-5.3376,-5.3222,-5.3029,-5.2106,-5.1481,-5.0978,-5.0388,-4.9636,-4.92,-4.9153,-4.8715,-4.8172,-4.7848,-4.7528,-4.6944,-4.6231,-4.5859,-4.5678,-6.08,-6.08,-6.08,-6.08,-6.08,-6.08,-6.08,-6.08,-6.08,-6.08,-6.08,-6.08,-6.08,-6.08,-6.08,-6.08,-6.08,-6.08,-6.08,-6.08,-6.08,-6.08,-6.0723,-6.0435,-5.9665,-5.83,-5.6857,-5.5992,-5.5684,-5.5684,-5.5684,-5.5684,-5.5684,-5.5577,-5.5363,-5.5497,-5.4825,-5.3529,-5.3223,-5.2529,-5.1375,-5.0837,-5.0683,-5.0683,-5.0683,-5.0683,-5.0683,-5.0683,-5.0202,-4.9067,-4.8086,-4.6582,-4.4988,-4.4202,-4.382,-4.382,-4.3871,-4.4212,-4.5045,-4.5563,-4.6221,-4.738,-4.8635,-4.9298,-4.9411,-5.0065,-5.0625,-5.0493,-5.0614,-5.0683,-5.0683,-5.0683,-5.0565,-5.0328,-4.9768,-4.9249,-4.898,-4.8532,-4.8421,-4.8604,-4.9001,-4.9356,-5.0009,-5.0937,-5.2217,-5.251,-5.379,-5.4839,-5.4737,-5.5212,-5.4991,-5.4741,-5.4645,-5.4357,-5.3857,-5.326,-5.2577,-5.2346,-5.2202,-5.1972,-5.1433,-5.1106,-5.0701,-5.0205,-4.9541,-4.9073,-4.8947,-4.7808,-4.7079,-4.6887,-4.6896,-4.6291,-4.5787,-4.5729,-4.5571,-6.08,-6.08,-6.08,-6.08,-6.08,-6.08,-6.08,-6.08,-6.08,-6.08,-6.08,-6.08,-6.08,-6.08,-6.08,-6.08,-6.08,-6.08,-6.08,-6.08,-6.08,-6.08,-6.0704,-6.0031,-5.9242,-5.8434,-5.7396,-5.656,-5.5934,-5.5761,-5.5684,-5.5684,-5.5684,-5.5684,-5.5651,-5.5703,-5.525,-5.4363,-5.3615,-5.2731,-5.1837,-5.1087,-5.0683,-5.0683,-5.0683,-5.0683,-5.0683,-5.0683,-5.0625,-5.0237,-4.8092,-4.637,-4.5205,-4.4103,-4.3531,-4.3529,-4.3549,-4.3742,-4.4218,-4.5108,-4.5855,-4.635,-4.7932,-4.9162,-4.8939,-4.9747,-5.0421,-5.0317,-5.0534,-5.0683,-5.0683,-5.0683,-5.0673,-5.0634,-5.0159,-4.9617,-4.9046,-4.8586,-4.8495,-4.883,-4.8978,-4.9218,-4.9987,-5.0905,-5.1821,-5.2609,-5.3595,-5.4152,-5.4201,-5.4414,-5.4876,-5.4568,-5.3914,-5.3453,-5.2799,-5.2356,-5.1741,-5.1664,-5.151,-5.1318,-5.1087,-5.0856,-5.0673,-5.0161,-4.9404,-4.8983,-4.8449,-4.7425,-4.6851,-4.6848,-4.6511,-4.5855,-4.5594,-4.5594,-4.5495,-6.08,-6.08,-6.08,-6.08,-6.08,-6.08,-6.08,-6.08,-6.08,-6.08,-6.08,-6.08,-6.08,-6.08,-6.08,-6.08,-6.08,-6.08,-6.08,-6.08,-6.08,-6.08,-6.0608,-5.9935,-5.9396,-5.8973,-5.7742,-5.6887,-5.6618,-5.5992,-5.5703,-5.5684,-5.5684,-5.5684,-5.5684,-5.5684,-5.5261,-5.4511,-5.3664,-5.2818,-5.1962,-5.1144,-5.0712,-5.0683,-5.0683,-5.0683,-5.0683,-5.0683,-5.0065,-4.8891,-4.7174,-4.5756,-4.4984,-4.4081,-4.3626,-4.3678,-4.38,-4.3918,-4.4185,-4.4844,-4.5346,-4.5489,-4.702,-4.7741,-4.8298,-4.9173,-4.9932,-5.0343,-5.0663,-5.0683,-5.0683,-5.0683,-5.0683,-5.0614,-5.0147,-4.965,-4.9311,-4.8744,-4.855,-4.9187,-4.9326,-4.9617,-5.0171,-5.094,-5.16,-5.1798,-5.2568,-5.3395,-5.326,-5.3549,-5.3991,-5.3087,-5.2433,-5.2106,-5.1722,-5.1318,-5.1029,-5.1,-5.0952,-5.0952,-5.0818,-5.076,-5.0673,-5.0488,-4.914,-4.8475,-4.8114,-4.7482,-4.7212,-4.6654,-4.622,-4.5652,-4.5614,-4.5586,-4.5467,-6.08,-6.08,-6.08,-6.08,-6.08,-6.08,-6.08,-6.08,-6.08,-6.08,-6.08,-6.08,-6.08,-6.08,-6.08,-6.08,-6.08,-6.08,-6.08,-6.08,-6.08,-6.08,-6.0646,-6.0204,-5.9877,-5.9377,-5.8184,-5.7407,-5.6907,-5.6126,-5.5742,-5.5684,-5.5684,-5.5684,-5.5684,-5.5684,-5.5483,-5.4934,-5.4184,-5.3337,-5.2462,-5.1625,-5.1029,-5.0798,-5.0683,-5.0683,-5.0683,-5.0683,-5.0068,-4.8842,-4.7584,-4.6514,-4.5752,-4.4947,-4.4507,-4.4524,-4.4692,-4.4874,-4.5056,-4.543,-4.578,-4.6222,-4.7129,-4.7904,-4.8664,-4.9433,-5.024,-5.0587,-5.0693,-5.0683,-5.0683,-5.0683,-5.0683,-5.0624,-5.0135,-4.976,-4.9746,-4.9221,-4.9139,-4.9547,-4.9773,-4.9911,-5.0302,-5.0996,-5.1249,-5.1452,-5.2068,-5.2269,-5.2212,-5.2673,-5.2865,-5.2154,-5.1808,-5.1741,-5.1529,-5.1164,-5.0875,-5.077,-5.075,-5.0683,-5.0683,-5.0683,-5.0683,-5.0327,-4.9,-4.8048,-4.7855,-4.7375,-4.6451,-4.597,-4.571,-4.5671,-4.5614,-4.5594,-4.5467,-6.08,-6.08,-6.08,-6.08,-6.08,-6.08,-6.08,-6.08,-6.08,-6.08,-6.08,-6.08,-6.08,-6.08,-6.08,-6.08,-6.08,-6.08,-6.08,-6.08,-6.08,-6.08,-6.0781,-6.0704,-6.0319,-5.9704,-5.8838,-5.8011,-5.7261,-5.6357,-5.5818,-5.5742,-5.5684,-5.5684,-5.5684,-5.5684,-5.5684,-5.5472,-5.4761,-5.3933,-5.3058,-5.2192,-5.1433,-5.0779,-5.0683,-5.0683,-5.0683,-5.0663,-5.0298,-4.9499,-4.8725,-4.7779,-4.704,-4.6287,-4.5865,-4.5754,-4.5733,-4.5925,-4.6252,-4.629,-4.6655,-4.7169,-4.7974,-4.8892,-4.9219,-4.9836,-5.0385,-5.0673,-5.0683,-5.0683,-5.0683,-5.0683,-5.0683,-5.0653,-5.0347,-5.0183,-5.008,-4.9773,-4.9664,-5.0068,-5.0128,-5.0283,-5.0554,-5.075,-5.0923,-5.1144,-5.1625,-5.1568,-5.1606,-5.1952,-5.2029,-5.1722,-5.1596,-5.1692,-5.1433,-5.1125,-5.0875,-5.0712,-5.0712,-5.0683,-5.0683,-5.0683,-5.0683,-5.0221,-4.9298,-4.8529,-4.8009,-4.7221,-4.6163,-4.5652,-4.5633,-4.5614,-4.5594,-4.5594,-4.5513,-6.08,-6.08,-6.08,-6.08,-6.08,-6.08,-6.08,-6.08,-6.08,-6.08,-6.08,-6.08,-6.08,-6.08,-6.08,-6.08,-6.08,-6.08,-6.08,-6.08,-6.08,-6.08,-6.08,-6.08,-6.0685,-6.0262,-5.9627,-5.88,-5.7953,-5.706,-5.6349,-5.5761,-5.5684,-5.5684,-5.5684,-5.5684,-5.5684,-5.5549,-5.4914,-5.4126,-5.3241,-5.2423,-5.1587,-5.0808,-5.0683,-5.0683,-5.0683,-5.0683,-5.0313,-4.9543,-4.8777,-4.8031,-4.7241,-4.6452,-4.6104,-4.614,-4.6241,-4.6271,-4.6217,-4.6817,-4.7073,-4.6974,-4.7888,-4.8468,-4.8888,-4.945,-5.0058,-5.0481,-5.0683,-5.0683,-5.0683,-5.0683,-5.0683,-5.0663,-5.0604,-5.0544,-5.0462,-4.9949,-4.9924,-5.0283,-5.0313,-5.026,-5.0634,-5.0683,-5.0818,-5.0971,-5.0991,-5.0971,-5.1125,-5.1337,-5.1279,-5.1221,-5.1202,-5.126,-5.1164,-5.0933,-5.0837,-5.0683,-5.0683,-5.0683,-5.0683,-5.0683,-5.0683,-5.0375,-4.9837,-4.9086,-4.824,-4.7413,-4.6432,-4.6028,-4.5594,-4.5594,-4.5594,-4.5594,-4.5594,-6.08,-6.08,-6.08,-6.08,-6.08,-6.08,-6.08,-6.08,-6.08,-6.08,-6.08,-6.08,-6.08,-6.08,-6.08,-6.08,-6.08,-6.08,-6.08,-6.08,-6.08,-6.08,-6.08,-6.08,-6.0781,-6.0666,-5.9896,-5.9088,-5.828,-5.7434,-5.6522,-5.5761,-5.5684,-5.5684,-5.5684,-5.5684,-5.5684,-5.5665,-5.528,-5.4491,-5.3299,-5.2779,-5.1837,-5.0933,-5.0683,-5.0683,-5.0683,-5.0683,-5.026,-4.96,-4.9074,-4.85,-4.7795,-4.726,-4.704,-4.7077,-4.7168,-4.7222,-4.7274,-4.7658,-4.8018,-4.7569,-4.8479,-4.901,-4.9435,-4.9782,-5.0154,-5.0558,-5.0683,-5.0683,-5.0683,-5.0683,-5.0683,-5.0683,-5.0683,-5.0683,-5.0624,-5.0313,-5.0183,-5.0565,-5.0523,-5.0514,-5.0624,-5.0683,-5.0702,-5.0837,-5.0837,-5.0818,-5.0798,-5.0971,-5.0894,-5.0837,-5.0779,-5.0779,-5.0779,-5.0741,-5.076,-5.0683,-5.0683,-5.0683,-5.0683,-5.0683,-5.0683,-5.0366,-5.0019,-4.9106,-4.8259,-4.7471,-4.6701,-4.599,-4.5594,-4.5594,-4.5594,-4.5594,-4.5594,-6.08,-6.08,-6.08,-6.08,-6.08,-6.08,-6.08,-6.08,-6.08,-6.08,-6.08,-6.08,-6.08,-6.08,-6.08,-6.08,-6.08,-6.08,-6.08,-6.08,-6.08,-6.08,-6.08,-6.08,-6.0781,-6.0704,-6.0146,-5.9338,-5.8357,-5.755,-5.678,-5.5895,-5.5684,-5.5684,-5.5684,-5.5684,-5.5684,-5.5665,-5.5607,-5.4799,-5.3491,-5.3087,-5.2279,-5.0991,-5.0683,-5.0683,-5.0683,-5.0634,-5.0358,-4.9664,-4.9532,-4.9142,-4.8693,-4.8325,-4.8364,-4.8328,-4.8274,-4.82,-4.8272,-4.8693,-4.9005,-4.8947,-4.9671,-4.9979,-5.0059,-5.0284,-5.0557,-5.0625,-5.0683,-5.0683,-5.0683,-5.0683,-5.0683,-5.0683,-5.0683,-5.0683,-5.0683,-5.0683,-5.0663,-5.0663,-5.0653,-5.0634,-5.0644,-5.0683,-5.0683,-5.0683,-5.0683,-5.0683,-5.0683,-5.0683,-5.0683,-5.0683,-5.0683,-5.0683,-5.0683,-5.0683,-5.0683,-5.0683,-5.0683,-5.0683,-5.0683,-5.0683,-5.0673,-5.0558,-5.0096,-4.926,-4.849,-4.7759,-4.6951,-4.6018,-4.5594,-4.5594,-4.5594,-4.5594,-4.5594,-6.08,-6.08,-6.08,-6.08,-6.08,-6.08,-6.08,-6.08,-6.08,-6.08,-6.08,-6.08,-6.08,-6.08,-6.08,-6.08,-6.08,-6.08,-6.08,-6.08,-6.08,-6.08,-6.08,-6.08,-6.08,-6.0781,-6.0492,-5.9742,-5.8665,-5.8069,-5.7165,-5.603,-5.5684,-5.5684,-5.5684,-5.5684,-5.5684,-5.5684,-5.5645,-5.4838,-5.3587,-5.2914,-5.2318,-5.0837,-5.0683,-5.0683,-5.0683,-5.0673,-5.0483,-5.0012,-4.9692,-4.9445,-4.9158,-4.8676,-4.855,-4.8709,-4.8744,-4.8727,-4.8863,-4.9382,-4.9249,-4.9027,-4.9659,-5.0092,-4.9962,-5.0237,-5.0575,-5.0683,-5.0683,-5.0683,-5.0683,-5.0683,-5.0683,-5.0683,-5.0683,-5.0683,-5.0683,-5.0683,-5.0683,-5.0683,-5.0683,-5.0683,-5.0683,-5.0683,-5.0683,-5.0683,-5.0683,-5.0683,-5.0683,-5.0683,-5.0683,-5.0683,-5.0683,-5.0683,-5.0683,-5.0683,-5.0683,-5.0683,-5.0683,-5.0683,-5.0683,-5.0683,-5.0654,-5.0577,-5.0327,-4.9702,-4.8913,-4.8048,-4.7048,-4.6018,-4.5768,-4.5594,-4.5594,-4.5594,-4.5594,-6.1204,-6.08,-6.08,-6.08,-6.08,-6.08,-6.08,-6.08,-6.08,-6.08,-6.08,-6.08,-6.08,-6.08,-6.08,-6.08,-6.08,-6.08,-6.08,-6.08,-6.08,-6.08,-6.08,-6.08,-6.08,-6.08,-6.0723,-6.0185,-5.8973,-5.8454,-5.7588,-5.6599,-5.5983,-5.5684,-5.5684,-5.5684,-5.5684,-5.5684,-5.5607,-5.4895,-5.3241,-5.2529,-5.1414,-5.0971,-5.0683,-5.0683,-5.0683,-5.0683,-5.0493,-5.0159,-4.9924,-4.9719,-4.946,-4.9218,-4.8996,-4.9155,-4.9043,-4.9011,-4.9108,-4.9441,-4.9123,-4.8864,-4.9589,-4.9853,-4.976,-5.0031,-5.0483,-5.0634,-5.0683,-5.0683,-5.0683,-5.0683,-5.0683,-5.0683,-5.0683,-5.0683,-5.0683,-5.0683,-5.0683,-5.0683,-5.0683,-5.0683,-5.0683,-5.0683,-5.0683,-5.0683,-5.0683,-5.0683,-5.0683,-5.0683,-5.0683,-5.0683,-5.0683,-5.0683,-5.0683,-5.0683,-5.0683,-5.0683,-5.0683,-5.0683,-5.0683,-5.0683,-5.0683,-5.0673,-5.0317,-4.9885,-4.8952,-4.7932,-4.6951,-4.6075,-4.5806,-4.5594,-4.5594,-4.5594,-4.5594,-6.1589,-6.08,-6.08,-6.08,-6.08,-6.08,-6.08,-6.08,-6.08,-6.08,-6.08,-6.08,-6.08,-6.08,-6.08,-6.08,-6.08,-6.08,-6.08,-6.08,-6.08,-6.08,-6.08,-6.08,-6.08,-6.08,-6.0781,-6.0339,-5.9396,-5.8665,-5.7838,-5.6926,-5.6118,-5.5684,-5.5684,-5.5684,-5.5684,-5.5684,-5.5645,-5.4838,-5.3241,-5.1798,-5.0827,-5.0702,-5.0683,-5.0683,-5.0683,-5.0683,-5.0565,-5.0325,-5.0135,-5.0006,-4.9806,-4.9678,-4.9645,-4.9645,-4.9371,-4.9356,-4.9341,-4.9416,-4.9265,-4.8913,-4.9265,-4.9489,-4.9765,-5.0087,-5.041,-5.0624,-5.0575,-5.0614,-5.0644,-5.0614,-5.0624,-5.0683,-5.0683,-5.0683,-5.0683,-5.0683,-5.0683,-5.0683,-5.0683,-5.0683,-5.0683,-5.0683,-5.0683,-5.0683,-5.0683,-5.0683,-5.0683,-5.0683,-5.0683,-5.0683,-5.0683,-5.0683,-5.0683,-5.0683,-5.0683,-5.0683,-5.0683,-5.0683,-5.0683,-5.0683,-5.0664,-5.0625,-5.0231,-4.9711,-4.8759,-4.7817,-4.6855,-4.6124,-4.5787,-4.5594,-4.5594,-4.5594,-4.5594,-6.1601,-6.08,-6.08,-6.08,-6.08,-6.08,-6.08,-6.08,-6.08,-6.08,-6.08,-6.08,-6.08,-6.08,-6.08,-6.08,-6.08,-6.08,-6.08,-6.08,-6.08,-6.08,-6.08,-6.08,-6.08,-6.08,-6.08,-6.03,-5.9588,-5.8781,-5.7915,-5.708,-5.6272,-5.5684,-5.5684,-5.5684,-5.5684,-5.5684,-5.5665,-5.4876,-5.3395,-5.226,-5.1395,-5.0933,-5.0702,-5.0683,-5.0683,-5.0683,-5.0624,-5.0594,-5.0291,-5.0291,-5.0421,-5.0195,-5.0272,-5.0336,-5.0183,-4.9827,-4.9673,-4.9645,-4.9575,-4.9218,-4.9326,-4.9664,-4.9949,-5.0313,-5.0594,-5.0653,-5.0421,-5.0347,-5.0504,-5.0358,-5.0429,-5.0565,-5.0683,-5.0683,-5.0683,-5.0683,-5.0683,-5.0683,-5.0683,-5.0683,-5.0683,-5.0683,-5.0683,-5.0683,-5.0683,-5.0683,-5.0683,-5.0683,-5.0683,-5.0683,-5.0683,-5.0683,-5.0683,-5.0683,-5.0683,-5.0683,-5.0683,-5.0683,-5.0683,-5.0664,-5.0596,-5.0462,-5.0019,-4.9298,-4.8259,-4.7375,-4.6644,-4.6124,-4.571,-4.5594,-4.5594,-4.5594,-4.5594,-6.2012,-6.08,-6.08,-6.08,-6.08,-6.08,-6.08,-6.08,-6.08,-6.08,-6.08,-6.08,-6.08,-6.08,-6.08,-6.08,-6.08,-6.08,-6.08,-6.08,-6.08,-6.08,-6.08,-6.08,-6.08,-6.08,-6.0781,-6.0704,-5.9896,-5.8954,-5.803,-5.7588,-5.6415,-5.5684,-5.5684,-5.5684,-5.5684,-5.5568,-5.5241,-5.4664,-5.378,-5.2683,-5.175,-5.1375,-5.0971,-5.076,-5.0721,-5.0683,-5.0683,-5.0673,-5.0493,-5.0523,-5.0643,-5.0544,-5.0525,-5.0614,-5.0544,-5.0358,-5.0195,-4.9949,-4.9706,-4.9617,-4.9575,-4.9678,-5.0068,-5.0432,-5.0584,-5.0377,-5.0206,-5.0218,-5.0336,-5.0195,-5.0369,-5.0544,-5.0683,-5.0683,-5.0683,-5.0683,-5.0683,-5.0683,-5.0683,-5.0683,-5.0683,-5.0683,-5.0683,-5.0683,-5.0683,-5.0683,-5.0683,-5.0683,-5.0683,-5.0683,-5.0683,-5.0683,-5.0683,-5.0683,-5.0683,-5.0683,-5.0683,-5.0683,-5.0683,-5.0644,-5.0529,-4.9952,-4.9221,-4.8452,-4.7644,-4.7086,-4.6509,-4.6047,-4.5614,-4.5594,-4.5594,-4.5594,-4.5594,-6.232,-6.0819,-6.08,-6.08,-6.08,-6.08,-6.08,-6.08,-6.08,-6.08,-6.08,-6.08,-6.08,-6.08,-6.08,-6.08,-6.08,-6.08,-6.08,-6.08,-6.08,-6.08,-6.08,-6.08,-6.08,-6.08,-6.08,-6.0742,-6.0242,-5.9261,-5.828,-5.8192,-5.6492,-5.5818,-5.5684,-5.5684,-5.5684,-5.5645,-5.5203,-5.478,-5.426,-5.328,-5.2626,-5.2068,-5.151,-5.0991,-5.0971,-5.0721,-5.0683,-5.0683,-5.0673,-5.0663,-5.0683,-5.0663,-5.0634,-5.0683,-5.0634,-5.0634,-5.0421,-5.0159,-4.9911,-4.9924,-5.0019,-4.9993,-5.0087,-5.0462,-5.0643,-5.0358,-5.014,-5.0171,-5.0206,-5.0195,-5.0325,-5.0534,-5.0683,-5.0683,-5.0683,-5.0683,-5.0683,-5.0683,-5.0683,-5.0683,-5.0683,-5.0683,-5.0683,-5.0683,-5.0683,-5.0683,-5.0683,-5.0683,-5.0683,-5.0683,-5.0683,-5.0683,-5.0683,-5.0683,-5.0683,-5.0683,-5.0683,-5.0683,-5.0683,-5.0567,-5.0414,-4.9625,-4.8625,-4.7952,-4.7346,-4.6874,-4.6413,-4.5951,-4.5594,-4.5594,-4.5594,-4.5594,-4.5594,-6.2339,-6.08,-6.08,-6.08,-6.08,-6.08,-6.08,-6.08,-6.08,-6.08,-6.08,-6.08,-6.08,-6.08,-6.08,-6.08,-6.08,-6.08,-6.08,-6.08,-6.08,-6.08,-6.08,-6.08,-6.08,-6.08,-6.08,-6.08,-6.0396,-5.9127,-5.8454,-5.805,-5.6511,-5.5915,-5.5684,-5.5684,-5.5684,-5.5684,-5.5472,-5.5145,-5.4761,-5.4184,-5.3799,-5.3049,-5.2327,-5.1808,-5.1769,-5.1183,-5.0721,-5.0721,-5.0683,-5.0683,-5.0683,-5.0683,-5.0683,-5.0683,-5.0683,-5.0683,-5.0554,-5.0347,-5.0147,-5.0214,-5.0313,-5.0377,-5.0279,-5.0483,-5.0604,-5.0493,-5.0171,-5.0225,-5.0325,-5.041,-5.0336,-5.0544,-5.0683,-5.0683,-5.0683,-5.0683,-5.0683,-5.0683,-5.0683,-5.0683,-5.0683,-5.0683,-5.0683,-5.0683,-5.0683,-5.0683,-5.0683,-5.0683,-5.0683,-5.0683,-5.0683,-5.0683,-5.0683,-5.0683,-5.0683,-5.0683,-5.0683,-5.0683,-5.0683,-5.051,-5.0106,-4.9298,-4.8355,-4.7712,-4.7038,-4.6471,-4.599,-4.5768,-4.5594,-4.5594,-4.5594,-4.5594,-4.5594,-6.2339,-6.0819,-6.08,-6.08,-6.08,-6.08,-6.08,-6.08,-6.08,-6.08,-6.08,-6.08,-6.08,-6.08,-6.08,-6.08,-6.08,-6.08,-6.08,-6.08,-6.08,-6.08,-6.08,-6.08,-6.08,-6.08,-6.08,-6.08,-6.0608,-5.9088,-5.8492,-5.7761,-5.6492,-5.5915,-5.5684,-5.5684,-5.5684,-5.5684,-5.5684,-5.5472,-5.528,-5.4703,-5.4337,-5.401,-5.3145,-5.2423,-5.1962,-5.1635,-5.1183,-5.0837,-5.0721,-5.0683,-5.0683,-5.0683,-5.0683,-5.0683,-5.0683,-5.0683,-5.0683,-5.0544,-5.0483,-5.0483,-5.0604,-5.0643,-5.041,-5.0451,-5.0347,-5.0195,-5.0056,-5.0099,-5.0206,-5.0206,-5.0249,-5.0554,-5.0683,-5.0683,-5.0683,-5.0683,-5.0683,-5.0683,-5.0683,-5.0683,-5.0683,-5.0683,-5.0683,-5.0683,-5.0683,-5.0683,-5.0683,-5.0683,-5.0683,-5.0683,-5.0683,-5.0683,-5.0683,-5.0683,-5.0683,-5.0683,-5.0683,-5.0683,-5.0625,-4.9971,-4.951,-4.8759,-4.799,-4.7201,-4.6509,-4.5951,-4.5671,-4.5614,-4.5594,-4.5594,-4.5594,-4.5594,-4.5594,-6.24,-6.0924,-6.0827,-6.08,-6.08,-6.08,-6.08,-6.08,-6.08,-6.08,-6.08,-6.08,-6.08,-6.08,-6.08,-6.08,-6.08,-6.08,-6.08,-6.08,-6.08,-6.08,-6.08,-6.08,-6.08,-6.08,-6.0762,-6.0742,-6.0242,-5.8934,-5.8223,-5.7473,-5.653,-5.5857,-5.5684,-5.5684,-5.5684,-5.5684,-5.5684,-5.5684,-5.5568,-5.5203,-5.4895,-5.4741,-5.403,-5.3433,-5.276,-5.2279,-5.1625,-5.1183,-5.0894,-5.0702,-5.0683,-5.0683,-5.0683,-5.0683,-5.0683,-5.0683,-5.0683,-5.0683,-5.0683,-5.0663,-5.0663,-5.0683,-5.0614,-5.0432,-5.0421,-5.0336,-5.0087,-4.9981,-5.026,-5.0336,-5.0399,-5.0673,-5.0683,-5.0683,-5.0683,-5.0683,-5.0683,-5.0683,-5.0683,-5.0683,-5.0683,-5.0683,-5.0683,-5.0683,-5.0683,-5.0683,-5.0683,-5.0683,-5.0683,-5.0683,-5.0683,-5.0683,-5.0683,-5.0683,-5.0683,-5.0683,-5.0683,-5.0683,-5.0471,-4.9779,-4.9086,-4.8432,-4.7625,-4.6663,-4.6086,-4.5729,-4.5633,-4.5594,-4.5594,-4.5594,-4.5594,-4.5594,-4.5594,-6.2576,-6.1039,-6.0867,-6.08,-6.08,-6.08,-6.08,-6.08,-6.08,-6.08,-6.08,-6.08,-6.08,-6.08,-6.08,-6.08,-6.08,-6.08,-6.08,-6.08,-6.08,-6.08,-6.08,-6.08,-6.08,-6.08,-6.0762,-6.0435,-5.9742,-5.8781,-5.7973,-5.7184,-5.6376,-5.5684,-5.5684,-5.5684,-5.5684,-5.5684,-5.5684,-5.5684,-5.5665,-5.5549,-5.5491,-5.5299,-5.4857,-5.4299,-5.378,-5.2953,-5.226,-5.1673,-5.1144,-5.0875,-5.0712,-5.0683,-5.0683,-5.0683,-5.0683,-5.0683,-5.0683,-5.0683,-5.0683,-5.0683,-5.0683,-5.0683,-5.0683,-5.0624,-5.0575,-5.0493,-5.0472,-5.0523,-5.0624,-5.0663,-5.0663,-5.0673,-5.0683,-5.0683,-5.0683,-5.0683,-5.0683,-5.0683,-5.0683,-5.0683,-5.0683,-5.0683,-5.0683,-5.0683,-5.0683,-5.0683,-5.0683,-5.0683,-5.0683,-5.0683,-5.0683,-5.0683,-5.0683,-5.0683,-5.0683,-5.0683,-5.0654,-5.0596,-5.0221,-4.9548,-4.8836,-4.8144,-4.724,-4.6259,-4.5893,-4.5594,-4.5594,-4.5594,-4.5594,-4.5594,-4.5594,-4.5594,-4.5594,-6.2574,-6.0999,-6.0858,-6.08,-6.08,-6.08,-6.08,-6.08,-6.08,-6.08,-6.08,-6.08,-6.08,-6.08,-6.08,-6.08,-6.08,-6.08,-6.08,-6.08,-6.08,-6.08,-6.08,-6.08,-6.08,-6.08,-6.0762,-6.0685,-6.0396,-5.9088,-5.8338,-5.7627,-5.6511,-5.5761,-5.5684,-5.5684,-5.5684,-5.5684,-5.5684,-5.5684,-5.5684,-5.5684,-5.5684,-5.5684,-5.5376,-5.503,-5.4607,-5.3703,-5.3068,-5.2212,-5.1606,-5.1241,-5.0875,-5.0741,-5.0683,-5.0683,-5.0683,-5.0683,-5.0683,-5.0683,-5.0683,-5.0683,-5.0683,-5.0683,-5.0712,-5.0421,-5.0472,-5.068,-5.0753,-5.0736,-5.0614,-5.0712,-5.0721,-5.0683,-5.0683,-5.0683,-5.0683,-5.0683,-5.0683,-5.0683,-5.0683,-5.0683,-5.0683,-5.0683,-5.0683,-5.0683,-5.0683,-5.0683,-5.0683,-5.0683,-5.0683,-5.0683,-5.0683,-5.0683,-5.0683,-5.0683,-5.0683,-5.0683,-5.0558,-5.0385,-4.9904,-4.926,-4.8375,-4.7548,-4.6721,-4.5932,-4.5748,-4.5594,-4.5594,-4.5594,-4.5594,-4.5594,-4.5594,-4.5594,-4.5594,-6.2303,-6.1028,-6.0847,-6.08,-6.08,-6.08,-6.08,-6.08,-6.08,-6.08,-6.08,-6.08,-6.08,-6.08,-6.08,-6.08,-6.08,-6.08,-6.08,-6.08,-6.08,-6.08,-6.08,-6.08,-6.08,-6.08,-6.0742,-6.0666,-6.0165,-5.9242,-5.8607,-5.7953,-5.6876,-5.6406,-5.6156,-5.5972,-5.5684,-5.5684,-5.5684,-5.5684,-5.5684,-5.5684,-5.5684,-5.5684,-5.5588,-5.5453,-5.4991,-5.4511,-5.3991,-5.2942,-5.2212,-5.175,-5.1221,-5.0856,-5.0741,-5.0683,-5.0683,-5.0683,-5.0683,-5.0683,-5.0683,-5.0683,-5.0683,-5.0837,-5.1019,-5.1011,-5.1282,-5.1389,-5.1177,-5.1308,-5.1451,-5.1452,-5.1337,-5.1337,-5.1144,-5.1164,-5.077,-5.077,-5.0721,-5.0721,-5.0683,-5.0683,-5.0683,-5.0683,-5.0683,-5.0683,-5.0683,-5.0683,-5.0683,-5.0683,-5.0683,-5.0683,-5.0683,-5.0683,-5.0683,-5.0683,-5.0683,-5.0683,-5.0539,-5.0346,-4.9586,-4.8933,-4.7952,-4.7028,-4.6336,-4.5825,-4.5691,-4.5594,-4.5594,-4.5594,-4.5594,-4.5594,-4.5594,-4.5594,-4.5594,-6.1789,-6.1048,-6.0877,-6.08,-6.08,-6.08,-6.08,-6.08,-6.08,-6.08,-6.08,-6.08,-6.08,-6.08,-6.08,-6.08,-6.08,-6.08,-6.08,-6.08,-6.08,-6.08,-6.08,-6.08,-6.08,-6.08,-6.0742,-6.0512,-5.9704,-5.9377,-5.8973,-5.8165,-5.7203,-5.6733,-5.6406,-5.603,-5.5722,-5.5684,-5.5684,-5.5684,-5.5684,-5.5684,-5.5684,-5.5684,-5.5665,-5.5645,-5.5338,-5.4972,-5.4607,-5.3857,-5.3,-5.2288,-5.1673,-5.1144,-5.0875,-5.0683,-5.0683,-5.0683,-5.0683,-5.0683,-5.0683,-5.0683,-5.0683,-5.1144,-5.1519,-5.1652,-5.1912,-5.2403,-5.2534,-5.2777,-5.2953,-5.276,-5.2568,-5.2318,-5.1981,-5.1606,-5.1029,-5.0866,-5.0818,-5.076,-5.0702,-5.0683,-5.0683,-5.0683,-5.0683,-5.0683,-5.0683,-5.0683,-5.0683,-5.0683,-5.0683,-5.0683,-5.0683,-5.0683,-5.0683,-5.0683,-5.0683,-5.0683,-5.0635,-5.0385,-4.9529,-4.8586,-4.7682,-4.6836,-4.6105,-4.571,-4.5633,-4.5594,-4.5594,-4.5594,-4.5594,-4.5594,-4.5594,-4.5594,-4.5594,-6.1789,-6.1018,-6.0858,-6.08,-6.08,-6.08,-6.08,-6.08,-6.08,-6.08,-6.08,-6.08,-6.08,-6.08,-6.08,-6.08,-6.08,-6.08,-6.08,-6.08,-6.08,-6.08,-6.08,-6.08,-6.08,-6.08,-6.0742,-6.0627,-6.0319,-5.9935,-5.8742,-5.7484,-5.7357,-5.6868,-5.6387,-5.5857,-5.5742,-5.5684,-5.5684,-5.5684,-5.5684,-5.5684,-5.5684,-5.5684,-5.5684,-5.5684,-5.5549,-5.5453,-5.5088,-5.4376,-5.4049,-5.3395,-5.1865,-5.1635,-5.1433,-5.0741,-5.0683,-5.0683,-5.0683,-5.0702,-5.0779,-5.0875,-5.0846,-5.1144,-5.1625,-5.2135,-5.2462,-5.3145,-5.353,-5.3645,-5.3664,-5.3549,-5.3356,-5.3087,-5.275,-5.2337,-5.1741,-5.1318,-5.1221,-5.0741,-5.0683,-5.0683,-5.0683,-5.0683,-5.0683,-5.0683,-5.0683,-5.0683,-5.0683,-5.0683,-5.0683,-5.0683,-5.0683,-5.0683,-5.0683,-5.0683,-5.0683,-5.0683,-5.0635,-5.0183,-4.9009,-4.8086,-4.7336,-4.6624,-4.5902,-4.5652,-4.5614,-4.5594,-4.5594,-4.5594,-4.5594,-4.5594,-4.5594,-4.5594,-4.5594,-6.1408,-6.0943,-6.0842,-6.08,-6.08,-6.08,-6.08,-6.08,-6.08,-6.08,-6.08,-6.08,-6.08,-6.08,-6.08,-6.08,-6.08,-6.08,-6.08,-6.08,-6.08,-6.08,-6.08,-6.08,-6.08,-6.08,-6.08,-6.0762,-6.0627,-6.0339,-5.9358,-5.8761,-5.805,-5.7242,-5.678,-5.6222,-5.5722,-5.5684,-5.5684,-5.5684,-5.5684,-5.5684,-5.5684,-5.5684,-5.5684,-5.5684,-5.5684,-5.5684,-5.5395,-5.4914,-5.4799,-5.3895,-5.2414,-5.1875,-5.1337,-5.0712,-5.0683,-5.0933,-5.1164,-5.1221,-5.1356,-5.1548,-5.1625,-5.2222,-5.2491,-5.2914,-5.3472,-5.4087,-5.4184,-5.4241,-5.4241,-5.4184,-5.3972,-5.376,-5.3453,-5.3115,-5.2568,-5.1981,-5.1433,-5.0856,-5.0683,-5.0683,-5.0683,-5.0683,-5.0683,-5.0683,-5.0683,-5.0683,-5.0683,-5.0683,-5.0683,-5.0683,-5.0683,-5.0683,-5.0625,-5.0452,-5.0481,-5.0519,-5.0664,-5.001,-4.8644,-4.7808,-4.7317,-4.6528,-4.5691,-4.5594,-4.5594,-4.5594,-4.5594,-4.5594,-4.5594,-4.5594,-4.5594,-4.5594,-4.5594,-6.0827,-6.0831,-6.0816,-6.0816,-6.08,-6.08,-6.08,-6.08,-6.08,-6.08,-6.08,-6.08,-6.08,-6.08,-6.08,-6.08,-6.08,-6.08,-6.08,-6.08,-6.08,-6.08,-6.08,-6.08,-6.08,-6.08,-6.08,-6.08,-6.08,-6.0569,-6.0454,-6.0608,-5.8992,-5.7934,-5.7434,-5.6299,-5.5742,-5.5684,-5.5684,-5.5684,-5.5684,-5.5684,-5.5684,-5.5684,-5.5684,-5.5684,-5.5684,-5.5684,-5.5684,-5.5415,-5.5011,-5.4222,-5.2991,-5.1664,-5.0981,-5.0866,-5.0875,-5.1241,-5.1664,-5.1875,-5.2356,-5.2741,-5.3203,-5.3414,-5.3491,-5.3549,-5.4068,-5.478,-5.4972,-5.5011,-5.4991,-5.4972,-5.4838,-5.4664,-5.4414,-5.3683,-5.2769,-5.2068,-5.1241,-5.0779,-5.0683,-5.0683,-5.0683,-5.0683,-5.0683,-5.0683,-5.0683,-5.0683,-5.0683,-5.0683,-5.0548,-5.0529,-5.0356,-5.0202,-4.9913,-4.9837,-5.0096,-5.025,-5.0298,-4.9817,-4.8432,-4.7798,-4.7375,-4.6471,-4.5594,-4.5594,-4.5594,-4.5594,-4.5594,-4.5594,-4.5594,-4.5594,-4.5594,-4.5594,-4.5594,-6.0954,-6.0954,-6.0954,-6.0904,-6.0793,-6.08,-6.08,-6.08,-6.08,-6.08,-6.08,-6.08,-6.08,-6.08,-6.08,-6.08,-6.08,-6.08,-6.08,-6.08,-6.08,-6.08,-6.08,-6.08,-6.08,-6.08,-6.08,-6.08,-6.08,-6.0723,-6.0435,-5.9819,-5.88,-5.8261,-5.7646,-5.6376,-5.5857,-5.5876,-5.5703,-5.5703,-5.5684,-5.5684,-5.5684,-5.5684,-5.5684,-5.5684,-5.5684,-5.5684,-5.5684,-5.5588,-5.553,-5.4645,-5.326,-5.1645,-5.0866,-5.0798,-5.1356,-5.1779,-5.2173,-5.2626,-5.3106,-5.3183,-5.3453,-5.3818,-5.4049,-5.4145,-5.453,-5.528,-5.5684,-5.5684,-5.5684,-5.5665,-5.5607,-5.5472,-5.5222,-5.4087,-5.2942,-5.1972,-5.1029,-5.0837,-5.0702,-5.0683,-5.0683,-5.0683,-5.0683,-5.0683,-5.0683,-5.0683,-5.0683,-5.0644,-5.0202,-5.0067,-4.9779,-4.9548,-4.9317,-4.9106,-4.9298,-4.9163,-4.9048,-4.8606,-4.8125,-4.7432,-4.6759,-4.6182,-4.5594,-4.5594,-4.5594,-4.5594,-4.5594,-4.5594,-4.5594,-4.5594,-4.5594,-4.5594,-4.5594,-6.1056,-6.1128,-6.104,-6.0935,-6.0816,-6.08,-6.08,-6.08,-6.08,-6.08,-6.08,-6.08,-6.08,-6.08,-6.08,-6.0781,-6.0781,-6.08,-6.08,-6.08,-6.08,-6.08,-6.08,-6.08,-6.08,-6.08,-6.08,-6.08,-6.08,-6.0762,-6.0435,-5.9935,-5.9242,-5.8531,-5.7857,-5.7011,-5.6272,-5.6291,-5.5945,-5.5742,-5.5722,-5.5684,-5.5684,-5.5684,-5.5684,-5.5684,-5.5684,-5.5684,-5.5684,-5.553,-5.5318,-5.4857,-5.3741,-5.2664,-5.1991,-5.1972,-5.2299,-5.2664,-5.301,-5.3414,-5.3914,-5.4049,-5.426,-5.4876,-5.4934,-5.503,-5.5049,-5.5684,-5.5684,-5.5684,-5.5684,-5.5665,-5.5665,-5.5588,-5.4953,-5.401,-5.2741,-5.1529,-5.0971,-5.076,-5.0683,-5.0683,-5.0683,-5.0683,-5.0683,-5.0683,-5.0683,-5.0683,-5.0683,-5.0673,-5.0212,-4.9779,-4.9567,-4.9375,-4.9279,-4.8836,-4.8432,-4.8212,-4.8058,-4.7846,-4.7625,-4.6817,-4.6105,-4.5893,-4.571,-4.5594,-4.5594,-4.5594,-4.5594,-4.5594,-4.5594,-4.5594,-4.5594,-4.5594,-4.5594,-6.1131,-6.1272,-6.107,-6.0915,-6.0804,-6.08,-6.08,-6.08,-6.08,-6.08,-6.08,-6.08,-6.08,-6.08,-6.0819,-6.0796,-6.0793,-6.0781,-6.08,-6.08,-6.08,-6.08,-6.08,-6.08,-6.08,-6.08,-6.08,-6.08,-6.08,-6.0781,-6.0723,-6.0608,-6.0108,-5.9473,-5.9031,-5.8127,-5.7099,-5.6733,-5.6349,-5.5895,-5.578,-5.5684,-5.5684,-5.5684,-5.5684,-5.5684,-5.5684,-5.5684,-5.5684,-5.5415,-5.5068,-5.4645,-5.4164,-5.3376,-5.3087,-5.2914,-5.3164,-5.3645,-5.4145,-5.4434,-5.4953,-5.5357,-5.5626,-5.5684,-5.5645,-5.5645,-5.5665,-5.5665,-5.5684,-5.5684,-5.5684,-5.5684,-5.5684,-5.5453,-5.4703,-5.3933,-5.2606,-5.1298,-5.0914,-5.0683,-5.0683,-5.0683,-5.0683,-5.0683,-5.0683,-5.0683,-5.0683,-5.0683,-5.0683,-5.0654,-5.0423,-4.9971,-4.9644,-4.9471,-4.9144,-4.8548,-4.7865,-4.7962,-4.7865,-4.7548,-4.7259,-4.7067,-4.6682,-4.6086,-4.5913,-4.5883,-4.5671,-4.5594,-4.5594,-4.5594,-4.5594,-4.5594,-4.5594,-4.5594,-4.5594,-6.1259,-6.1271,-6.107,-6.0915,-6.0804,-6.08,-6.08,-6.0781,-6.0793,-6.08,-6.0804,-6.0793,-6.0781,-6.0804,-6.0935,-6.0935,-6.0823,-6.0816,-6.08,-6.08,-6.08,-6.08,-6.08,-6.08,-6.08,-6.08,-6.08,-6.08,-6.08,-6.08,-6.0781,-6.0723,-5.9992,-5.955,-5.9358,-5.8492,-5.778,-5.7357,-5.6849,-5.6395,-5.5838,-5.5742,-5.5703,-5.5684,-5.5684,-5.5684,-5.5684,-5.5684,-5.5684,-5.5453,-5.5049,-5.4722,-5.4395,-5.3991,-5.3664,-5.3741,-5.3991,-5.4299,-5.4722,-5.5068,-5.5511,-5.5588,-5.5684,-5.5684,-5.5665,-5.5684,-5.5684,-5.5684,-5.5684,-5.5684,-5.5684,-5.5684,-5.5645,-5.5145,-5.4472,-5.3741,-5.2702,-5.1568,-5.076,-5.0683,-5.0683,-5.0683,-5.0683,-5.0683,-5.0683,-5.0683,-5.0683,-5.0683,-5.0683,-5.0654,-5.0616,-5.024,-4.9837,-4.9029,-4.8471,-4.799,-4.7481,-4.7635,-4.774,-4.7528,-4.7548,-4.7875,-4.7432,-4.6374,-4.6259,-4.6336,-4.6105,-4.5594,-4.5594,-4.5594,-4.5594,-4.5594,-4.5594,-4.5594,-4.5594]},{"header":{"parameterUnit":"m.s-1","parameterCategory":1,"la1":31.0,"la2":29.5877,"lo1":-88.7671,"lo2":-86.6584,"dy":0.0162,"dx":0.0185,"nx":115,"ny":88,"refTime":"2024-05-25T18:00:00:Z","depth":0,"parameterNumber":3,"parameterNumberName":"V-component_of_WINDS"},"data":[0.0,0.0,0.0,0.0,0.0,0.0,0.0,0.0,0.0,0.0,0.0,0.0,0.0,0.0,0.0,0.0,0.0,0.0,0.0,0.0,0.0,0.0,0.0,0.0,0.0,0.0,0.0,0.0,0.0,0.0,0.0,0.0,0.0,0.0,0.0,0.0,0.0,0.0,0.0,0.0,0.0,0.0,0.0,0.0,0.0,0.0,0.0,0.0,0.0,0.0,0.0,0.0,0.0,0.0,0.0,0.0,0.0,0.0,0.0,0.0,0.0,0.0,0.0,0.0,0.0,0.0,0.0,0.0,0.0,0.0,0.0,0.0,0.0,0.0,0.0,0.0,0.0,0.0,0.0,0.0,0.0,0.0,0.0,0.0,0.0,0.0,0.0,0.0,0.0,0.0,0.0,0.0,0.0,0.0,0.0,0.0,0.0,0.0,0.0,0.0,0.0,0.0,0.0,0.0,0.0,0.0,0.0,0.0,0.0,0.0,0.0,0.0,0.0,0.0,0.0,0.0,0.0,0.0,0.0,0.0,0.0,0.0,0.0,0.0,0.0,0.0,0.0,0.0,0.0,0.0,0.0,0.0,0.0,0.0,0.0,0.0,0.0,0.0,0.0,0.0,0.0,0.0,0.0,0.0,0.0,0.0,0.0,0.0,0.0,0.0,0.0,0.0,0.0,0.0,0.0,0.0,0.0,0.0,0.0,0.0,0.0,0.0,0.0,0.0,0.0,0.0,0.0,0.0,0.0,0.0,0.0,0.0,0.0,0.0,0.0,0.0,0.0,0.0,0.0,0.0,0.0,0.0,0.0,0.0,0.0,0.0,0.0,0.0,0.0,0.0,0.0,0.0,0.0,0.0,0.0,0.0,0.0,0.0,0.0,0.0,0.0,0.0,0.0,0.0,0.0,0.0,0.0,0.0,0.0,0.0,0.0,0.0,0.0,0.0,0.0,0.0,0.0,0.0,0.0,0.0,0.0,0.0,0.0,0.0,0.0,0.0,0.0,0.0,0.0,0.0,0.0,0.0,0.0,0.0,0.0,0.0,0.0,0.0,0.0,0.0,0.0,0.0,0.0,0.0,0.0,0.0,0.0,0.0,0.0,0.0,0.0,0.0,0.0,0.0,0.0,0.0,0.0,0.0,0.0,0.0,0.0,0.0,0.0,0.0,0.0,0.0,0.0,0.0,0.0,0.0,0.0,0.0,0.0,0.0,0.0,0.0,0.0,0.0,0.0,0.0,0.0,0.0,0.0,0.0,0.0,0.0,0.0,0.0,0.0,0.0,0.0,0.0,0.0,0.0,0.0,0.0,0.0,0.0,0.0,0.0,0.0,0.0,0.0,0.0,0.0,0.0,0.0,0.0,0.0,0.0,0.0,0.0,0.0,0.0,0.0,0.0,0.0,0.0,0.0,0.0,0.0,0.0,0.0,0.0,0.0,0.0,0.0,0.0,0.0,0.0,0.0,0.0,0.0,0.0,0.0,0.0,0.0,0.0,0.0,0.0,0.0,0.0,0.0,0.0,0.0,0.0,0.0,0.0,0.0,0.0,0.0,0.0,0.0,0.0,0.0,0.0,0.0,0.0,0.0,0.0,0.0,0.0,0.0,0.0,0.0,0.0,0.0,0.0,0.0,0.0,0.0,0.0,0.0,0.0,0.0,0.0,0.0,0.0,0.0,0.0,0.0,0.0,0.0,0.0,0.0,0.0,0.0,0.0,0.0,0.0,0.0,0.0,0.0,0.0,0.0,0.0,0.0,0.0,0.0,0.0,0.0,0.0,0.0,0.0,0.0,0.0,0.0,0.0,0.0,0.0,0.0,0.0,0.0,0.0,0.0,0.0,0.0,0.0,0.0,0.0,0.0,0.0,0.0,0.0,0.0,0.0,0.0,0.0,0.0,0.0,0.0,0.0,0.0,0.0,0.0,0.0,0.0,0.0,0.0,0.0,0.0,0.0,0.0,0.0,0.0,0.0,0.0,0.0,0.0,0.0,0.0,0.0,0.0,0.0,0.0,0.0,0.0,0.0,0.0,0.0,0.0,0.0,0.0,0.0,0.0,0.0,0.0,0.0,0.0,0.0,0.0,0.0,0.0,0.0,0.0,0.0,0.0,0.0,0.0,0.0,0.0,0.0,0.0,0.0,0.0,0.0,0.0,0.0,0.0,0.0,0.0,0.0,0.0,0.0,0.0,0.0,0.0,0.0,0.0,0.0,0.0,0.0,0.0,0.0,0.0,0.0,0.0,0.0,0.0,0.0,0.0,0.0,0.0,0.0,0.0,0.0,0.0,0.0,0.0,0.0,0.0,0.0,0.0,0.0,0.0,0.0,0.0,0.0,0.0,0.0,0.0,0.0,0.0,0.0,0.0,0.0,0.0,0.0,0.0,0.0,0.0,0.0,0.0,0.0,0.0,0.0,0.0,0.0,0.0,0.0,0.0,0.0,0.0,0.0,0.0,0.0,0.0,0.0,0.0,0.0,0.0,0.0,0.0,0.0,0.0,0.0,0.0,0.0,0.0,0.0,0.0,0.0,0.0,0.0,0.0,0.0,0.0,0.0,0.0,0.0,0.0,0.0,0.0,0.0,0.0,0.0,0.0,0.0,0.0,0.0,0.0,0.0,0.0,0.0,0.0,0.0,0.0,0.0,0.0,0.0,0.0,0.0,0.0,0.0,0.0,0.0,0.0,0.0,0.0,0.0,0.0,0.0,0.0,0.0,0.0,0.0,0.0,0.0,0.0,0.0,0.0,0.0,0.0,0.0,0.0,0.0,0.0,0.0,0.0,0.0,0.0,0.0,0.0,0.0,0.0,0.0,0.0,0.0,0.0,0.0,0.0,0.0,0.0,0.0,0.0,0.0,0.0,0.0,0.0,0.0,0.0,0.0,0.0,0.0,0.0,0.0,0.0,0.0,0.0,0.0,0.0,0.0,0.0,0.0,0.0,0.0,0.0,0.0,0.0,0.0,0.0,0.0,0.0,0.0,0.0,0.0,0.0,0.0,0.0,0.0,0.0,0.0,0.0,0.0,0.0,0.0,0.0,0.0,0.0,0.0,0.0,0.0,0.0,0.0,0.0,0.0,0.0,0.0,0.0,0.0,0.0,0.0,0.0,0.0,0.0,0.0,0.0,0.0,0.0,0.0,0.0,0.0,0.0,0.0,0.0,0.0,0.0,0.0,0.0,0.0,0.0,0.0,0.0,0.0,0.0,0.0,0.0,0.0,0.0,0.0,0.0,0.0,0.0,0.0,0.0,0.0,0.0,0.0,0.0,0.0,0.0,0.0,0.0,0.0,0.0,0.0,0.0,0.0,0.0,0.0,0.0,0.0,0.0,0.0,0.0,0.0,0.0,0.0,0.0,0.0,0.0,0.0,0.0,0.0,0.0,0.0,0.0,0.0,0.0,0.0,0.0,0.0,0.0,0.0,0.0,0.0,0.0,0.0,0.0,0.0,0.0,0.0,0.0,0.0,0.0,0.0,0.0,0.0,0.0,0.0,0.0,0.0,0.0,0.0,0.0,0.0,0.0,0.0,0.0,0.0,0.0,0.0,0.0,0.0,0.0,0.0,0.0,0.0,0.0,0.0,0.0,0.0,0.0,0.0,0.0,0.0,0.0,0.0,0.0,0.0,0.0,0.0,0.0,0.0,0.0,0.0,0.0,0.0,0.0,0.0,0.0,0.0,0.0,0.0,0.0,0.0,0.0,0.0,0.0,0.0,0.0,0.0,0.0,0.0,0.0,0.0,0.0,0.0,0.0,0.0,0.0,0.0,0.0,0.0,0.0,0.0,0.0,0.0,0.0,0.0,0.0,0.0,0.0,0.0,0.0,0.0,0.0,0.0,0.0,0.0,0.0,0.0,0.0,0.0,0.0,0.0,0.0,0.0,0.0,0.0,0.0,0.0,0.0,0.0,0.0,0.0,0.0,0.0,0.0,0.0,0.0,0.0,0.0,0.0,0.0,0.0,0.0,0.0,0.0,0.0,0.0,0.0,0.0,0.0,0.0,0.0,0.0,0.0,0.0,0.0,0.0,0.0,0.0,0.0,0.0,0.0,0.0,0.0,0.0,0.0,0.0,0.0,0.0,0.0,0.0,0.0,0.0,0.0,0.0,0.0,0.0,0.0,0.0,0.0,0.0,0.0,0.0,0.0,0.0,0.0,0.0,0.0,0.0,0.0,0.0,0.0,0.0,0.0,0.0,0.0,0.0,0.0,0.0,0.0,0.0,0.0,0.0,0.0,0.0,0.0,0.0,0.0,0.0,0.0,0.0,0.0,-1.0119,0.0,0.0,0.0,0.0,0.0,0.0,0.0,0.0,0.0,0.0,0.0,0.0,0.0,0.0,0.0,0.0,0.0,0.0,0.0,0.0,0.0,0.0,0.0,0.0,0.0,0.0,0.0,0.0,0.0,0.0,0.0,0.0,0.0,0.0,0.0,0.0,0.0,0.0,0.0,0.0,0.0,0.0,0.0,0.0,0.0,0.0,0.0,0.0,0.0,0.0,0.0,0.0,0.0,0.0,0.0,0.0,0.0,0.0,0.0,0.0,0.0,0.0,0.0,0.0,0.0,0.0,0.0,0.0,0.0,0.0,0.0,0.0,0.0,0.0,0.0,0.0,0.0,0.0,0.0,0.0,0.0,0.0,0.0,0.0,0.0,0.0,0.0,0.0,0.0,0.0,0.0,0.0,0.0,0.0,0.0,0.0,0.0,0.0,0.0,0.0,0.0,0.0,0.0,0.0,0.0,0.0,0.0,0.0,0.0,0.0,-0.7162,-0.7961,-0.7069,-0.7751,-1.0209,0.0,0.0,0.0,0.0,0.0,0.0,0.0,0.0,0.0,0.0,0.0,0.0,0.0,0.0,0.0,0.0,0.0,0.0,0.0,0.0,0.0,0.0,0.0,0.0,0.0,0.0,0.0,0.0,0.0,0.0,0.0,0.0,0.0,0.0,0.0,0.0,0.0,0.0,0.0,0.0,0.0,0.0,0.0,0.0,0.0,0.0,0.0,0.0,0.0,0.0,0.0,0.0,0.0,0.0,0.0,0.0,0.0,0.0,0.0,0.0,0.0,0.0,0.0,0.0,0.0,0.0,0.0,0.0,0.0,0.0,0.0,0.0,0.0,0.0,0.0,0.0,0.0,0.0,0.0,0.0,0.0,0.0,0.0,0.0,0.0,0.0,0.0,0.0,0.0,0.0,0.0,0.0,0.0,0.0,0.0,0.0,0.0,0.0,0.0,0.0,0.0,0.0,0.0,0.0,0.0,0.0,0.0,0.0,0.0,0.0,0.0,0.0,-0.7325,-0.8378,-1.0657,0.0,0.0,0.0,0.0,0.0,0.0,0.0,0.0,0.0,0.0,0.0,0.0,0.0,0.0,0.0,0.0,0.0,0.0,0.0,0.0,0.0,0.0,0.0,0.0,0.0,0.0,0.0,0.0,0.0,0.0,0.0,0.0,0.0,0.0,0.0,0.0,0.0,0.0,0.0,0.0,0.0,0.0,0.0,0.0,0.0,0.0,0.0,0.0,0.0,0.0,0.0,0.0,0.0,0.0,0.0,0.0,0.0,0.0,0.0,0.0,0.0,0.0,0.0,0.0,0.0,0.0,0.0,0.0,0.0,0.0,0.0,0.0,0.0,0.0,0.0,0.0,0.0,0.0,0.0,0.0,0.0,0.0,0.0,0.0,0.0,0.0,0.0,0.0,0.0,0.0,0.0,0.0,0.0,0.0,0.0,0.0,0.0,0.0,0.0,0.0,0.0,0.0,0.0,0.0,0.0,0.0,0.0,0.0,0.0,0.0,-0.3981,-0.5599,-0.5792,0.0,-1.1751,0.0,0.0,0.0,0.0,0.0,0.0,0.0,0.0,0.0,0.0,0.0,0.0,0.0,0.0,0.0,0.0,0.0,0.0,0.0,0.0,0.0,0.0,0.0,0.0,0.0,0.0,0.0,0.0,0.0,0.0,0.0,0.0,0.0,0.0,0.0,0.0,0.0,0.0,0.0,0.0,0.0,0.0,0.0,0.0,0.0,0.0,0.0,0.0,0.0,0.0,0.0,0.0,0.0,0.0,0.0,0.0,0.0,0.0,0.0,0.0,0.0,0.0,0.0,0.0,0.0,0.0,0.0,0.0,0.0,0.0,0.0,0.0,0.0,0.0,0.0,0.0,0.0,0.0,0.0,0.0,0.0,0.0,0.0,0.0,0.0,0.0,0.0,0.0,0.0,0.0,0.0,0.0,0.0,0.0,0.0,0.0,0.0,0.0,0.0,0.0,0.0,0.0,0.0,0.0,0.0,0.0,0.0,0.0,0.0,0.0,-0.3609,-0.5471,-0.7464,-0.9667,0.0,0.0,0.0,0.0,0.0,0.0,0.0,0.0,0.0,0.0,0.0,0.0,0.0,0.0,0.0,0.0,0.0,0.0,0.0,0.0,0.0,0.0,0.0,0.0,0.0,0.0,0.0,0.0,0.0,0.0,0.0,0.0,0.0,0.0,0.0,0.0,0.0,0.0,0.0,0.0,0.0,0.0,0.0,0.0,0.0,0.0,0.0,0.0,0.0,0.0,0.0,0.0,0.0,0.0,0.0,0.0,0.0,0.0,0.0,0.0,0.0,0.0,0.0,0.0,0.0,0.0,0.0,0.0,0.0,0.0,0.0,0.0,0.0,0.0,0.0,0.0,0.0,0.0,0.0,0.0,0.0,0.0,0.0,0.0,0.0,0.0,0.0,0.0,0.0,0.0,0.0,0.0,0.0,0.0,0.0,0.0,0.0,0.0,0.0,0.0,0.0,0.0,0.0,0.0,0.0,0.0,0.0,0.0,0.0,0.0,-0.3142,-0.3083,-0.5536,-0.8848,-1.1309,-1.2673,0.0,0.0,0.0,0.0,0.0,0.0,0.0,0.0,0.0,0.0,0.0,0.0,0.0,0.0,0.0,0.0,0.0,0.0,0.0,0.0,0.0,0.0,0.0,0.0,0.0,0.0,0.0,0.0,0.0,0.0,0.0,0.0,0.0,0.0,0.0,0.0,0.0,0.0,0.0,0.0,0.0,0.0,0.0,0.0,0.0,0.0,0.0,0.0,0.0,0.0,0.0,0.0,0.0,0.0,0.0,0.0,0.0,0.0,0.0,0.0,0.0,0.0,0.0,0.0,0.0,0.0,0.0,0.0,0.0,0.0,0.0,0.0,0.0,0.0,0.0,0.0,0.0,0.0,0.0,0.0,0.0,0.0,0.0,0.0,0.0,0.0,0.0,0.0,0.0,0.0,0.0,0.0,0.0,0.0,0.0,0.0,0.0,0.0,0.0,0.0,0.0,0.0,0.0,0.0,0.0,0.0,0.0,0.0,-0.5416,-0.2,-0.1852,-0.5341,-0.8951,-1.1873,0.0,0.0,0.0,0.0,0.0,0.0,0.0,0.0,0.0,0.0,0.0,0.0,0.0,0.0,0.0,0.0,0.0,0.0,0.0,0.0,0.0,0.0,0.0,0.0,0.0,0.0,0.0,0.0,0.0,0.0,0.0,0.0,0.0,0.0,0.0,0.0,0.0,0.0,0.0,0.0,0.0,0.0,0.0,0.0,0.0,0.0,0.0,0.0,0.0,0.0,0.0,0.0,0.0,0.0,0.0,0.0,0.0,0.0,0.0,0.0,0.0,0.0,0.0,0.0,0.0,0.0,0.0,0.0,0.0,0.0,0.0,0.0,0.0,0.0,0.0,0.0,0.0,0.0,0.0,0.0,0.0,0.0,0.0,0.0,0.0,0.0,0.0,0.0,0.0,0.0,0.0,0.0,0.0,0.0,0.0,0.0,0.0,0.0,0.0,0.0,0.0,0.0,0.0,0.0,0.0,0.0,0.0,0.0,0.0,-0.5297,-0.2995,-0.3029,-0.5467,-0.7633,-1.045,0.0,0.0,0.0,0.0,0.0,0.0,0.0,0.0,0.0,0.0,0.0,0.0,0.0,0.0,0.0,0.0,0.0,0.0,0.0,0.0,0.0,0.0,0.0,0.0,0.0,0.0,0.0,0.0,0.0,0.0,0.0,0.0,0.0,0.0,0.0,0.0,0.0,0.0,0.0,0.0,0.0,0.0,0.0,0.0,0.0,0.0,0.0,0.0,0.0,0.0,0.0,0.0,0.0,0.0,0.0,0.0,0.0,0.0,0.0,0.0,0.0,0.0,0.0,0.0,0.0,0.0,0.0,0.0,0.0,0.0,0.0,0.0,0.0,0.0,0.0,0.0,0.0,0.0,0.0,0.0,0.0,0.0,0.0,0.0,0.0,0.0,0.0,0.0,0.0,0.0,0.0,0.0,0.0,0.0,0.0,0.0,0.0,0.0,0.0,0.0,0.0,0.0,0.0,0.0,0.0,0.0,0.0,0.0,0.0,-0.3636,0.0,-0.3707,-0.5364,-0.6876,-0.9609,0.0,0.0,0.0,0.0,0.0,0.0,0.0,0.0,0.0,0.0,0.0,0.0,0.0,0.0,0.0,0.0,0.0,0.0,0.0,0.0,0.0,0.0,0.0,0.0,0.0,0.0,0.0,0.0,0.0,0.0,0.0,0.0,0.0,0.0,0.0,0.0,0.0,0.0,0.0,0.0,0.0,0.0,0.0,0.0,0.0,0.0,0.0,0.0,0.0,0.0,0.0,0.0,0.0,0.0,0.0,0.0,0.0,0.0,0.0,0.0,0.0,0.0,0.0,0.0,0.0,0.0,0.0,0.0,0.0,0.0,0.0,0.0,0.0,0.0,0.0,0.0,0.0,0.0,0.0,0.0,0.0,0.0,0.0,0.0,0.0,0.0,0.0,0.0,0.0,0.0,0.0,0.0,0.0,0.0,0.0,0.0,0.0,0.0,0.0,0.0,0.0,0.0,0.0,0.0,0.0,0.0,0.0,0.0,-0.5243,-0.0403,-0.177,-0.3403,-0.5099,-0.6802,-0.9655,0.0,0.0,0.0,0.0,0.0,0.0,0.0,0.0,0.0,0.0,0.0,0.0,0.0,0.0,0.0,0.0,0.0,0.0,0.0,0.0,0.0,0.0,0.0,0.0,0.0,0.0,0.0,0.0,0.0,0.0,0.0,0.0,0.0,0.0,0.0,0.0,0.0,0.0,0.0,0.0,0.0,0.0,0.0,0.0,0.0,0.0,0.0,0.0,0.0,0.0,0.0,0.0,0.0,0.0,0.0,0.0,0.0,0.0,0.0,0.0,0.0,0.0,0.0,0.0,0.0,0.0,0.0,0.0,0.0,0.0,0.0,0.0,0.0,0.0,0.0,0.0,0.0,0.0,0.0,0.0,0.0,0.0,0.0,0.0,0.0,0.0,0.0,0.0,0.0,0.0,0.0,0.0,0.0,0.0,0.0,0.0,0.0,0.0,0.0,0.0,0.0,0.0,0.0,0.0,0.0,0.0,0.0,0.0,0.0,-0.0133,-0.0538,-0.2303,-0.5291,-0.5606,-0.8256,0.0,0.0,0.0,0.0,0.0,0.0,0.0,0.0,0.0,0.0,0.0,0.0,0.0,0.0,0.0,0.0,0.0,0.0,0.0,0.0,0.0,0.0,0.0,0.0,0.0,0.0,0.0,0.0,0.0,0.0,0.0,0.0,0.0,0.0,0.0,0.0,0.0,0.0,0.0,0.0,0.0,0.0,0.0,0.0,0.0,0.0,0.0,0.0,0.0,0.0,0.0,0.0,0.0,0.0,0.0,0.0,0.0,0.0,0.0,0.0,0.0,0.0,0.0,0.0,0.0,0.0,0.0,0.0,0.0,0.0,0.0,0.0,0.0,0.0,0.0,0.0,0.0,0.0,0.0,0.0,0.0,0.0,0.0,0.0,0.0,0.0,0.0,0.0,0.0,0.0,0.0,0.0,0.0,0.0,0.0,0.0,0.0,0.0,0.0,0.0,0.0,0.0,0.0,0.0,0.0,0.0,0.0,0.0,0.0,0.0,0.0,-0.1767,-0.5471,-0.504,-0.7744,-1.3861,0.0,0.0,0.0,0.0,0.0,0.0,0.0,0.0,0.0,0.0,0.0,0.0,0.0,0.0,0.0,0.0,0.0,0.0,0.0,0.0,0.0,0.0,0.0,0.0,0.0,0.0,0.0,0.0,0.0,0.0,0.0,0.0,0.0,0.0,0.0,0.0,0.0,0.0,0.0,0.0,0.0,0.0,0.0,0.0,0.0,0.0,0.0,0.0,0.0,0.0,0.0,0.0,0.0,0.0,0.0,0.0,0.0,0.0,0.0,0.0,0.0,0.0,0.0,0.0,0.0,0.0,0.0,0.0,0.0,0.0,0.0,0.0,0.0,0.0,0.0,0.0,0.0,0.0,0.0,0.0,0.0,0.0,0.0,0.0,0.0,0.0,0.0,0.0,0.0,0.0,0.0,0.0,0.0,0.0,0.0,0.0,0.0,0.0,0.0,0.0,0.0,0.0,0.0,0.0,0.0,0.0,0.0,0.0,-0.0067,0.0,-0.1855,-0.5276,-0.5061,-0.7924,0.0,0.0,0.0,0.0,0.0,0.0,0.0,0.0,0.0,0.0,0.0,0.0,0.0,0.0,0.0,0.0,0.0,0.0,0.0,0.0,0.0,0.0,0.0,0.0,0.0,0.0,0.0,0.0,0.0,0.0,0.0,0.0,0.0,0.0,0.0,0.0,0.0,0.0,0.0,0.0,0.0,0.0,0.0,0.0,0.0,0.0,0.0,0.0,0.0,0.0,0.0,0.0,0.0,0.0,0.0,0.0,0.0,0.0,0.0,0.0,0.0,0.0,0.0,0.0,0.0,0.0,0.0,0.0,0.0,0.0,0.0,0.0,0.0,0.0,0.0,0.0,0.0,0.0,0.0,0.0,0.0,0.0,0.0,0.0,0.0,0.0,0.0,0.0,0.0,0.0,0.0,0.0,0.0,0.0,0.0,0.0,0.0,0.0,0.0,0.0,0.0,0.0,0.0,0.0,0.0,0.0,0.0,0.0,0.0,-0.0208,-0.1403,-0.323,-0.5414,-0.5153,-0.8023,0.0,0.0,0.0,0.0,0.0,0.0,0.0,0.0,0.0,0.0,0.0,0.0,0.0,0.0,0.0,0.0,0.0,0.0,0.0,0.0,0.0,0.0,0.0,0.0,0.0,0.0,0.0,0.0,0.0,0.0,0.0,0.0,0.0,0.0,0.0,0.0,0.0,0.0,0.0,0.0,0.0,0.0,0.0,0.0,0.0,0.0,0.0,0.0,0.0,0.0,0.0,0.0,0.0,0.0,0.0,0.0,0.0,0.0,0.0,0.0,0.0,0.0,0.0,0.0,0.0,0.0,0.0,0.0,0.0,0.0,0.0,0.0,0.0,0.0,0.0,0.0,0.0,0.0,0.0,0.0,0.0,0.0,0.0,0.0,0.0,0.0,0.0,0.0,0.0,0.0,0.0,0.0,0.0,0.0,0.0,0.0,0.0,0.0,0.0,0.0,0.0,0.0,0.0,0.0,0.0,0.0,0.0,0.0,-0.3886,-0.125,-0.2261,-0.4095,-0.6572,-0.6457,-0.8978,0.0,0.0,0.0,0.0,0.0,0.0,0.0,0.0,0.0,0.0,0.0,0.0,0.0,0.0,0.0,0.0,0.0,0.0,0.0,0.0,0.0,0.0,0.0,0.0,0.0,0.0,0.0,0.0,0.0,0.0,0.0,0.0,0.0,0.0,0.0,0.0,0.0,0.0,0.0,0.0,0.0,0.0,0.0,0.0,0.0,0.0,0.0,0.0,0.0,0.0,0.0,0.0,0.0,0.0,0.0,0.0,0.0,0.0,0.0,0.0,0.0,0.0,0.0,0.0,0.0,0.0,0.0,0.0,0.0,0.0,0.0,0.0,0.0,0.0,0.0,0.0,0.0,0.0,0.0,0.0,0.0,0.0,0.0,0.0,0.0,0.0,0.0,0.0,0.0,0.0,0.0,0.0,0.0,0.0,0.0,0.0,0.0,0.0,0.0,0.0,0.0,0.0,0.0,0.0,0.0,0.0,0.0,0.0,-0.4527,-0.2743,-0.3024,-0.4711,-0.7871,-0.8161,-1.0417,0.0,0.0,0.0,0.0,0.0,0.0,0.0,0.0,0.0,0.0,0.0,0.0,0.0,0.0,0.0,0.0,0.0,0.0,0.0,0.0,0.0,0.0,0.0,0.0,0.0,0.0,0.0,0.0,0.0,0.0,0.0,0.0,0.0,0.0,0.0,0.0,0.0,0.0,0.0,0.0,0.0,0.0,0.0,0.0,0.0,0.0,0.0,0.0,0.0,0.0,0.0,0.0,0.0,0.0,0.0,0.0,0.0,0.0,0.0,0.0,0.0,0.0,0.0,0.0,0.0,0.0,0.0,0.0,0.0,0.0,0.0,0.0,0.0,0.0,0.0,0.0,0.0,0.0,0.0,0.0,0.0,0.0,0.0,0.0,0.0,0.0,0.0,0.0,0.0,0.0,0.0,0.0,0.0,0.0,0.0,0.0,0.0,0.0,0.0,0.0,0.0,0.0,0.0,0.0,0.0,0.0,0.0,0.0,-0.4496,-0.2812,-0.4217,-0.5973,-0.7932,-0.8017,-1.0246,0.0,0.0,0.0,0.0,0.0,0.0,0.0,0.0,0.0,0.0,0.0,0.0,0.0,0.0,0.0,0.0,0.0,0.0,0.0,0.0,0.0,0.0,0.0,0.0,0.0,0.0,0.0,0.0,0.0,0.0,0.0,0.0,0.0,0.0,0.0,0.0,0.0,0.0,0.0,0.0,0.0,0.0,0.0,0.0,0.0,0.0,0.0,0.0,-1.0605,0.0,0.0,0.0,0.0,0.0,0.0,0.0,0.0,0.0,0.0,0.0,0.0,0.0,0.0,0.0,0.0,0.0,0.0,0.0,0.0,0.0,0.0,0.0,0.0,0.0,0.0,0.0,0.0,0.0,0.0,0.0,0.0,0.0,0.0,0.0,0.0,0.0,0.0,0.0,0.0,0.0,0.0,0.0,0.0,0.0,0.0,0.0,0.0,0.0,0.0,0.0,0.0,0.0,0.0,0.0,0.0,0.0,0.0,0.0,-0.6138,-0.5286,-0.6289,-0.7608,-0.9151,-0.9335,-1.1156,0.0,0.0,0.0,0.0,0.0,0.0,0.0,0.0,0.0,0.0,0.0,0.0,0.0,0.0,0.0,0.0,0.0,0.0,0.0,0.0,0.0,0.0,0.0,0.0,0.0,0.0,0.0,0.0,0.0,0.0,0.0,0.0,0.0,0.0,0.0,0.0,0.0,0.0,0.0,0.0,0.0,0.0,0.0,0.0,0.0,0.0,0.0,0.0,0.0,0.0,0.0,0.0,0.0,0.0,0.0,0.0,0.0,0.0,0.0,0.0,0.0,0.0,0.0,0.0,0.0,0.0,0.0,0.0,0.0,0.0,0.0,0.0,0.0,0.0,0.0,0.0,0.0,0.0,0.0,0.0,0.0,0.0,0.0,0.0,0.0,0.0,0.0,0.0,0.0,0.0,0.0,0.0,0.0,0.0,0.0,0.0,0.0,0.0,0.0,0.0,0.0,0.0,0.0,0.0,0.0,0.0,0.0,-0.786,-0.7964,-0.8035,-0.8143,-0.903,-1.0661,-1.1041,-1.2393,-1.4801,0.0,0.0,0.0,0.0,0.0,0.0,0.0,0.0,0.0,0.0,0.0,0.0,0.0,0.0,0.0,0.0,0.0,0.0,0.0,0.0,0.0,0.0,0.0,0.0,0.0,0.0,0.0,0.0,0.0,0.0,0.0,0.0,0.0,0.0,0.0,0.0,0.0,0.0,-1.1475,-0.9097,0.0,0.0,0.0,0.0,0.0,0.0,0.0,0.0,-1.4463,0.0,0.0,0.0,0.0,0.0,0.0,0.0,0.0,0.0,0.0,0.0,0.0,0.0,0.0,0.0,0.0,0.0,0.0,0.0,0.0,0.0,0.0,0.0,0.0,0.0,0.0,0.0,0.0,0.0,0.0,0.0,0.0,0.0,0.0,0.0,0.0,0.0,0.0,0.0,0.0,0.0,0.0,0.0,0.0,0.0,0.0,0.0,0.0,0.0,0.0,0.0,0.0,0.0,0.0,0.0,0.0,-0.7839,-0.7832,-0.7897,-0.7966,-0.8005,-0.8892,-1.0661,-1.2114,-1.3431,-1.46,0.0,0.0,0.0,0.0,0.0,0.0,0.0,0.0,0.0,0.0,0.0,0.0,0.0,0.0,0.0,0.0,0.0,0.0,0.0,0.0,0.0,0.0,0.0,0.0,0.0,0.0,0.0,0.0,0.0,0.0,0.0,0.0,0.0,0.0,0.0,0.0,0.0,0.0,0.0,-0.6779,-0.5737,0.0,0.0,0.0,0.0,0.0,0.0,0.0,0.0,-1.597,0.0,0.0,0.0,0.0,0.0,0.0,0.0,0.0,0.0,0.0,0.0,0.0,0.0,0.0,0.0,0.0,0.0,0.0,0.0,0.0,0.0,0.0,0.0,0.0,0.0,0.0,0.0,0.0,0.0,0.0,0.0,0.0,0.0,0.0,0.0,0.0,0.0,0.0,0.0,0.0,0.0,0.0,0.0,0.0,0.0,0.0,0.0,0.0,0.0,0.0,0.0,0.0,0.0,0.0,0.0,-0.9264,-0.921,-0.9371,-0.9374,-0.9433,-0.9847,-1.0717,-1.2114,-1.3321,0.0,0.0,0.0,0.0,0.0,0.0,0.0,0.0,0.0,0.0,0.0,0.0,0.0,0.0,0.0,0.0,0.0,0.0,0.0,0.0,0.0,0.0,0.0,0.0,0.0,0.0,0.0,0.0,0.0,0.0,0.0,0.0,0.0,0.0,0.0,0.0,0.0,0.0,0.0,0.0,-0.7535,-0.6669,-0.6745,0.0,0.0,0.0,0.0,0.0,0.0,-1.5681,-1.7213,0.0,0.0,0.0,0.0,0.0,0.0,0.0,0.0,0.0,0.0,0.0,0.0,0.0,0.0,0.0,0.0,0.0,0.0,0.0,0.0,0.0,0.0,0.0,0.0,0.0,0.0,0.0,0.0,0.0,0.0,0.0,0.0,0.0,0.0,0.0,0.0,0.0,0.0,0.0,0.0,0.0,0.0,0.0,0.0,0.0,0.0,0.0,0.0,0.0,0.0,0.0,0.0,0.0,0.0,0.0,-1.0355,-1.0524,-1.069,-1.0717,-1.0721,-1.085,-1.1237,-1.2431,-1.3562,0.0,0.0,0.0,0.0,0.0,0.0,0.0,0.0,0.0,0.0,0.0,0.0,0.0,0.0,0.0,0.0,0.0,0.0,0.0,0.0,0.0,0.0,0.0,0.0,0.0,0.0,0.0,0.0,0.0,0.0,0.0,0.0,0.0,0.0,0.0,0.0,0.0,0.0,0.0,0.0,0.0,-0.8283,-0.7977,-0.9443,0.0,0.0,0.0,0.0,-1.5953,-1.7144,0.0,0.0,0.0,0.0,0.0,0.0,0.0,0.0,0.0,0.0,0.0,0.0,0.0,0.0,0.0,0.0,0.0,0.0,0.0,0.0,0.0,0.0,0.0,0.0,0.0,0.0,0.0,0.0,0.0,0.0,0.0,0.0,0.0,0.0,0.0,0.0,0.0,0.0,0.0,0.0,0.0,0.0,0.0,0.0,0.0,0.0,0.0,0.0,0.0,0.0,0.0,0.0,0.0,0.0,0.0,0.0,-1.0132,-1.0368,-1.0582,-1.0711,-1.0721,-1.1439,-1.2931,-1.44,-1.5561,0.0,0.0,0.0,0.0,0.0,0.0,0.0,0.0,0.0,0.0,0.0,0.0,0.0,0.0,0.0,0.0,0.0,0.0,0.0,0.0,0.0,0.0,0.0,0.0,0.0,0.0,0.0,0.0,0.0,0.0,0.0,0.0,0.0,0.0,0.0,0.0,0.0,0.0,0.0,0.0,0.0,-0.9767,-0.8031,-0.932,-1.1117,0.0,0.0,-1.4308,-1.7652,-1.8308,0.0,0.0,0.0,0.0,0.0,0.0,0.0,0.0,0.0,0.0,0.0,0.0,0.0,0.0,0.0,0.0,0.0,0.0,0.0,0.0,0.0,0.0,0.0,0.0,0.0,0.0,0.0,0.0,0.0,0.0,0.0,0.0,0.0,0.0,0.0,0.0,0.0,0.0,0.0,0.0,0.0,0.0,0.0,0.0,0.0,0.0,0.0,0.0,0.0,0.0,0.0,0.0,0.0,0.0,0.0,-1.2537,-1.0108,-1.0429,-1.0656,-1.0717,-1.0721,-1.1567,-1.3259,-1.4386,-1.545,0.0,0.0,0.0,0.0,0.0,0.0,0.0,0.0,0.0,0.0,0.0,0.0,0.0,0.0,0.0,0.0,0.0,0.0,0.0,0.0,0.0,0.0,0.0,0.0,0.0,0.0,0.0,0.0,0.0,0.0,0.0,0.0,0.0,0.0,0.0,0.0,0.0,0.0,0.0,0.0,0.0,0.0,-1.0902,-1.1573,0.0,0.0,0.0,-1.6706,-1.8297,0.0,0.0,0.0,0.0,0.0,0.0,0.0,0.0,0.0,0.0,0.0,0.0,0.0,0.0,0.0,0.0,0.0,0.0,0.0,0.0,0.0,0.0,0.0,0.0,0.0,0.0,0.0,0.0,0.0,0.0,0.0,0.0,0.0,0.0,0.0,0.0,0.0,0.0,0.0,0.0,0.0,0.0,0.0,0.0,0.0,0.0,0.0,0.0,0.0,0.0,0.0,0.0,0.0,0.0,0.0,0.0,0.0,-1.054,-1.0599,-1.0916,-1.1372,-1.1372,-1.2417,-1.4544,-1.5077,0.0,0.0,0.0,0.0,0.0,0.0,0.0,0.0,0.0,0.0,0.0,0.0,0.0,0.0,0.0,0.0,0.0,0.0,0.0,0.0,0.0,0.0,0.0,0.0,0.0,0.0,0.0,-1.1556,0.0,0.0,0.0,0.0,0.0,0.0,0.0,0.0,0.0,0.0,0.0,0.0,0.0,0.0,-1.2187,-1.3665,-1.3939,-1.4553,0.0,0.0,-1.8634,-1.9088,-1.985,-2.0481,0.0,0.0,0.0,0.0,0.0,0.0,0.0,0.0,0.0,0.0,0.0,0.0,0.0,0.0,0.0,0.0,0.0,0.0,0.0,0.0,0.0,0.0,0.0,0.0,0.0,0.0,0.0,0.0,0.0,0.0,0.0,0.0,0.0,0.0,0.0,0.0,0.0,0.0,0.0,0.0,0.0,0.0,0.0,0.0,0.0,0.0,0.0,0.0,0.0,0.0,0.0,0.0,0.0,0.0,-1.309,-1.1881,-1.1116,-1.1501,-1.3066,-1.3128,-1.4749,-1.7982,-1.7672,-1.7787,0.0,0.0,0.0,0.0,0.0,0.0,0.0,0.0,0.0,0.0,0.0,0.0,0.0,0.0,0.0,0.0,0.0,0.0,0.0,0.0,0.0,0.0,0.0,0.0,0.0,0.0,0.0,0.0,0.0,0.0,0.0,0.0,0.0,0.0,0.0,0.0,0.0,0.0,0.0,0.0,0.0,-1.5257,-1.5531,-1.5653,-1.6366,0.0,-1.8442,-1.903,-2.0652,-2.0943,-2.0875,-2.0286,0.0,0.0,0.0,0.0,0.0,0.0,0.0,0.0,0.0,0.0,0.0,0.0,0.0,0.0,0.0,0.0,0.0,0.0,0.0,0.0,0.0,0.0,0.0,0.0,0.0,0.0,0.0,0.0,0.0,0.0,0.0,0.0,0.0,0.0,0.0,0.0,0.0,0.0,0.0,0.0,0.0,0.0,0.0,0.0,0.0,0.0,0.0,0.0,0.0,0.0,0.0,0.0,0.0,-1.3413,-1.3581,-1.264,-1.3076,-1.4809,-1.4879,-1.6043,-1.8442,-1.7877,-1.7912,0.0,0.0,0.0,0.0,0.0,0.0,0.0,0.0,0.0,0.0,0.0,0.0,0.0,0.0,0.0,0.0,0.0,0.0,0.0,0.0,0.0,0.0,0.0,0.0,0.0,0.0,0.0,0.0,-1.2833,-1.4016,-1.5637,0.0,0.0,0.0,0.0,0.0,0.0,0.0,0.0,0.0,0.0,-1.5856,-1.7221,-1.7477,0.0,0.0,-2.0138,-2.0329,-2.0976,-2.0808,-2.0488,-2.0207,-2.0087,0.0,0.0,0.0,0.0,0.0,0.0,0.0,0.0,0.0,0.0,0.0,0.0,0.0,0.0,0.0,0.0,0.0,0.0,0.0,0.0,0.0,0.0,0.0,0.0,0.0,0.0,-1.6956,-1.8027,0.0,0.0,0.0,0.0,0.0,0.0,0.0,0.0,0.0,0.0,0.0,0.0,0.0,0.0,0.0,0.0,0.0,0.0,0.0,0.0,0.0,0.0,0.0,0.0,-1.4235,-1.5087,-1.4161,-1.4544,-1.6355,-1.6424,-1.7257,-1.8908,-1.8539,-1.8329,0.0,0.0,0.0,0.0,0.0,0.0,0.0,0.0,0.0,0.0,0.0,0.0,0.0,0.0,0.0,0.0,0.0,0.0,0.0,0.0,0.0,0.0,0.0,0.0,0.0,0.0,0.0,0.0,-1.4063,-1.5369,-1.6567,0.0,0.0,0.0,0.0,0.0,0.0,0.0,0.0,0.0,0.0,-1.7508,-1.9027,-1.9291,-1.968,-2.0912,-2.1102,-2.1102,-2.1102,-2.0762,-2.0406,-2.0381,0.0,0.0,0.0,0.0,0.0,0.0,0.0,0.0,0.0,0.0,0.0,0.0,0.0,0.0,0.0,0.0,0.0,0.0,0.0,0.0,0.0,0.0,0.0,0.0,0.0,0.0,0.0,-1.8435,0.0,0.0,-1.7622,0.0,0.0,0.0,0.0,0.0,0.0,0.0,0.0,0.0,0.0,0.0,0.0,0.0,0.0,0.0,0.0,0.0,0.0,0.0,0.0,0.0,0.0,-1.5668,-1.6253,-1.5418,-1.5825,-1.752,-1.757,-1.8392,-2.0011,-1.9907,-1.9334,-1.8497,0.0,0.0,0.0,0.0,0.0,0.0,0.0,0.0,0.0,0.0,0.0,0.0,0.0,0.0,0.0,0.0,0.0,0.0,0.0,0.0,0.0,0.0,0.0,0.0,0.0,0.0,-1.399,-1.5458,-1.633,0.0,0.0,0.0,0.0,0.0,0.0,0.0,0.0,0.0,-1.7535,-1.9305,-2.0706,-2.0936,-2.1039,-2.0976,-2.1109,-2.1102,-2.1102,-2.1102,-2.1089,-2.0989,0.0,0.0,0.0,0.0,0.0,0.0,0.0,0.0,0.0,0.0,0.0,0.0,0.0,0.0,0.0,0.0,0.0,0.0,0.0,0.0,0.0,0.0,0.0,0.0,0.0,0.0,0.0,-1.9506,-1.8798,0.0,0.0,0.0,0.0,0.0,0.0,0.0,0.0,0.0,0.0,0.0,-1.7215,-1.8476,0.0,0.0,0.0,0.0,0.0,0.0,0.0,0.0,0.0,0.0,0.0,0.0,-1.6173,-1.7919,-1.7114,-1.7439,-1.929,-1.9357,-1.9607,-2.0173,-1.9953,-1.9199,-1.7923,0.0,0.0,0.0,0.0,0.0,0.0,0.0,0.0,0.0,0.0,0.0,0.0,0.0,0.0,0.0,0.0,0.0,0.0,0.0,0.0,0.0,0.0,0.0,0.0,0.0,-1.3707,0.0,0.0,0.0,0.0,0.0,0.0,0.0,0.0,0.0,0.0,-1.7398,-1.7803,-1.9421,-2.0233,-2.0782,-2.1076,-2.1102,-2.1102,0.0,0.0,0.0,0.0,0.0,0.0,0.0,0.0,0.0,0.0,0.0,0.0,0.0,-1.6254,-1.732,-1.7599,-1.7563,-1.7826,-1.8913,0.0,0.0,0.0,0.0,0.0,0.0,0.0,0.0,0.0,0.0,0.0,0.0,0.0,0.0,-1.9853,-1.9252,-1.9232,0.0,0.0,0.0,0.0,0.0,0.0,0.0,0.0,-1.8155,-1.8704,-1.8611,-1.9794,-2.0187,-1.9826,-1.9626,-1.9025,0.0,0.0,0.0,0.0,0.0,0.0,0.0,0.0,-1.7031,-1.8652,-1.8325,-1.8699,-1.986,-1.9927,-1.9933,-1.992,-1.9546,-1.8791,-1.7622,-1.6991,-1.64,0.0,0.0,0.0,0.0,0.0,0.0,0.0,0.0,0.0,0.0,0.0,0.0,0.0,0.0,0.0,0.0,0.0,0.0,0.0,0.0,0.0,0.0,0.0,-1.5425,0.0,0.0,0.0,0.0,0.0,0.0,0.0,0.0,0.0,-1.868,-1.8485,-1.8984,-2.0471,-2.0762,-2.0895,-2.1082,0.0,0.0,0.0,0.0,0.0,0.0,0.0,-2.0828,-2.0822,-2.0309,-1.9512,-1.8268,-1.7822,-1.6744,-1.4226,0.0,0.0,-1.6335,-1.6403,-1.6682,-1.7744,-1.8536,-1.8856,-1.8359,-1.8951,-1.9372,0.0,0.0,0.0,0.0,-1.343,0.0,0.0,0.0,-1.964,-2.01,0.0,-1.9806,0.0,0.0,0.0,0.0,-1.9386,-1.9607,0.0,0.0,-2.0739,-2.0949,-2.0695,-2.0688,-2.0688,-2.0688,-2.0717,-2.0361,-1.9746,-1.835,-1.7534,0.0,0.0,0.0,0.0,0.0,-1.821,-1.8524,-1.9085,-1.9372,-1.9437,-1.9437,-1.9424,-1.9345,-1.8798,-1.8203,-1.7609,-1.734,-1.6918,-1.6299,-1.6321,0.0,0.0,0.0,0.0,0.0,0.0,0.0,0.0,0.0,0.0,0.0,0.0,0.0,0.0,0.0,0.0,0.0,0.0,0.0,0.0,-1.4814,0.0,0.0,0.0,0.0,0.0,0.0,0.0,0.0,0.0,-1.8914,-1.7645,-1.9267,-2.0675,-2.0695,0.0,0.0,0.0,0.0,-2.1102,-2.1102,-2.1102,-2.1102,-2.1102,-2.1102,-2.1096,-2.1096,0.0,0.0,-1.3846,-1.4742,-1.4818,-1.1232,-1.2099,-1.3766,-1.536,-1.5484,-1.5431,-1.5483,-1.6612,-1.7378,-1.7245,-1.8429,-1.9502,-1.1118,0.0,0.0,0.0,0.0,-1.5072,-1.6792,-1.8458,-2.0123,-2.0581,-2.0107,-2.0107,0.0,0.0,0.0,0.0,0.0,0.0,-2.0267,-2.0548,-2.0728,-2.0862,-2.0989,-2.0982,-2.0982,-2.0982,-2.0775,-2.0588,-2.0381,-1.9372,-1.849,-1.7796,0.0,0.0,0.0,0.0,-1.8504,-1.8804,-1.9172,-1.9424,-1.9424,-1.9424,-1.9265,-1.9058,-1.8477,-1.7989,-1.7595,-1.7353,-1.6924,-1.6306,-1.6273,0.0,0.0,0.0,0.0,0.0,0.0,0.0,0.0,0.0,0.0,0.0,0.0,0.0,0.0,0.0,0.0,0.0,0.0,0.0,-1.4624,-1.5703,-1.6326,0.0,0.0,0.0,0.0,0.0,0.0,0.0,0.0,0.0,-1.9687,-2.0262,-2.0755,0.0,0.0,-2.1102,-2.1102,-2.1102,-2.1102,-2.1102,-2.1102,0.0,-2.1102,-2.1102,-2.1102,-2.1102,-2.0652,-1.9191,-1.5698,-1.555,-1.473,-1.1304,-1.0988,-1.1456,-1.1965,-1.3019,-1.4162,-1.5299,-1.5867,-1.6413,-1.7146,-1.7793,-1.837,-1.1229,-1.1039,-1.083,-1.1759,-1.3456,-1.5139,-1.6888,-1.857,-1.961,-2.0268,-2.052,-1.982,-1.9572,-1.9706,-1.9586,0.0,0.0,0.0,-2.0568,-2.0848,-2.0848,-2.0942,-2.1102,-2.1102,-2.1102,-2.1102,-2.0935,-2.0848,-2.0842,-2.008,-1.9386,-1.8744,0.0,-1.813,-1.7956,-1.8424,-1.8744,-1.8925,-1.9219,-1.9424,-1.9424,-1.9252,-1.9052,-1.8751,-1.8235,-1.7903,-1.7595,-1.7415,-1.7099,-1.6473,-1.5982,-1.5501,0.0,0.0,0.0,0.0,0.0,0.0,0.0,0.0,0.0,0.0,0.0,-1.4388,-1.2224,0.0,0.0,0.0,-1.1905,-1.3935,-1.6137,-1.662,0.0,0.0,0.0,0.0,0.0,0.0,0.0,-1.9512,-1.9833,-2.0147,-2.0615,-2.0782,-2.0915,-2.1082,-2.1102,-2.1102,-2.1102,0.0,-2.1102,-2.1102,-2.1102,-2.1102,-2.1102,-2.1102,-2.1069,-2.0955,-2.035,-1.9014,-1.6239,-1.5145,-1.374,-1.1301,-1.047,-1.0409,-1.0409,-1.1243,-1.2384,-1.4071,-1.4849,-1.5666,-1.6945,-1.7743,-1.845,-1.1257,-1.1348,-1.1067,-1.1922,-1.3674,-1.5209,-1.6947,-1.864,-1.857,-1.9477,-2.0912,-1.9291,-1.9142,-2.0233,-2.0027,0.0,-2.0708,-2.0708,-2.0848,-2.1102,-2.1102,-2.1102,-2.1102,-2.1102,-2.1102,-2.1102,-2.1102,-2.1102,-2.1076,-2.0508,-2.0094,-1.9813,-1.8978,-1.8551,-1.8537,-1.8818,-1.8958,-1.8965,-1.9232,-1.9424,-1.9417,-1.9058,-1.8764,-1.8497,-1.8156,-1.7836,-1.7562,-1.7522,-1.7196,-1.65,-1.5387,-1.4439,-1.3757,0.0,0.0,0.0,0.0,0.0,0.0,0.0,0.0,0.0,0.0,0.0,0.0,0.0,0.0,-1.0672,-1.3268,0.0,-1.7076,-1.7487,0.0,0.0,0.0,-1.8049,-1.8095,-1.8555,-1.9045,-1.9366,0.0,0.0,-2.0641,-2.0909,-2.1076,-2.1076,-2.1096,-2.1102,-2.1102,-2.1102,-2.1102,-2.1102,-2.1102,-2.1102,-2.1102,-2.1076,-2.0949,-2.0688,-1.9293,-1.769,-1.5696,-1.4034,-1.2347,-1.0612,-1.0273,-1.0263,-1.0263,-1.0207,-1.0521,-1.2422,-1.3685,-1.5002,-1.6579,-1.7956,-1.8828,-1.129,-1.1202,-1.0954,-1.2653,-1.5436,-1.5794,-1.7661,-2.0329,-1.9094,-1.9477,-2.0976,-1.9285,-1.9345,-2.0895,-2.0835,-2.0875,-2.1009,-2.1009,-2.1049,-2.1102,-2.1102,-2.1102,-2.1102,-2.1102,-2.1102,-2.1102,-2.1102,-2.1102,-2.1076,-2.0521,-2.014,-2.0094,-1.9479,-1.9045,-1.8838,-1.9118,-1.9259,-1.9259,-1.939,-1.9424,-1.9417,-1.8858,-1.8564,-1.8484,-1.7756,-1.738,-1.7306,-1.7034,-1.6281,-1.4924,-1.4596,-1.3813,-1.2441,-1.1818,0.0,0.0,0.0,0.0,0.0,0.0,0.0,0.0,0.0,-1.5282,-1.3651,0.0,-1.3722,0.0,-1.5649,-1.699,-1.7168,-1.7622,0.0,0.0,-1.8343,-1.8557,-1.8998,-1.8978,-1.9118,-1.9639,-2.0013,-2.0347,-2.0641,-2.0735,-2.0782,-2.0788,-2.0969,-2.1102,-2.1102,-2.1102,-2.1102,-2.1089,-2.1082,-2.1102,-2.1069,-2.0915,-2.0675,-2.0388,-1.9018,-1.7364,-1.5566,-1.3953,-1.2343,-1.0711,-1.0181,-1.0054,-1.0041,-0.992,-1.0974,-1.3301,-1.3421,-1.3591,-1.6078,-1.6962,-1.7475,-1.1277,-1.124,-1.0962,-1.2405,-1.4916,-1.4768,-1.6695,-1.9744,-1.7275,-1.7146,-1.8768,-1.8576,-1.9483,-2.1039,-2.1102,-2.1102,-2.1102,-2.1102,-2.1102,-2.1102,-2.1102,-2.1102,-2.1102,-2.1102,-2.1102,-2.1102,-2.1102,-2.1049,-2.0895,-2.0454,-2.0167,-2.0034,-1.9593,-1.9285,-1.9132,-1.9279,-1.9424,-1.9424,-1.9424,-1.9424,-1.941,-1.8798,-1.8497,-1.847,-1.7742,-1.7333,-1.7199,-1.6464,-1.5475,-1.4333,-1.3209,-1.2118,-1.113,-1.0294,-1.0044,0.0,0.0,0.0,0.0,0.0,0.0,0.0,0.0,0.0,0.0,0.0,-1.4815,-1.5939,-1.7134,-1.7829,-1.7929,-1.8364,-1.8698,-1.8865,-1.8878,-1.9011,-1.9397,-1.9219,-1.9299,-1.9746,-1.994,-2.0154,-2.0441,-2.0481,-2.0474,-2.0481,-2.0615,-2.0715,-2.0722,-2.0715,-2.0722,-2.0722,-2.0715,-2.0722,-2.0722,-2.0581,-2.0374,-1.9926,-1.8125,-1.6242,-1.51,-1.3075,-1.1181,-1.0315,-1.0002,-0.9886,-0.9883,-0.9883,-1.0819,-1.3286,-1.3677,-1.4275,-1.6908,-1.7478,-1.7659,-1.124,-1.1321,-1.0897,-1.1781,-1.3424,-1.3133,-1.4944,-1.7923,-1.4679,-1.4293,-1.5978,-1.7731,-1.9483,-2.1039,-2.1102,-2.1102,-2.1102,-2.1102,-2.1102,-2.1102,-2.1102,-2.1102,-2.1102,-2.1102,-2.1102,-2.1102,-2.1069,-2.0922,-2.0668,-2.0341,-1.9993,-1.9793,-1.9506,-1.9424,-1.9424,-1.9424,-1.9424,-1.9424,-1.9424,-1.9424,-1.9417,-1.8831,-1.8531,-1.847,-1.7695,-1.7173,-1.6844,-1.5539,-1.4481,-1.3739,-1.1618,-1.0201,-0.9793,-0.8552,-0.8263,0.0,-0.9352,0.0,0.0,0.0,0.0,0.0,0.0,0.0,0.0,-1.4145,-1.5506,-1.7463,-1.7936,-1.8315,-1.8878,-1.9192,-1.9424,-1.9424,-1.9424,-1.9424,-1.9424,-1.9424,-1.9466,-1.972,-1.9773,-1.99,-2.014,-2.012,-2.018,-2.0174,-2.0134,-2.012,-2.0127,-2.0207,-2.022,-2.0173,-2.0173,-2.0159,-1.9783,-1.975,-1.9579,-1.8901,-1.6583,-1.464,-1.4296,-1.1872,-0.9829,-0.9829,-0.9836,-0.9829,-0.9819,-0.9808,-1.0696,-1.3192,-1.363,-1.4667,-1.7648,-1.8423,-1.835,-1.1248,-1.1175,-1.0856,-1.1714,-1.3244,-1.1839,-1.3193,-1.6237,-1.4166,-1.4297,-1.5978,-1.7731,-1.9483,-2.1039,-2.1102,-2.1102,-2.1102,-2.1102,-2.1102,-2.1102,-2.1102,-2.1102,-2.1102,-2.1102,-2.1102,-2.1089,-2.0869,-2.0728,-2.0661,-2.014,-1.9853,-1.9793,-1.9512,-1.9424,-1.9424,0.0,0.0,0.0,-1.9424,-1.9424,-1.941,-1.9025,-1.8731,-1.8477,-1.6646,0.0,-1.5194,-1.3657,-1.2204,-1.1016,-1.0512,0.0,0.0,0.0,0.0,0.0,0.0,0.0,0.0,0.0,0.0,0.0,-1.3886,-1.4733,-1.5599,-1.6458,-1.7134,-1.7582,-1.8297,-1.8748,-1.8911,-1.9192,-1.9424,-1.9424,-1.9424,-1.9424,-1.9424,-1.9424,-1.945,-1.9439,-1.9646,-1.9813,-1.9807,-1.988,-1.9887,-1.9807,-1.9679,-1.9546,-1.9546,-1.9933,-2.0214,-2.0173,-2.0187,-1.9624,-1.8124,-1.7973,-1.7523,-1.5807,-1.4062,-1.2853,-1.2586,-1.1201,-0.9822,-0.9819,-0.9819,-0.9819,-0.9815,-0.973,-1.0231,-1.2051,-1.2139,-1.3099,-1.7254,-1.8115,-1.7989,-1.1231,-1.1131,-1.0843,-1.1178,0.0,-1.1045,-1.1699,-1.3259,-1.2413,-1.3451,-1.5983,-1.6818,-1.8634,-2.1102,-2.1102,-2.1102,-2.1102,-2.1102,-2.1102,-2.1102,-2.1102,-2.1102,-2.1102,-2.1102,-2.0644,-1.9783,-2.0355,-2.0145,-1.9168,-1.9568,-1.9726,-1.9586,-1.9439,-1.9424,-1.9424,-1.9424,-1.9424,-1.9424,-1.8642,-1.8583,-1.9294,-1.8307,-1.7968,-1.8428,-1.6584,0.0,0.0,0.0,0.0,0.0,0.0,0.0,0.0,0.0,0.0,-0.7929,-0.8583,-0.9057,-0.9195,-1.0519,-1.1452,-1.1651,-1.2868,-1.3911,-1.4558,-1.5123,-1.5529,-1.5665,-1.6148,-1.6792,-1.7736,-1.8051,-1.8525,-1.9307,-1.9424,-1.9424,-1.9424,-1.9424,-1.9424,-1.9314,-1.8829,-1.8429,-1.8429,-1.8435,-1.8435,-1.8488,-1.9044,-1.9366,-1.945,-1.9613,-1.98,-1.9806,-1.9806,-1.9206,-1.7613,-1.7215,-1.6592,-1.4857,-1.3228,-1.2333,-1.2213,-1.0902,-0.9819,-0.9819,-0.9819,-0.9802,-0.9727,-0.9656,-1.003,-1.1236,-1.1446,-1.2164,-1.5115,-1.6228,-1.6681,-1.1148,-1.1101,-1.0836,-1.0721,-1.0721,-1.0721,-1.0721,-1.0721,-1.0721,0.0,0.0,-1.5913,-1.7661,-2.0589,-2.0976,-2.0912,-2.0652,-2.0976,-2.1102,-2.1102,-2.1102,-2.1102,-2.1109,-2.0786,-1.9985,-1.8825,-1.9666,-1.9379,-1.7907,-1.9134,-1.9606,-1.945,-1.9424,-1.9424,-1.9424,-1.9424,-1.9249,-1.8946,-1.7689,-1.7483,-1.8448,-1.7216,-1.7013,-1.8023,-1.6381,-1.5242,-1.4636,-1.1981,-1.0314,-0.9922,-0.8925,-0.8252,-0.8126,-0.8019,-0.7988,-0.7988,-0.8019,-0.815,-0.8347,-0.8639,-0.9383,-1.0841,-1.1891,-1.2621,-1.2886,-1.3158,-1.341,-1.3683,-1.3821,-1.4638,-1.6417,-1.6749,-1.756,-1.9099,-1.9285,-1.9305,-1.9417,-1.9424,-1.9424,-1.9249,-1.8046,-1.7026,-1.7038,-1.6744,-1.6733,-1.7085,-1.811,-1.9185,-1.9366,-1.945,-1.9484,-1.9484,-1.9147,-1.8369,-1.6973,-1.609,-1.5542,-1.377,-1.2513,-1.1796,-1.1555,-1.0657,-0.9879,-0.9819,-0.9805,-0.9734,-0.9635,-0.9554,-0.9847,-1.0763,-1.0899,-1.1223,-1.2282,-1.3642,-1.4615,-1.1094,-1.0965,-1.0792,-1.0721,-1.0721,-1.0721,-1.0721,-1.0721,-1.0721,-1.2672,-1.5913,-1.5913,-1.7017,-1.896,-2.0456,-2.0259,-1.9024,-2.0392,-2.1102,-2.1102,-2.1102,-2.1102,-2.0982,-1.9546,-1.9404,-2.0221,-1.8779,-1.8508,-1.9371,-1.9429,-1.9406,-1.943,-1.9424,-1.9424,-1.9424,-1.9424,-1.87,-1.7384,-1.7085,-1.6389,-1.513,-1.6017,-1.6402,-1.6216,-1.4679,-1.3671,-1.3252,-1.056,-0.8954,-0.8909,-0.8625,-0.8442,-0.8414,-0.8174,-0.7988,-0.7995,-0.8163,-0.8299,-0.8497,-0.9775,-1.1199,-1.2661,-1.1968,-1.1878,-1.3111,-1.3303,-1.341,-1.3678,-1.3573,-1.446,-1.6092,-1.6343,-1.7045,-1.8711,-1.8985,-1.9078,-1.9319,-1.941,-1.9352,-1.9243,-1.7987,-1.6903,-1.6615,-1.5725,-1.5429,-1.6609,-1.7443,-1.7923,-1.8946,-1.9424,-1.9424,-1.9243,-1.8227,-1.6797,-1.5252,-1.3765,-1.2629,-1.0717,-1.0482,-1.0301,-1.0361,-1.0048,-0.9805,-0.9815,-0.9834,-0.9748,-0.9644,-0.9384,-0.9471,-0.9694,-0.9552,-0.957,-0.986,-1.0941,-1.2186,-1.1077,-1.0867,-1.0782,-1.0721,-1.0721,-1.0721,-1.0721,-1.0721,-1.0721,-1.2676,-1.5784,-1.5913,-1.7404,-1.9871,-2.0722,-2.0652,-1.9935,-2.0716,-2.1102,-2.1102,-2.1102,-2.0596,-1.968,-1.8896,-1.7788,-1.6613,-1.7302,-1.7416,-1.7167,-1.8583,-1.9424,-1.9424,-1.9424,-1.9424,-1.9424,-1.9424,-1.8152,-1.5651,-1.5587,-1.5184,-1.4439,-1.4091,-1.421,-1.4652,-1.3212,-1.2301,-1.1944,-0.9907,-0.8798,-0.8713,-0.8564,-0.8448,-0.8367,-0.816,-0.7988,-0.7992,-0.8106,-0.8245,-0.8469,-0.9337,-1.0101,-1.0828,-1.0296,-1.0186,-1.0836,-1.0891,-1.0983,-1.1062,-1.1209,-1.2241,-1.4577,-1.4975,-1.5964,-1.844,-1.8691,-1.8811,-1.9065,-1.9132,-1.8833,-1.8131,-1.668,-1.537,-1.4475,-1.3765,-1.3944,-1.5488,-1.6973,-1.8227,-1.8169,-1.8104,-1.8104,-1.804,-1.7449,-1.5961,-1.3825,-1.2749,-1.1555,-1.0061,-0.9819,-0.9819,-0.9812,-0.9771,-1.007,-1.0696,-1.0749,-1.0612,-1.0532,-1.0436,-1.0029,-0.9094,-0.8994,-0.8888,-0.9044,-0.9478,-1.0891,-1.106,-1.0816,-1.0768,-1.0721,-1.0721,-1.0721,-1.0721,-1.0721,-1.0721,-1.2413,-1.5074,-1.5329,-1.7017,-1.9807,-2.0322,-2.0265,-2.0068,-2.0779,-2.0849,-2.0526,-2.0526,-1.961,-1.7988,-1.7532,-1.5941,-1.3931,-1.5938,-1.6309,-1.5596,-1.7994,-1.9424,-1.9424,-1.9424,-1.9424,-1.9424,-1.9424,-1.7735,-1.4624,-1.433,-1.3991,-1.325,-1.2184,-1.2181,-1.2935,-1.2035,-1.1304,-1.1063,-0.9699,-0.8869,-0.8716,-0.8564,-0.8418,-0.8275,-0.8123,-0.7988,-0.7992,-0.8022,-0.8218,-0.8513,-0.873,-0.9047,-0.9375,-0.9372,-0.9375,-0.9372,-0.9375,-0.921,-0.9006,-0.9206,-1.0432,-1.3096,-1.3775,-1.4987,-1.7923,-1.839,-1.851,-1.8771,-1.8878,-1.8358,-1.7031,-1.5515,-1.4004,-1.2633,-1.1856,-1.2513,-1.4545,-1.7097,-1.8169,-1.7261,-1.6791,-1.6374,-1.6015,-1.5897,-1.4945,-1.2569,-1.1796,-1.1137,-0.994,-0.9819,-0.9819,-0.9866,-0.9964,-1.0528,-1.1547,-1.1968,-1.1731,-1.1422,-1.1218,-1.0544,-0.9352,-0.8888,-0.894,-0.8937,-0.8937,-1.0241,-1.0995,-1.0758,-1.0727,-1.0721,-1.0721,-1.0721,-1.0721,-1.0721,-1.0721,-1.1765,-1.3578,-1.3517,-1.4619,-1.6436,-1.818,-1.8116,-1.6953,-1.968,-2.0202,-1.8832,-1.8704,-1.7795,-1.6108,-1.4619,-1.4212,-1.4798,-1.5189,-1.5822,-1.6573,-1.8467,-1.9424,-1.9424,-1.9424,-1.9366,-1.9366,-1.9359,-1.7728,-1.4498,-1.423,-1.2672,-0.9933,-1.0795,-1.1308,-1.1303,-1.119,-1.1126,-1.0996,-0.9699,-0.8866,-0.8716,-0.8564,-0.8418,-0.8275,-0.8126,-0.7988,-0.7995,-0.8167,-0.8377,-0.8659,-0.879,-0.942,-1.0731,-1.0726,-1.0726,-1.0781,-1.0781,-1.0296,-0.9272,-0.8895,-1.0221,-1.2916,-1.3335,-1.4652,-1.7392,-1.7975,-1.8203,-1.849,-1.8764,-1.8293,-1.6724,-1.5408,-1.4009,-1.2449,-1.1318,-1.1559,-1.4009,-1.6203,-1.7208,-1.6486,-1.5542,-1.4302,-1.3168,-1.2689,-1.2629,-1.1916,-1.0899,-1.024,-0.9819,-0.9819,-0.9819,-0.999,-1.0861,-1.2017,-1.2063,-1.2944,-1.3054,-1.2051,-1.1202,-1.0704,-0.9658,-0.9099,-0.8937,-0.8937,-0.8927,-1.0167,-1.0989,-1.0724,-1.0721,-1.0721,-1.0721,-1.0721,-1.0721,-1.0721,-1.0721,-1.1699,-1.3001,-1.2219,-1.384,-1.7474,-1.9221,-1.9094,-1.7602,-1.896,-1.864,-1.7082,-1.6953,-1.6043,-1.4423,-1.3709,-1.3065,-1.2607,-1.4135,-1.5212,-1.592,-1.8117,-1.9424,-1.9424,-1.9424,-1.8946,-1.8092,-1.7877,-1.6201,-1.2986,-1.2663,-1.1401,-0.9374,-0.9572,-0.9872,-0.9816,-0.9805,-0.9805,-0.9754,-0.921,-0.8869,-0.8716,-0.8564,-0.8414,-0.8327,-0.8123,-0.7988,-0.7998,-0.8184,-0.836,-0.8564,-0.872,-0.9057,-0.9746,-0.9805,-0.9805,-0.9809,-0.9805,-0.9537,-0.9047,-0.8937,-0.9805,-1.1755,-1.2783,-1.4175,-1.6114,-1.7222,-1.7836,-1.819,-1.8275,-1.788,-1.663,-1.5268,-1.3804,-1.2662,-1.2513,-1.2753,-1.3646,-1.5246,-1.6315,-1.4648,-1.3581,-1.2573,-1.1197,-1.0778,-1.0778,-1.0778,-1.0301,-0.9819,-0.9819,-0.9819,-0.9819,-0.9977,-1.0877,-1.1966,-1.2698,-1.3913,-1.451,-1.4005,-1.2861,-1.1973,-1.0511,-0.9261,-0.8937,-0.8937,-0.8866,-0.9515,-1.0989,-1.0741,-1.0721,-1.0721,-1.0721,-1.0721,-1.0721,-1.0721,-1.0721,-1.1439,-1.2413,-1.1762,-1.3713,-1.7602,-1.9158,-1.896,-1.7923,-1.825,-1.728,-1.5399,-1.5204,-1.4297,-1.2668,-1.255,-1.174,-1.0937,-1.3028,-1.4602,-1.5407,-1.7449,-1.8946,-1.9307,-1.9424,-1.8583,-1.7126,-1.682,-1.5128,-1.2131,-1.1637,-1.0683,-0.9189,-0.8937,-0.8937,-0.8937,-0.8937,-0.8937,-0.8937,-0.8937,-0.8814,-0.8716,-0.8564,-0.8418,-0.833,-0.8123,-0.7988,-0.8002,-0.8184,-0.8385,-0.8525,-0.8625,-0.872,-0.8916,-0.921,-0.932,-0.9047,-0.9265,-0.9265,-0.8937,-0.8937,-0.9478,-1.0945,-1.2077,-1.3426,-1.5144,-1.6446,-1.7191,-1.7775,-1.7922,-1.7595,-1.6417,-1.4974,-1.3606,-1.2684,-1.3365,-1.4183,-1.4178,-1.5187,-1.5725,-1.3287,-1.2273,-1.108,-0.9997,-0.9822,-0.9819,-0.9819,-0.9819,-0.9819,-0.9819,-0.9819,-0.9805,-0.9895,-1.0832,-1.1977,-1.3103,-1.4582,-1.5189,-1.473,-1.3986,-1.2561,-1.0945,-0.964,-0.891,-0.8862,-0.8777,-0.8682,-1.0989,-1.0734,-1.0721,-1.0721,-1.0721,-1.0721,-1.0721,-1.0721,-1.0721,-1.0784,-1.1178,-1.2351,-1.4166,-1.5983,-1.6237,-1.6113,-1.6307,-1.7661,-1.656,-1.3643,-1.3386,-1.2479,-1.084,-1.0699,-1.0555,-1.0407,-1.1955,-1.4069,-1.6568,-1.6968,-1.7864,-1.9243,-1.9127,-1.8467,-1.7085,-1.668,-1.5231,-1.2157,-1.1629,-1.0799,-0.9141,-0.8937,-0.8937,-0.8937,-0.8937,-0.8937,-0.8937,-0.8937,-0.8811,-0.8713,-0.856,-0.8414,-0.8323,-0.817,-0.8088,-0.8101,-0.8231,-0.8433,-0.8577,-0.8721,-0.8821,-0.902,-0.997,-1.0351,-0.9099,-0.9915,-1.0025,-0.9047,-0.8937,-0.9537,-1.0731,-1.1433,-1.2615,-1.4877,-1.547,-1.6299,-1.7503,-1.7862,-1.7245,-1.6087,-1.4818,-1.3475,-1.2277,-1.3528,-1.485,-1.5403,-1.5359,-1.448,-1.3646,-1.1619,-1.0243,-0.9879,-0.9819,-0.9819,-0.9819,-0.9819,-0.9819,-0.9812,-0.9795,-0.9771,-1.0211,-1.0851,-1.2091,-1.3372,-1.4735,-1.5329,-1.5154,-1.4014,-1.2172,-1.0655,-0.9501,-0.8872,-0.8743,-0.8723,-0.8618,-1.0907,-1.0724,-1.0721,-1.0721,-1.0721,-1.0721,-1.0721,-1.0721,-1.0721,-1.0721,-1.0784,-1.1372,-1.261,-1.4227,-1.4232,-1.4879,-1.5918,-1.6565,-1.4939,-1.189,-1.1633,-1.1306,-1.078,-1.066,-1.0507,-1.0551,-1.1834,-1.3548,-1.5224,-1.5488,-1.5725,-1.6203,-1.6326,-1.5967,-1.5344,-1.433,-1.3068,-1.1852,-1.076,-0.9698,-0.9016,-0.8937,-0.8937,-0.8937,-0.8937,-0.8937,-0.8937,-0.8937,-0.8825,-0.8574,-0.8509,-0.8781,-0.9291,-0.9298,-0.9266,-0.927,-0.9321,-0.9482,-0.968,-0.9778,-0.9518,-0.9016,-0.9372,-0.9588,-0.9103,-0.9372,-0.9482,-0.9047,-0.8937,-0.921,-0.986,-1.1324,-1.2891,-1.4019,-1.5689,-1.6876,-1.7437,-1.7689,-1.7542,-1.6919,-1.5311,-1.3341,-1.256,-1.3315,-1.3854,-1.2699,-1.3561,-1.3577,-1.1916,-1.0418,-0.9819,-0.9819,-0.9819,-0.9819,-0.9819,-0.9819,-0.9815,-0.9788,-0.9761,-0.969,-0.9958,-1.0555,-1.1699,-1.2348,-1.3946,-1.515,-1.4883,-1.4083,-1.2194,-1.0646,-0.9508,-0.8733,-0.8594,-0.8547,-0.8438,-1.0816,-1.0727,-1.0721,-1.0721,-1.0721,-1.0721,-1.0721,-1.0721,-1.0721,-1.0721,-1.0721,-1.0721,-1.1633,-1.3128,-1.332,-1.3905,-1.5009,-1.5009,-1.3517,-1.085,-1.0721,-1.0721,-1.0711,-1.067,-1.0517,-1.0477,-1.122,-1.2449,-1.3684,-1.383,-1.4123,-1.4604,-1.4604,-1.4302,-1.3741,-1.2612,-1.18,-1.0948,-0.9846,-0.914,-0.8912,-0.8937,-0.8937,-0.8937,-0.8937,-0.8937,-0.8937,-0.8937,-0.8852,-0.8655,-0.854,-0.8962,-0.9846,-1.0386,-1.0632,-1.0632,-1.0636,-1.0721,-1.0868,-1.0613,-1.0108,-0.9537,-0.9133,-0.9047,-0.9482,-0.9154,-0.9158,-0.9375,-0.9103,-0.8937,-0.9372,-1.1105,-1.2724,-1.3318,-1.5043,-1.6658,-1.7477,-1.7589,-1.741,-1.6877,-1.5623,-1.3913,-1.2725,-1.3572,-1.331,-1.1303,-1.2926,-1.2624,-1.108,-1.0061,-0.9819,-0.9819,-0.9819,-0.9819,-0.9798,-0.9771,-0.9727,-0.9696,-0.9663,-0.9598,-0.9641,-1.033,-1.0907,-1.1505,-1.2631,-1.4062,-1.4426,-1.3789,-1.2394,-1.0679,-0.9496,-0.8587,-0.8465,-0.8353,-0.8524,-1.0724,-1.0721,-1.0721,-1.0721,-1.0721,-1.0721,-1.0721,-1.0721,-1.0721,-1.0721,-1.0721,-1.0721,-1.1567,-1.2865,-1.2997,-1.3189,-1.3259,-1.3259,-1.2413,-1.0784,-1.0721,-1.0721,-1.0711,-1.0599,-1.0453,-1.027,-1.0036,-1.0739,-1.2097,-1.2217,-1.2873,-1.4128,-1.4128,-1.3467,-1.2277,-1.2063,-1.1193,-1.0073,-0.9592,-0.9222,-0.8925,-0.8937,-0.8937,-0.8937,-0.8937,-0.8937,-0.8937,-0.8937,-0.8858,-0.8855,-0.8731,-0.9006,-1.016,-1.1263,-1.1896,-1.1896,-1.1896,-1.2007,-1.1969,-1.1146,-1.065,-1.0125,-0.949,-0.9347,-1.0096,-0.9578,-0.9372,-1.0131,-0.9588,-0.8937,-0.9103,-1.0186,-1.1647,-1.2999,-1.3696,-1.5097,-1.677,-1.7582,-1.71,-1.6022,-1.5398,-1.5021,-1.4124,-1.3725,-1.349,-1.3112,-1.2831,-1.226,-1.1467,-1.0461,-0.9879,-0.9808,-0.9781,-0.9761,-0.9737,-0.9707,-0.9642,-0.9588,-0.9551,-0.949,-0.9323,-0.9751,-1.0002,-1.0595,-1.1746,-1.312,-1.3799,-1.3095,-1.1797,-1.031,-0.9328,-0.8494,-0.8316,-0.8313,-0.8924,-1.0721,-1.0721,-1.0721,-1.0721,-1.0721,-1.0721,-1.0721,-1.0721,-1.0721,-1.0721,-1.0721,-1.0721,-1.1045,-1.1439,-1.1501,-1.1501,-1.1501,-1.1505,-1.1174,-1.0784,-1.0721,-1.0721,-1.0711,-1.067,-1.0517,-1.0266,-0.9968,-1.0058,-1.0479,-1.06,-1.0838,-1.1197,-1.1378,-1.1679,-1.2093,-1.1189,-1.0502,-1.0971,-0.9954,-0.9235,-0.8967,-0.894,-0.8937,-0.8937,-0.8937,-0.8937,-0.8937,-0.8937,-0.878,-0.8652,-0.9365,-1.0276,-1.1304,-1.2571,-1.3247,-1.3247,-1.3295,-1.2916,-1.2283,-1.1781,-1.0848,-0.9587,-0.8908,-0.893,-0.9381,-0.9154,-0.9147,-0.9588,-0.9154,-0.8937,-0.8992,-0.9265,-1.0296,-1.1651,-1.3534,-1.4883,-1.6015,-1.7041,-1.7312,-1.6776,-1.5279,-1.3963,-1.3446,-1.3091,-1.2267,-1.1372,-1.1589,-1.1811,-1.0662,-1.0187,-0.9768,-0.9703,-0.9686,-0.9666,-0.9618,-0.9547,-0.9456,-0.9412,-0.9384,-0.9351,-0.9188,-0.9135,-0.9391,-1.008,-1.1175,-1.1926,-1.2598,-1.2259,-1.1011,-1.0116,-0.9239,-0.8648,-0.8204,-0.8396,-0.8827,-1.0721,-1.0721,-1.0721,-1.0721,-1.0721,-1.0721,-1.0721,-1.0721,-1.0721,-1.0721,-1.0721,-1.0721,-1.0721,-1.0721,-1.0721,-1.0721,-1.0721,-1.0721,-1.0721,-1.0721,-1.0721,-1.0721,-1.0707,-1.0656,-1.0521,-1.028,-1.0025,-0.9873,-0.9819,-0.9819,-0.9819,-0.9819,-0.9819,-1.0301,-1.1201,-1.0411,-1.0285,-1.0708,-0.9924,-0.9262,-0.9059,-0.8964,-0.8937,-0.8937,-0.8937,-0.8937,-0.8937,-0.8937,-0.8852,-0.8983,-1.0221,-1.1614,-1.2741,-1.3937,-1.4609,-1.4609,-1.4519,-1.4099,-1.297,-1.2422,-1.1364,-0.9586,-0.8849,-0.9026,-0.9269,-0.9279,-0.904,-0.9644,-0.921,-0.8937,-0.8937,-0.8937,-0.9372,-1.0182,-1.2236,-1.418,-1.515,-1.6711,-1.7147,-1.6499,-1.5215,-1.3804,-1.2643,-1.2053,-1.098,-0.991,-1.0395,-1.1033,-0.9898,-0.9797,-0.9696,-0.9652,-0.9635,-0.9585,-0.9496,-0.9391,-0.933,-0.9289,-0.9205,-0.9164,-0.9069,-0.9011,-0.9168,-1.01,-1.1153,-1.1273,-1.1808,-1.1367,-1.0437,-0.9753,-0.901,-0.8527,-0.8022,-0.8012,-0.8446,-1.0721,-1.0721,-1.0721,-1.0721,-1.0721,-1.0721,-1.0721,-1.0721,-1.0721,-1.0721,-1.0721,-1.0721,-1.0721,-1.0721,-1.0721,-1.0721,-1.0721,-1.0721,-1.0721,-1.0721,-1.0721,-1.0721,-1.0704,-1.0585,-1.0446,-1.0304,-1.012,-0.9909,-0.9863,-0.9832,-0.9819,-0.9819,-0.9819,-0.9819,-1.0001,-0.9822,-0.9804,-0.9769,-0.9514,-0.9357,-0.914,-0.9008,-0.8937,-0.8937,-0.8937,-0.8937,-0.8937,-0.8937,-0.904,-0.9424,-1.1269,-1.2805,-1.4199,-1.5294,-1.5683,-1.5629,-1.5689,-1.4902,-1.3889,-1.2457,-1.138,-1.0117,-0.9209,-0.9223,-0.9957,-0.9388,-0.9288,-1.0237,-0.9537,-0.8937,-0.8937,-0.8937,-0.8992,-0.9099,-1.0891,-1.2832,-1.4936,-1.6552,-1.6817,-1.5689,-1.5091,-1.4288,-1.1655,-1.1227,-1.0484,-0.981,-0.9631,-0.9731,-0.9679,-0.9595,-0.9676,-0.9622,-0.9507,-0.9425,-0.931,-0.9232,-0.9123,-0.911,-0.9083,-0.9049,-0.9008,-0.8967,-0.8992,-0.9921,-1.0501,-1.0691,-1.0575,-1.0135,-0.9638,-0.8947,-0.8411,-0.8085,-0.7988,-0.7988,-0.8432,-1.0721,-1.0721,-1.0721,-1.0721,-1.0721,-1.0721,-1.0721,-1.0721,-1.0721,-1.0721,-1.0721,-1.0721,-1.0721,-1.0721,-1.0721,-1.0721,-1.0721,-1.0721,-1.0721,-1.0721,-1.0721,-1.0721,-1.0687,-1.0568,-1.0473,-1.0399,-1.0181,-0.9967,-0.992,-0.9873,-0.9822,-0.9819,-0.9819,-0.9819,-0.9819,-0.9819,-0.9744,-0.9612,-0.9462,-0.9313,-0.9221,-0.9018,-0.8885,-0.8937,-0.8937,-0.8937,-0.8937,-0.8937,-0.9902,-1.1625,-1.1981,-1.3391,-1.5434,-1.5827,-1.5879,-1.5736,-1.4975,-1.4376,-1.3667,-1.2016,-1.0573,-1.0033,-0.9193,-0.8633,-0.9061,-0.8947,-0.9029,-0.9387,-0.9047,-0.8937,-0.8937,-0.8937,-0.8937,-0.921,-1.0945,-1.2783,-1.3965,-1.5956,-1.6658,-1.4395,-1.3911,-1.2832,-1.1468,-1.0306,-0.968,-0.925,-0.9269,-0.9415,-0.9391,-0.9442,-0.952,-0.9361,-0.9245,-0.9188,-0.912,-0.9049,-0.8998,-0.8935,-0.8984,-0.8984,-0.896,-0.895,-0.8992,-0.9357,-0.9441,-0.9587,-0.9298,-0.8854,-0.8378,-0.8279,-0.815,-0.7998,-0.7992,-0.8038,-0.8581,-1.0721,-1.0721,-1.0721,-1.0721,-1.0721,-1.0721,-1.0721,-1.0721,-1.0721,-1.0721,-1.0721,-1.0721,-1.0721,-1.0721,-1.0721,-1.0721,-1.0721,-1.0721,-1.0721,-1.0721,-1.0721,-1.0721,-1.0694,-1.0616,-1.0558,-1.047,-1.0259,-1.0058,-0.997,-0.9897,-0.9829,-0.9819,-0.9819,-0.9819,-0.9819,-0.9819,-0.9721,-0.9686,-0.9554,-0.9405,-0.9309,-0.9103,-0.8998,-0.8957,-0.8937,-0.8937,-0.8937,-0.8937,-1.0186,-1.2234,-1.2806,-1.3723,-1.6258,-1.6359,-1.6199,-1.6151,-1.5443,-1.4906,-1.4152,-1.2759,-1.152,-1.0512,-0.9642,-0.9149,-0.88,-0.8716,-0.8859,-0.892,-0.8881,-0.8937,-0.8937,-0.8937,-0.8937,-0.9154,-1.1,-1.2349,-1.2403,-1.4347,-1.4556,-1.3102,-1.2295,-1.181,-1.0406,-0.9509,-0.921,-0.9072,-0.9181,-0.9275,-0.9265,-0.9347,-0.9381,-0.9255,-0.9193,-0.9123,-0.9086,-0.9022,-0.8971,-0.8895,-0.8892,-0.8937,-0.8937,-0.8937,-0.8937,-0.8931,-0.8695,-0.8472,-0.8438,-0.8353,-0.8191,-0.8106,-0.8008,-0.8002,-0.7992,-0.7988,-0.8581,-1.0721,-1.0721,-1.0721,-1.0721,-1.0721,-1.0721,-1.0721,-1.0721,-1.0721,-1.0721,-1.0721,-1.0721,-1.0721,-1.0721,-1.0721,-1.0721,-1.0721,-1.0721,-1.0721,-1.0721,-1.0721,-1.0721,-1.0717,-1.0704,-1.0636,-1.0527,-1.0375,-1.0229,-1.0097,-0.9937,-0.9842,-0.9829,-0.9819,-0.9819,-0.9819,-0.9819,-0.9819,-0.9781,-0.9656,-0.951,-0.9415,-0.9262,-0.9069,-0.8954,-0.8937,-0.8937,-0.8937,-0.9047,-1.0233,-1.3205,-1.2999,-1.4266,-1.66,-1.6847,-1.6693,-1.654,-1.6251,-1.5701,-1.5028,-1.4263,-1.3378,-1.1597,-1.091,-1.0281,-0.9233,-0.9012,-0.8828,-0.8878,-0.8937,-0.8937,-0.8937,-0.8937,-0.8937,-0.9103,-1.0186,-1.0781,-1.116,-1.2295,-1.2729,-1.1214,-1.0941,-1.0402,-0.9427,-0.8892,-0.8922,-0.9018,-0.9103,-0.9093,-0.91,-0.9161,-0.9174,-0.912,-0.9156,-0.9173,-0.9069,-0.9015,-0.8971,-0.8885,-0.8885,-0.8937,-0.8937,-0.8937,-0.8937,-0.8855,-0.8693,-0.8557,-0.8465,-0.8326,-0.814,-0.7998,-0.7995,-0.7992,-0.7988,-0.7988,-0.8333,-1.0721,-1.0721,-1.0721,-1.0721,-1.0721,-1.0721,-1.0721,-1.0721,-1.0721,-1.0721,-1.0721,-1.0721,-1.0721,-1.0721,-1.0721,-1.0721,-1.0721,-1.0721,-1.0721,-1.0721,-1.0721,-1.0721,-1.0721,-1.0721,-1.07,-1.0626,-1.0514,-1.0368,-1.0219,-0.9997,-0.9872,-0.9832,-0.9819,-0.9819,-0.9819,-0.9819,-0.9819,-0.9795,-0.9683,-0.9544,-0.9388,-0.9303,-0.9096,-0.8902,-0.8937,-0.8937,-0.8937,-0.8937,-1.0351,-1.241,-1.3184,-1.4171,-1.6497,-1.6907,-1.678,-1.6566,-1.5865,-1.5594,-1.5632,-1.3868,-1.2448,-1.347,-1.1111,-0.9421,-1.0391,-0.9277,-0.8883,-0.8844,-0.8937,-0.8937,-0.8937,-0.8937,-0.8937,-0.9047,-0.9265,-0.9482,-0.9809,-1.1647,-1.1755,-1.0402,-1.0351,-1.0511,-0.9099,-0.8937,-0.896,-0.8988,-0.8991,-0.8988,-0.9015,-0.9052,-0.9042,-0.9032,-0.9028,-0.9039,-0.9022,-0.8981,-0.8964,-0.8937,-0.8937,-0.8937,-0.8937,-0.8937,-0.8937,-0.8882,-0.8788,-0.8655,-0.8506,-0.836,-0.8187,-0.8116,-0.7988,-0.7988,-0.7988,-0.7988,-0.7988,-1.0721,-1.0721,-1.0721,-1.0721,-1.0721,-1.0721,-1.0721,-1.0721,-1.0721,-1.0721,-1.0721,-1.0721,-1.0721,-1.0721,-1.0721,-1.0721,-1.0721,-1.0721,-1.0721,-1.0721,-1.0721,-1.0721,-1.0721,-1.0721,-1.0717,-1.0697,-1.0561,-1.0419,-1.0276,-1.0127,-0.9903,-0.9832,-0.9819,-0.9819,-0.9819,-0.9819,-0.9819,-0.9815,-0.9747,-0.9608,-0.9398,-0.9306,-0.914,-0.8981,-0.8937,-0.8937,-0.8937,-0.8937,-1.0511,-1.2424,-1.3207,-1.4309,-1.6749,-1.7201,-1.7121,-1.696,-1.6587,-1.6375,-1.6163,-1.4798,-1.3656,-1.4885,-1.1751,-1.0753,-1.0451,-0.962,-0.89,-0.8858,-0.8937,-0.8937,-0.8937,-0.8937,-0.8937,-0.8937,-0.8937,-0.8937,-0.9154,-1.0351,-1.0781,-0.9372,-0.9592,-0.9533,-0.9154,-0.8937,-0.894,-0.8964,-0.8964,-0.896,-0.8957,-0.8988,-0.8974,-0.8964,-0.8954,-0.8954,-0.8954,-0.8947,-0.895,-0.8937,-0.8937,-0.8937,-0.8937,-0.8937,-0.8937,-0.8824,-0.8763,-0.8659,-0.8509,-0.837,-0.8235,-0.8109,-0.7988,-0.7988,-0.7988,-0.7988,-0.7988,-1.0721,-1.0721,-1.0721,-1.0721,-1.0721,-1.0721,-1.0721,-1.0721,-1.0721,-1.0721,-1.0721,-1.0721,-1.0721,-1.0721,-1.0721,-1.0721,-1.0721,-1.0721,-1.0721,-1.0721,-1.0721,-1.0721,-1.0721,-1.0721,-1.0717,-1.0704,-1.0605,-1.0463,-1.029,-1.0148,-1.0012,-0.9856,-0.9819,-0.9819,-0.9819,-0.9819,-0.9819,-0.9815,-0.9805,-0.9663,-0.9432,-0.9361,-0.9218,-0.8991,-0.8937,-0.8937,-0.8937,-0.9099,-1.0131,-1.2729,-1.3156,-1.4615,-1.6234,-1.7529,-1.7364,-1.7292,-1.6858,-1.6832,-1.6445,-1.5411,-1.4458,-1.5257,-1.2384,-1.1252,-1.0983,-1.0002,-0.9085,-0.8927,-0.8937,-0.8937,-0.8937,-0.8937,-0.8937,-0.8937,-0.8937,-0.8937,-0.8937,-0.8937,-0.9047,-0.9047,-0.9103,-0.9099,-0.9044,-0.8937,-0.8937,-0.8937,-0.8937,-0.8937,-0.8937,-0.8937,-0.8937,-0.8937,-0.8937,-0.8937,-0.8937,-0.8937,-0.8937,-0.8937,-0.8937,-0.8937,-0.8937,-0.8937,-0.8878,-0.8858,-0.8777,-0.8686,-0.855,-0.8421,-0.8279,-0.8062,-0.7988,-0.7988,-0.7988,-0.7988,-0.7988,-1.0721,-1.0721,-1.0721,-1.0721,-1.0721,-1.0721,-1.0721,-1.0721,-1.0721,-1.0721,-1.0721,-1.0721,-1.0721,-1.0721,-1.0721,-1.0721,-1.0721,-1.0721,-1.0721,-1.0721,-1.0721,-1.0721,-1.0721,-1.0721,-1.0721,-1.0717,-1.0666,-1.0534,-1.0344,-1.0239,-1.008,-0.988,-0.9819,-0.9819,-0.9819,-0.9819,-0.9819,-0.9819,-0.9812,-0.9669,-0.9449,-0.933,-0.9225,-0.8964,-0.8937,-0.8937,-0.8937,-0.8992,-0.9699,-1.1374,-1.262,-1.348,-1.4561,-1.6287,-1.6658,-1.6062,-1.5956,-1.6009,-1.5524,-1.3637,-1.418,-1.4931,-1.267,-1.1105,-1.1592,-1.0621,-0.9316,-0.8937,-0.8937,-0.8937,-0.8937,-0.8937,-0.8937,-0.8937,-0.8937,-0.8937,-0.8937,-0.8937,-0.8937,-0.8937,-0.8937,-0.8937,-0.8937,-0.8937,-0.8937,-0.8937,-0.8937,-0.8937,-0.8937,-0.8937,-0.8937,-0.8937,-0.8937,-0.8937,-0.8937,-0.8937,-0.8937,-0.8937,-0.8937,-0.8937,-0.8937,-0.8937,-0.8875,-0.8861,-0.8817,-0.8764,-0.8625,-0.8472,-0.8296,-0.8062,-0.8019,-0.7988,-0.7988,-0.7988,-0.7988,-1.0792,-1.0721,-1.0721,-1.0721,-1.0721,-1.0721,-1.0721,-1.0721,-1.0721,-1.0721,-1.0721,-1.0721,-1.0721,-1.0721,-1.0721,-1.0721,-1.0721,-1.0721,-1.0721,-1.0721,-1.0721,-1.0721,-1.0721,-1.0721,-1.0721,-1.0721,-1.0707,-1.0612,-1.0399,-1.0307,-1.0154,-0.9916,-0.9808,-0.9819,-0.9819,-0.9819,-0.9819,-0.9819,-0.9805,-0.968,-0.9388,-0.9262,-0.9066,-0.8988,-0.8937,-0.8937,-0.8937,-0.8937,-0.9644,-1.0891,-1.1755,-1.2512,-1.3426,-1.4288,-1.5097,-1.4502,-1.4877,-1.4984,-1.4663,-1.3421,-1.4609,-1.5583,-1.294,-1.1969,-1.2349,-1.1378,-0.9699,-0.9099,-0.8937,-0.8937,-0.8937,-0.8937,-0.8937,-0.8937,-0.8937,-0.8937,-0.8937,-0.8937,-0.8937,-0.8937,-0.8937,-0.8937,-0.8937,-0.8937,-0.8937,-0.8937,-0.8937,-0.8937,-0.8937,-0.8937,-0.8937,-0.8937,-0.8937,-0.8937,-0.8937,-0.8937,-0.8937,-0.8937,-0.8937,-0.8937,-0.8937,-0.8937,-0.8937,-0.8878,-0.8872,-0.874,-0.8632,-0.8452,-0.8279,-0.8073,-0.8025,-0.7988,-0.7988,-0.7988,-0.7988,-1.086,-1.0721,-1.0721,-1.0721,-1.0721,-1.0721,-1.0721,-1.0721,-1.0721,-1.0721,-1.0721,-1.0721,-1.0721,-1.0721,-1.0721,-1.0721,-1.0721,-1.0721,-1.0721,-1.0721,-1.0721,-1.0721,-1.0721,-1.0721,-1.0721,-1.0721,-1.0717,-1.0639,-1.0473,-1.0344,-1.0198,-0.9974,-0.9832,-0.9819,-0.9819,-0.9819,-0.9819,-0.9819,-0.9812,-0.9669,-0.9388,-0.9133,-0.8905,-0.894,-0.8937,-0.8937,-0.8937,-0.8937,-0.9372,-1.0296,-1.1,-1.1487,-1.2245,-1.2674,-1.2724,-1.2724,-1.375,-1.3804,-1.3857,-1.3588,-1.4126,-1.5364,-1.4126,-1.3318,-1.2408,-1.1219,-0.997,-0.9154,-0.9316,-0.921,-0.9044,-0.921,-0.9154,-0.8937,-0.8937,-0.8937,-0.8937,-0.8937,-0.8937,-0.8937,-0.8937,-0.8937,-0.8937,-0.8937,-0.8937,-0.8937,-0.8937,-0.8937,-0.8937,-0.8937,-0.8937,-0.8937,-0.8937,-0.8937,-0.8937,-0.8937,-0.8937,-0.8937,-0.8937,-0.8937,-0.8937,-0.8937,-0.8933,-0.8927,-0.8801,-0.871,-0.8598,-0.8431,-0.8262,-0.8133,-0.8022,-0.7988,-0.7988,-0.7988,-0.7988,-1.0793,-1.0721,-1.0721,-1.0721,-1.0721,-1.0721,-1.0721,-1.0721,-1.0721,-1.0721,-1.0721,-1.0721,-1.0721,-1.0721,-1.0721,-1.0721,-1.0721,-1.0721,-1.0721,-1.0721,-1.0721,-1.0721,-1.0721,-1.0721,-1.0721,-1.0721,-1.0721,-1.0633,-1.0507,-1.0365,-1.0212,-1.0,-0.9859,-0.9819,-0.9819,-0.9819,-0.9819,-0.9819,-0.9815,-0.9676,-0.9415,-0.9215,-0.9062,-0.8981,-0.894,-0.8937,-0.8937,-0.8937,-0.9154,-0.932,-1.046,-1.046,-0.9915,-1.0726,-1.0457,-1.0241,-1.0781,-1.2077,-1.2615,-1.2724,-1.2994,-1.4288,-1.3911,-1.2729,-1.1647,-1.0351,-0.932,-0.9103,-0.9915,-1.0186,-0.9588,-1.0131,-0.9974,-0.9372,-0.8937,-0.8937,-0.8937,-0.8937,-0.8937,-0.8937,-0.8937,-0.8937,-0.8937,-0.8937,-0.8937,-0.8937,-0.8937,-0.8937,-0.8937,-0.8937,-0.8937,-0.8937,-0.8937,-0.8937,-0.8937,-0.8937,-0.8937,-0.8937,-0.8937,-0.8937,-0.8937,-0.8933,-0.8865,-0.8841,-0.8763,-0.8693,-0.8509,-0.8353,-0.8225,-0.8133,-0.8008,-0.7988,-0.7988,-0.7988,-0.7988,-1.0934,-1.0721,-1.0721,-1.0721,-1.0721,-1.0721,-1.0721,-1.0721,-1.0721,-1.0721,-1.0721,-1.0721,-1.0721,-1.0721,-1.0721,-1.0721,-1.0721,-1.0721,-1.0721,-1.0721,-1.0721,-1.0721,-1.0721,-1.0721,-1.0721,-1.0721,-1.0717,-1.0704,-1.0561,-1.0395,-1.0232,-1.0154,-0.9947,-0.9819,-0.9819,-0.9819,-0.9819,-0.9798,-0.9741,-0.9639,-0.9483,-0.9289,-0.9183,-0.9059,-0.8988,-0.895,-0.8944,-0.8937,-0.8937,-0.8992,-0.9644,-0.9592,-0.9158,-0.9482,-0.9478,-0.921,-0.9482,-1.0131,-1.0726,-1.1647,-1.2566,-1.2832,-1.2994,-1.2674,-1.1214,-0.986,-0.9375,-1.0135,-1.0672,-1.0617,-1.0241,-1.0726,-1.0076,-0.9482,-0.8937,-0.8937,-0.8937,-0.8937,-0.8937,-0.8937,-0.8937,-0.8937,-0.8937,-0.8937,-0.8937,-0.8937,-0.8937,-0.8937,-0.8937,-0.8937,-0.8937,-0.8937,-0.8937,-0.8937,-0.8937,-0.8937,-0.8937,-0.8937,-0.8937,-0.8937,-0.8937,-0.893,-0.891,-0.8808,-0.8679,-0.8543,-0.8401,-0.8303,-0.8201,-0.8119,-0.7992,-0.7988,-0.7988,-0.7988,-0.7988,-1.0989,-1.0724,-1.0721,-1.0721,-1.0721,-1.0721,-1.0721,-1.0721,-1.0721,-1.0721,-1.0721,-1.0721,-1.0721,-1.0721,-1.0721,-1.0721,-1.0721,-1.0721,-1.0721,-1.0721,-1.0721,-1.0721,-1.0721,-1.0721,-1.0721,-1.0721,-1.0721,-1.0711,-1.0622,-1.0449,-1.0276,-1.0326,-0.9961,-0.9842,-0.9819,-0.9819,-0.9819,-0.9812,-0.9734,-0.9659,-0.9568,-0.9395,-0.9279,-0.9181,-0.9083,-0.8991,-0.8988,-0.8944,-0.8937,-0.8937,-0.8992,-0.9047,-0.8937,-0.9047,-0.9099,-0.8937,-0.9099,-0.9099,-0.9915,-1.0891,-1.181,-1.1755,-1.1433,-1.1542,-1.1219,-0.9809,-0.9158,-1.0131,-1.0887,-1.0836,-1.0672,-1.0726,-1.0296,-0.9537,-0.8937,-0.8937,-0.8937,-0.8937,-0.8937,-0.8937,-0.8937,-0.8937,-0.8937,-0.8937,-0.8937,-0.8937,-0.8937,-0.8937,-0.8937,-0.8937,-0.8937,-0.8937,-0.8937,-0.8937,-0.8937,-0.8937,-0.8937,-0.8937,-0.8937,-0.8937,-0.8937,-0.8916,-0.8889,-0.875,-0.8574,-0.8455,-0.8402,-0.8265,-0.8184,-0.8102,-0.7988,-0.7988,-0.7988,-0.7988,-0.7988,-1.0992,-1.0721,-1.0721,-1.0721,-1.0721,-1.0721,-1.0721,-1.0721,-1.0721,-1.0721,-1.0721,-1.0721,-1.0721,-1.0721,-1.0721,-1.0721,-1.0721,-1.0721,-1.0721,-1.0721,-1.0721,-1.0721,-1.0721,-1.0721,-1.0721,-1.0721,-1.0721,-1.0721,-1.0649,-1.0426,-1.0307,-1.0236,-0.9964,-0.9859,-0.9819,-0.9819,-0.9819,-0.9819,-0.9781,-0.9724,-0.9656,-0.9554,-0.9486,-0.9354,-0.9286,-0.9193,-0.9187,-0.9025,-0.8944,-0.8944,-0.8937,-0.8937,-0.8937,-0.8937,-0.8937,-0.8937,-0.8937,-0.8937,-0.9427,-1.0186,-1.0945,-1.0731,-1.0351,-1.0135,-1.0515,-0.9699,-0.9265,-0.9644,-1.0836,-1.0676,-1.0296,-0.997,-1.0241,-0.9482,-0.8937,-0.8937,-0.8937,-0.8937,-0.8937,-0.8937,-0.8937,-0.8937,-0.8937,-0.8937,-0.8937,-0.8937,-0.8937,-0.8937,-0.8937,-0.8937,-0.8937,-0.8937,-0.8937,-0.8937,-0.8937,-0.8937,-0.8937,-0.8937,-0.8937,-0.8937,-0.8937,-0.8906,-0.8835,-0.8693,-0.8526,-0.8467,-0.8347,-0.8194,-0.8109,-0.8019,-0.7988,-0.7988,-0.7988,-0.7988,-0.7988,-1.0992,-1.0724,-1.0721,-1.0721,-1.0721,-1.0721,-1.0721,-1.0721,-1.0721,-1.0721,-1.0721,-1.0721,-1.0721,-1.0721,-1.0721,-1.0721,-1.0721,-1.0721,-1.0721,-1.0721,-1.0721,-1.0721,-1.0721,-1.0721,-1.0721,-1.0721,-1.0721,-1.0721,-1.0687,-1.0419,-1.0314,-1.0185,-0.9961,-0.9859,-0.9819,-0.9819,-0.9819,-0.9819,-0.9819,-0.9781,-0.9747,-0.9646,-0.9581,-0.9523,-0.9371,-0.9303,-0.9221,-0.9163,-0.9025,-0.8964,-0.8944,-0.8937,-0.8937,-0.8937,-0.8937,-0.8937,-0.8937,-0.8937,-0.8937,-0.9482,-0.9699,-0.9699,-0.9265,-0.9158,-0.997,-0.9864,-1.0186,-1.0726,-1.1269,-1.1164,-1.0672,-1.0672,-1.0566,-0.9427,-0.8937,-0.8937,-0.8937,-0.8937,-0.8937,-0.8937,-0.8937,-0.8937,-0.8937,-0.8937,-0.8937,-0.8937,-0.8937,-0.8937,-0.8937,-0.8937,-0.8937,-0.8937,-0.8937,-0.8937,-0.8937,-0.8937,-0.8937,-0.8937,-0.8937,-0.8937,-0.8927,-0.8811,-0.873,-0.8598,-0.8462,-0.8323,-0.8201,-0.8102,-0.8002,-0.7992,-0.7988,-0.7988,-0.7988,-0.7988,-0.7988,-1.0163,-0.999,-1.0452,-1.0721,-1.0721,-1.0721,-1.0721,-1.0721,-1.0721,-1.0721,-1.0721,-1.0721,-1.0721,-1.0721,-1.0721,-1.0721,-1.0721,-1.0721,-1.0721,-1.0721,-1.0721,-1.0721,-1.0721,-1.0721,-1.0721,-1.0721,-1.0714,-1.0711,-1.0622,-1.0392,-1.0266,-1.0134,-0.9968,-0.9849,-0.9819,-0.9819,-0.9819,-0.9819,-0.9819,-0.9819,-0.9798,-0.9734,-0.968,-0.9652,-0.9527,-0.9422,-0.9303,-0.9218,-0.9103,-0.9025,-0.8974,-0.894,-0.8937,-0.8937,-0.8937,-0.8937,-0.8937,-0.8937,-0.8937,-0.8937,-0.8937,-0.9047,-0.9047,-0.8937,-0.921,-0.986,-0.9915,-1.0241,-1.1219,-1.1596,-1.0511,-1.0241,-1.0025,-0.8992,-0.8937,-0.8937,-0.8937,-0.8937,-0.8937,-0.8937,-0.8937,-0.8937,-0.8937,-0.8937,-0.8937,-0.8937,-0.8937,-0.8937,-0.8937,-0.8937,-0.8937,-0.8937,-0.8937,-0.8937,-0.8937,-0.8937,-0.8937,-0.8937,-0.8937,-0.8937,-0.8899,-0.8777,-0.8655,-0.854,-0.8397,-0.8228,-0.8126,-0.8012,-0.7995,-0.7988,-0.7988,-0.7988,-0.7988,-0.7988,-0.7988,-0.8308,-0.8307,-0.9981,-1.0721,-1.0721,-1.0721,-1.0721,-1.0721,-1.0721,-1.0721,-1.0721,-1.0721,-1.0721,-1.0721,-1.0721,-1.0721,-1.0721,-1.0721,-1.0721,-1.0721,-1.0721,-1.0721,-1.0721,-1.0721,-1.0721,-1.0721,-1.0714,-1.0656,-1.0534,-1.0365,-1.0222,-1.0083,-0.9941,-0.9819,-0.9819,-0.9819,-0.9819,-0.9819,-0.9819,-0.9819,-0.9815,-0.9795,-0.9785,-0.9751,-0.9673,-0.9574,-0.9483,-0.9337,-0.9215,-0.9169,-0.9018,-0.8971,-0.8885,-0.8937,-0.8937,-0.8937,-0.8937,-0.8937,-0.8937,-0.8937,-0.8937,-0.8937,-0.8937,-0.8937,-0.8937,-0.9154,-0.9316,-0.9644,-0.9754,-0.9592,-0.9154,-0.9047,-0.9047,-0.8992,-0.8937,-0.8937,-0.8937,-0.8937,-0.8937,-0.8937,-0.8937,-0.8937,-0.8937,-0.8937,-0.8937,-0.8937,-0.8937,-0.8937,-0.8937,-0.8937,-0.8937,-0.8937,-0.8937,-0.8937,-0.8937,-0.8937,-0.8937,-0.8937,-0.8875,-0.8865,-0.8855,-0.8737,-0.8611,-0.8489,-0.833,-0.8157,-0.8092,-0.7988,-0.7988,-0.7988,-0.7988,-0.7988,-0.7988,-0.7988,-0.7988,-0.8169,-0.8166,-0.9911,-1.0721,-1.0721,-1.0721,-1.0721,-1.0721,-1.0721,-1.0721,-1.0721,-1.0721,-1.0721,-1.0721,-1.0721,-1.0721,-1.0721,-1.0721,-1.0721,-1.0721,-1.0721,-1.0721,-1.0721,-1.0721,-1.0721,-1.0721,-1.0714,-1.07,-1.0649,-1.0419,-1.0287,-1.0161,-0.9964,-0.9832,-0.9819,-0.9819,-0.9819,-0.9819,-0.9819,-0.9819,-0.9819,-0.9819,-0.9819,-0.9819,-0.9764,-0.9703,-0.9629,-0.9469,-0.9357,-0.9265,-0.91,-0.9035,-0.8971,-0.8947,-0.8937,-0.8937,-0.8937,-0.8937,-0.8937,-0.8937,-0.8937,-0.8937,-0.8937,-0.8937,-0.8885,-0.9915,-0.9754,-0.9393,-0.9636,-0.9518,-0.921,-0.8999,-0.8944,-0.8937,-0.8937,-0.8937,-0.8937,-0.8937,-0.8937,-0.8937,-0.8937,-0.8937,-0.8937,-0.8937,-0.8937,-0.8937,-0.8937,-0.8937,-0.8937,-0.8937,-0.8937,-0.8937,-0.8937,-0.8937,-0.8937,-0.8937,-0.8937,-0.8937,-0.8858,-0.8828,-0.8743,-0.8686,-0.853,-0.8384,-0.8238,-0.8099,-0.8015,-0.7988,-0.7988,-0.7988,-0.7988,-0.7988,-0.7988,-0.7988,-0.7988,-0.8133,-0.8238,-0.9978,-1.0721,-1.0721,-1.0721,-1.0721,-1.0721,-1.0721,-1.0721,-1.0721,-1.0721,-1.0721,-1.0721,-1.0721,-1.0721,-1.0721,-1.0721,-1.0721,-1.0721,-1.0721,-1.0721,-1.0721,-1.0721,-1.0721,-1.0721,-1.0711,-1.0697,-1.0609,-1.0446,-1.0334,-1.0219,-1.0029,-0.9883,-0.9839,-0.9869,-0.9819,-0.9819,-0.9819,-0.9819,-0.9819,-0.9819,-0.9819,-0.9819,-0.9802,-0.9778,-0.9696,-0.9612,-0.952,-0.9395,-0.9265,-0.9183,-0.9032,-0.8967,-0.8947,-0.8937,-0.8937,-0.8937,-0.8937,-0.8937,-0.8937,-0.8937,-0.8937,-0.8964,-0.9053,-0.9742,-0.9678,-0.964,-1.0122,-0.9857,-0.9304,-0.9072,-0.9052,-0.9052,-0.9018,-0.9022,-0.8895,-0.8895,-0.8944,-0.8944,-0.8937,-0.8937,-0.8937,-0.8937,-0.8937,-0.8937,-0.8937,-0.8937,-0.8937,-0.8937,-0.8937,-0.8937,-0.8937,-0.8937,-0.8937,-0.8937,-0.8937,-0.8937,-0.8854,-0.8821,-0.8743,-0.8628,-0.8455,-0.8292,-0.817,-0.8029,-0.8005,-0.7988,-0.7988,-0.7988,-0.7988,-0.7988,-0.7988,-0.7988,-0.7988,-0.7998,-0.824,-0.9915,-1.0721,-1.0721,-1.0721,-1.0721,-1.0721,-1.0721,-1.0721,-1.0721,-1.0721,-1.0721,-1.0721,-1.0721,-1.0721,-1.0721,-1.0721,-1.0721,-1.0721,-1.0721,-1.0721,-1.0721,-1.0721,-1.0721,-1.0721,-1.0711,-1.067,-1.0527,-1.047,-1.0399,-1.0256,-1.0086,-0.994,-0.9883,-0.988,-0.9825,-0.9819,-0.9819,-0.9819,-0.9819,-0.9819,-0.9819,-0.9819,-0.9815,-0.9812,-0.9758,-0.9693,-0.9629,-0.9496,-0.9405,-0.9279,-0.9169,-0.9018,-0.8971,-0.8937,-0.8937,-0.8937,-0.8937,-0.8937,-0.8937,-0.8937,-0.8937,-0.9018,-0.9142,-0.9398,-0.9387,-0.9417,-0.9677,-0.9544,-0.9337,-0.9303,-0.9269,-0.9225,-0.9224,-0.91,-0.8998,-0.8912,-0.896,-0.895,-0.894,-0.8937,-0.8937,-0.8937,-0.8937,-0.8937,-0.8937,-0.8937,-0.8937,-0.8937,-0.8937,-0.8937,-0.8937,-0.8937,-0.8937,-0.8937,-0.8937,-0.8937,-0.8871,-0.8828,-0.8733,-0.8567,-0.8408,-0.8258,-0.813,-0.8008,-0.7995,-0.7988,-0.7988,-0.7988,-0.7988,-0.7988,-0.7988,-0.7988,-0.7988,-0.7998,-0.8169,-0.9911,-1.0721,-1.0721,-1.0721,-1.0721,-1.0721,-1.0721,-1.0721,-1.0721,-1.0721,-1.0721,-1.0721,-1.0721,-1.0721,-1.0721,-1.0721,-1.0721,-1.0721,-1.0721,-1.0721,-1.0721,-1.0721,-1.0721,-1.0721,-1.0711,-1.069,-1.0636,-1.0568,-1.0358,-1.0071,-1.0114,-0.9963,-0.9879,-0.9849,-0.9829,-0.9819,-0.9819,-0.9819,-0.9819,-0.9819,-0.9819,-0.9819,-0.9819,-0.9819,-0.9795,-0.9778,-0.9713,-0.9588,-0.953,-0.9415,-0.9204,-0.9163,-0.9069,-0.8947,-0.8937,-0.8937,-0.8937,-0.894,-0.8954,-0.8971,-0.8908,-0.9018,-0.9103,-0.9251,-0.9309,-0.9371,-0.9439,-0.9459,-0.9462,-0.9442,-0.9408,-0.9361,-0.9361,-0.9228,-0.9123,-0.9049,-0.9032,-0.8947,-0.8937,-0.8937,-0.8937,-0.8937,-0.8937,-0.8937,-0.8937,-0.8937,-0.8937,-0.8937,-0.8937,-0.8937,-0.8937,-0.8937,-0.8937,-0.8937,-0.8937,-0.8937,-0.8871,-0.8849,-0.8642,-0.8479,-0.8347,-0.8221,-0.8042,-0.7998,-0.7992,-0.7988,-0.7988,-0.7988,-0.7988,-0.7988,-0.7988,-0.7988,-0.7988,-0.9041,-0.9244,-1.025,-1.0721,-1.0721,-1.0721,-1.0721,-1.0721,-1.0721,-1.0721,-1.0721,-1.0721,-1.0721,-1.0721,-1.0721,-1.0721,-1.0721,-1.0721,-1.0721,-1.0721,-1.0721,-1.0721,-1.0721,-1.0721,-1.0721,-1.0721,-1.0721,-1.0714,-1.069,-1.0639,-1.0466,-1.0361,-1.0236,-1.0093,-1.0012,-0.9914,-0.9825,-0.9819,-0.9819,-0.9819,-0.9819,-0.9819,-0.9819,-0.9819,-0.9819,-0.9819,-0.9819,-0.9819,-0.9768,-0.9683,-0.9663,-0.9503,-0.9242,-0.9147,-0.9052,-0.8885,-0.8937,-0.8981,-0.9022,-0.9032,-0.9055,-0.9089,-0.9103,-0.9208,-0.9256,-0.933,-0.9429,-0.9537,-0.9554,-0.9564,-0.9564,-0.9554,-0.9517,-0.9479,-0.9425,-0.9425,-0.9269,-0.9224,-0.9069,-0.8967,-0.8937,-0.8937,-0.8937,-0.8937,-0.8937,-0.8937,-0.8937,-0.8937,-0.8937,-0.8937,-0.8937,-0.8937,-0.8937,-0.8937,-0.8927,-0.8896,-0.8844,-0.8851,-0.8933,-0.8818,-0.8577,-0.8484,-0.8343,-0.8204,-0.8005,-0.7988,-0.7988,-0.7988,-0.7988,-0.7988,-0.7988,-0.7988,-0.7988,-0.7988,-0.7988,-1.0452,-1.0316,-1.0518,-1.0518,-1.0721,-1.0721,-1.0721,-1.0721,-1.0721,-1.0721,-1.0721,-1.0721,-1.0721,-1.0721,-1.0721,-1.0721,-1.0721,-1.0721,-1.0721,-1.0721,-1.0721,-1.0721,-1.0721,-1.0721,-1.0721,-1.0721,-1.0721,-1.0721,-1.0721,-1.068,-1.066,-1.0687,-1.0402,-1.0215,-1.0127,-0.9927,-0.9829,-0.9819,-0.9819,-0.9819,-0.9819,-0.9819,-0.9819,-0.9819,-0.9819,-0.9819,-0.9819,-0.9819,-0.9819,-0.9771,-0.97,-0.9561,-0.9344,-0.911,-0.8932,-0.8912,-0.8971,-0.9035,-0.911,-0.9147,-0.9232,-0.93,-0.9381,-0.9418,-0.9432,-0.9442,-0.9534,-0.9659,-0.9693,-0.97,-0.9696,-0.9693,-0.9669,-0.9639,-0.9595,-0.9466,-0.9364,-0.9181,-0.9035,-0.8954,-0.8937,-0.8937,-0.8937,-0.8937,-0.8937,-0.8937,-0.8937,-0.8937,-0.8937,-0.8937,-0.8913,-0.891,-0.8879,-0.8852,-0.8801,-0.8788,-0.8777,-0.8804,-0.8869,-0.8784,-0.854,-0.8428,-0.8353,-0.8194,-0.7988,-0.7988,-0.7988,-0.7988,-0.7988,-0.7988,-0.7988,-0.7988,-0.7988,-0.7988,-0.7988,-0.8634,-0.8634,-0.8634,-0.9374,-1.0651,-1.0721,-1.0721,-1.0721,-1.0721,-1.0721,-1.0721,-1.0721,-1.0721,-1.0721,-1.0721,-1.0721,-1.0721,-1.0721,-1.0721,-1.0721,-1.0721,-1.0721,-1.0721,-1.0721,-1.0721,-1.0721,-1.0721,-1.0721,-1.0721,-1.0707,-1.0656,-1.0548,-1.0368,-1.0273,-1.0164,-0.9941,-0.9849,-0.9852,-0.9822,-0.9822,-0.9819,-0.9819,-0.9819,-0.9819,-0.9819,-0.9819,-0.9819,-0.9819,-0.9819,-0.9802,-0.9791,-0.9635,-0.9391,-0.9106,-0.8912,-0.8957,-0.9055,-0.913,-0.9258,-0.9279,-0.9364,-0.9378,-0.9425,-0.949,-0.953,-0.9547,-0.9615,-0.9747,-0.9819,-0.9819,-0.9819,-0.9815,-0.9805,-0.9781,-0.9737,-0.9537,-0.9395,-0.9164,-0.8998,-0.8964,-0.894,-0.8937,-0.8937,-0.8937,-0.8937,-0.8937,-0.8937,-0.8937,-0.8937,-0.893,-0.8852,-0.8828,-0.8777,-0.8737,-0.8696,-0.8659,-0.8693,-0.8669,-0.8648,-0.857,-0.8486,-0.8364,-0.8245,-0.8143,-0.7988,-0.7988,-0.7988,-0.7988,-0.7988,-0.7988,-0.7988,-0.7988,-0.7988,-0.7988,-0.7988,-0.7564,-0.6965,-0.7698,-0.9039,-1.0518,-1.0721,-1.0721,-1.0721,-1.0721,-1.0721,-1.0721,-1.0721,-1.0721,-1.0721,-1.0721,-1.0717,-1.0717,-1.0721,-1.0721,-1.0721,-1.0721,-1.0721,-1.0721,-1.0721,-1.0721,-1.0721,-1.0721,-1.0721,-1.0721,-1.0714,-1.0656,-1.0568,-1.0446,-1.0321,-1.0202,-1.0053,-0.9859,-0.9862,-0.9802,-0.9829,-0.9825,-0.9819,-0.9819,-0.9819,-0.9819,-0.9819,-0.9819,-0.9819,-0.9819,-0.9791,-0.9754,-0.9673,-0.9476,-0.9286,-0.9167,-0.9164,-0.9222,-0.9286,-0.9347,-0.9418,-0.9507,-0.953,-0.9568,-0.9676,-0.9686,-0.9703,-0.9707,-0.9819,-0.9819,-0.9819,-0.9819,-0.9815,-0.9815,-0.9802,-0.969,-0.9523,-0.93,-0.9086,-0.8988,-0.895,-0.8937,-0.8937,-0.8937,-0.8937,-0.8937,-0.8937,-0.8937,-0.8937,-0.8937,-0.8878,-0.8797,-0.8777,-0.874,-0.8706,-0.8689,-0.8611,-0.854,-0.8555,-0.8528,-0.849,-0.8397,-0.8255,-0.813,-0.8092,-0.8008,-0.7988,-0.7988,-0.7988,-0.7988,-0.7988,-0.7988,-0.7988,-0.7988,-0.7988,-0.7988,-0.6762,-0.5765,-0.7296,-0.9036,-1.0585,-1.0721,-1.0721,-1.0721,-1.0721,-1.0721,-1.0721,-1.0721,-1.0721,-1.0721,-1.0382,-1.0515,-1.0651,-1.0717,-1.0721,-1.0721,-1.0721,-1.0721,-1.0721,-1.0721,-1.0721,-1.0721,-1.0721,-1.0721,-1.0721,-1.0717,-1.0707,-1.0687,-1.0599,-1.0487,-1.0409,-1.0249,-1.0004,-0.994,-0.9872,-0.9856,-0.9836,-0.9819,-0.9819,-0.9819,-0.9819,-0.9819,-0.9819,-0.9819,-0.9819,-0.9771,-0.971,-0.9635,-0.9551,-0.9412,-0.9361,-0.933,-0.9374,-0.9459,-0.9547,-0.9598,-0.969,-0.9761,-0.9808,-0.9819,-0.9812,-0.9812,-0.9815,-0.9815,-0.9819,-0.9819,-0.9819,-0.9819,-0.9819,-0.9778,-0.9646,-0.951,-0.9276,-0.9045,-0.8977,-0.8937,-0.8937,-0.8937,-0.8937,-0.8937,-0.8937,-0.8937,-0.8937,-0.8937,-0.8937,-0.8875,-0.8834,-0.8811,-0.8754,-0.8723,-0.8665,-0.856,-0.8494,-0.8511,-0.8494,-0.8384,-0.8333,-0.8299,-0.8231,-0.8126,-0.8096,-0.8039,-0.8002,-0.7988,-0.7988,-0.7988,-0.7988,-0.7988,-0.7988,-0.7988,-0.7988,-0.5696,-0.5563,-0.7296,-0.9036,-1.0585,-1.0721,-1.0721,-1.0717,-1.0651,-1.0721,-1.0585,-1.0651,-1.0717,-1.0585,-0.9039,-0.9039,-1.0246,-1.0518,-1.0721,-1.0721,-1.0721,-1.0721,-1.0721,-1.0721,-1.0721,-1.0721,-1.0721,-1.0721,-1.0721,-1.0721,-1.0717,-1.0707,-1.0578,-1.05,-1.0466,-1.0314,-1.0188,-1.0114,-0.996,-0.9944,-0.9846,-0.9829,-0.9822,-0.9819,-0.9819,-0.9819,-0.9819,-0.9819,-0.9819,-0.9778,-0.9707,-0.9649,-0.9591,-0.952,-0.9462,-0.9476,-0.952,-0.9574,-0.9649,-0.971,-0.9788,-0.9802,-0.9819,-0.9819,-0.9815,-0.9819,-0.9819,-0.9819,-0.9819,-0.9819,-0.9819,-0.9819,-0.9812,-0.9724,-0.9605,-0.9476,-0.9293,-0.9093,-0.895,-0.8937,-0.8937,-0.8937,-0.8937,-0.8937,-0.8937,-0.8937,-0.8937,-0.8937,-0.8937,-0.8875,-0.8868,-0.8859,-0.8788,-0.8645,-0.8547,-0.8462,-0.8426,-0.8453,-0.8418,-0.8381,-0.8384,-0.8442,-0.8364,-0.8177,-0.8157,-0.817,-0.813,-0.7988,-0.7988,-0.7988,-0.7988,-0.7988,-0.7988,-0.7988,-0.7988]}]]